[[[{"header":{"parameterUnit":"kt","parameterCategory":2,"dx":1,"dy":1,"la1":29.587661999999998,"la2":31.0,"lo1":-88.76705300000003,"lo2":-86.6583820000003,"nx":115,"ny":88,"refTime":"2022-09-21T18:00:00:Z","depth":0,"parameterNumber":1,"parameterNumberName":"U-component_of_WINDS"},"data":[5.3098,5.3098,5.3098,5.2741,5.2152,5.2027,5.1956,5.1903,5.1796,5.1742,5.1742,5.1742,5.1742,5.1742,5.1742,5.1742,5.1742,5.1742,5.1242,5.085,5.1439,5.1171,5.0993,5.1385,5.1492,5.1242,5.1028,5.1421,5.1689,5.1385,5.1278,5.1349,5.0671,5.0315,5.0315,5.0315,5.0279,5.0172,4.9922,4.9494,4.8709,4.8044,4.7223,4.7424,4.7924,4.9173,5.0043,4.9957,5.0765,5.0956,5.0274,4.8104,4.6306,4.4796,4.3792,4.256,4.0851,4.0774,4.0643,4.0435,4.0565,4.0929,4.1033,4.1033,4.1484,4.2197,4.3457,4.4351,4.5298,4.6593,4.7483,4.7747,4.7077,4.5757,4.489,4.4036,4.3027,4.2131,4.1644,4.0504,3.932,3.8135,3.6126,3.4292,3.2777,3.0324,2.908,2.7758,2.739,2.7611,2.7967,2.8047,2.8197,2.8715,2.9298,2.8787,2.8174,2.815,2.8118,2.7848,2.7777,2.7966,2.7966,2.7777,2.784,2.7934,2.7903,2.7761,2.8006,2.8117,2.806,2.806,2.8101,2.8022,2.7896,5.3919,5.3883,5.3883,5.3812,5.3633,5.3027,5.2741,5.2634,5.2027,5.1778,5.1885,5.1849,5.1742,5.1742,5.1742,5.1742,5.1742,5.1742,5.1671,5.1492,5.1546,5.1171,5.1064,5.1207,5.0814,5.0457,5.0172,5.0743,5.1332,5.0636,5.0208,5.0422,5.0029,4.9494,4.9494,4.9494,4.953,4.9387,4.9101,4.8637,4.8067,4.7496,4.7174,4.7567,4.8388,4.9565,5.0671,5.1654,5.3177,5.3128,5.2497,5.0338,4.8426,4.6461,4.5202,4.3404,4.1698,4.098,4.0669,4.0435,4.0591,4.0825,4.0955,4.1172,4.1478,4.25,4.4084,4.5153,4.5971,4.6977,4.7954,4.8301,4.7326,4.6176,4.5624,4.4999,4.3964,4.2865,4.2735,4.2701,4.2161,4.208,4.0074,3.7807,3.5355,3.2308,3.0332,2.8941,2.8046,2.8421,2.8855,2.9056,2.9257,2.9663,3.0188,2.9646,2.879,2.8839,2.8846,2.8324,2.8013,2.8243,2.829,2.8123,2.8092,2.8123,2.8123,2.8275,2.8353,2.848,2.8496,2.8511,2.8448,2.8353,2.8227,5.5346,5.5275,5.4918,5.4454,5.4026,5.3669,5.3526,5.3383,5.2651,5.2598,5.2955,5.2598,5.2384,5.2384,5.1885,5.1742,5.1742,5.1742,5.1564,5.1385,5.1278,5.11,5.1171,5.1278,5.0671,5.035,5.0101,4.9922,5.0136,4.9601,4.9351,4.9672,4.9173,4.8745,4.8695,4.8745,4.8745,4.8709,4.8459,4.8031,4.7508,4.7366,4.7258,4.7638,4.8423,4.928,5.0422,5.1599,5.2848,5.3224,5.358,5.1809,4.9894,4.8268,4.6512,4.4248,4.2623,4.1348,4.0597,4.0202,4.0124,4.0565,4.0825,4.1078,4.1437,4.2431,4.3981,4.4992,4.5821,4.6928,4.799,4.8307,4.7387,4.6807,4.6341,4.5569,4.4504,4.3886,4.4012,4.4115,4.4237,4.4207,4.3781,4.1502,3.9058,3.6056,3.3322,3.1945,3.0002,2.9348,2.9902,3.0245,3.0533,3.0906,3.1084,3.0556,2.9681,2.9633,2.9674,2.9136,2.8616,2.8574,2.8622,2.8685,2.8685,2.8574,2.859,2.8717,2.8811,2.8764,2.8795,2.8843,2.878,2.8685,2.8638,5.6323,5.6287,5.5717,5.5111,5.4597,5.4383,5.4311,5.424,5.3614,5.3776,5.4097,5.3526,5.3062,5.2777,5.2277,5.192,5.1813,5.1706,5.1349,5.1349,5.1457,5.1278,5.0814,5.1278,5.0993,5.0671,5.0457,5.0279,4.9387,4.8923,4.878,4.8959,4.8316,4.7924,4.7924,4.7924,4.7924,4.7924,4.7852,4.7674,4.7794,4.7759,4.7723,4.8281,4.8852,4.9672,5.0279,5.1349,5.2099,5.2777,5.3491,5.2782,5.1137,5.0441,4.7863,4.4599,4.3151,4.1783,4.0745,4.0046,4.0072,4.0435,4.06,4.0938,4.1589,4.2526,4.3525,4.4443,4.5463,4.6644,4.7587,4.7644,4.7559,4.7246,4.6933,4.5961,4.5023,4.5142,4.5367,4.5619,4.5857,4.6183,4.6566,4.5142,4.2857,4.0022,3.6935,3.4051,3.1912,3.0657,3.1201,3.1309,3.1669,3.1777,3.1948,3.1565,3.0815,3.0569,3.0256,2.9728,2.9197,2.9028,2.8933,2.9107,2.917,2.9043,2.8996,2.9123,2.9123,2.9091,2.9091,2.9059,2.9012,2.889,2.9028,5.6323,5.6323,5.6252,5.6109,5.6095,5.5417,5.5111,5.5075,5.4969,5.504,5.4933,5.4256,5.3598,5.3241,5.2884,5.2491,5.2242,5.2099,5.1992,5.1706,5.1832,5.1457,5.1135,5.1207,5.0957,5.0529,5.0243,5.0065,4.8637,4.7924,4.7937,4.8245,4.7567,4.733,4.7366,4.7281,4.7531,4.7723,4.7817,4.8031,4.853,4.8602,4.8495,4.9244,4.9815,5.035,5.0707,5.1314,5.2045,5.2598,5.3062,5.3312,5.2261,5.1491,4.923,4.6594,4.4335,4.2623,4.1187,4.0215,4.0278,4.0374,4.0262,4.0593,4.1303,4.2232,4.3339,4.4339,4.5103,4.6192,4.7154,4.7417,4.7538,4.7367,4.7167,4.6683,4.5966,4.587,4.6108,4.6327,4.672,4.7506,4.7815,4.7281,4.4831,4.1634,3.8489,3.5397,3.3487,3.2284,3.2319,3.2319,3.252,3.2594,3.2686,3.2389,3.172,3.1274,3.0868,3.038,2.9991,2.9618,2.9245,2.9245,2.9319,2.9245,2.917,2.9154,2.9154,2.917,2.917,2.917,2.9154,2.9123,2.9138,5.6323,5.6323,5.6323,5.6323,5.6287,5.6095,5.5895,5.5895,5.5953,5.5895,5.5846,5.5096,5.4541,5.4149,5.374,5.3383,5.3008,5.2955,5.2741,5.2563,5.2491,5.192,5.1528,5.1492,5.1064,5.0422,5.0065,4.9815,4.8459,4.7531,4.7116,4.7496,4.733,4.708,4.7116,4.7258,4.758,4.8151,4.8509,4.8816,4.903,4.9066,4.9423,4.9958,5.0243,5.0779,5.1242,5.1404,5.1796,5.2045,5.2206,5.2384,5.2168,5.1769,4.9994,4.7895,4.5689,4.3759,4.1914,4.0928,4.0818,4.1029,4.1091,4.1106,4.167,4.213,4.3143,4.4243,4.4945,4.5706,4.6551,4.7218,4.7338,4.7424,4.7338,4.7253,4.6997,4.6677,4.6826,4.6997,4.7552,4.8414,4.8628,4.8158,4.6697,4.4108,4.1246,3.8113,3.6175,3.4705,3.3985,3.3114,3.3114,3.3262,3.3114,3.2891,3.2464,3.2092,3.1629,3.1182,3.0752,3.0363,2.9842,2.9618,2.9394,2.9319,2.917,2.917,2.917,2.917,2.917,2.917,2.917,2.917,2.917,5.6323,5.6323,5.6323,5.6323,5.6323,5.6323,5.6323,5.6323,5.6323,5.6323,5.6381,5.581,5.5325,5.5147,5.4668,5.424,5.4061,5.3919,5.3633,5.3419,5.3205,5.2848,5.2527,5.2206,5.1742,5.11,5.0279,4.953,4.8566,4.7781,4.7437,4.7116,4.708,4.7294,4.7437,4.7651,4.8566,4.9208,4.9244,4.9672,4.9993,4.9886,5.0208,5.0636,5.0957,5.1171,5.1528,5.1706,5.1689,5.1778,5.1778,5.1742,5.1742,5.1636,5.1317,4.918,4.707,4.5347,4.3213,4.1463,4.0896,4.1638,4.1888,4.2124,4.2417,4.2705,4.2965,4.4023,4.4906,4.5842,4.6706,4.711,4.7253,4.7424,4.7623,4.7452,4.711,4.7053,4.7452,4.7623,4.7879,4.8745,4.9813,4.9446,4.8314,4.6917,4.4667,4.1613,3.9239,3.7023,3.5684,3.3781,3.3428,3.3503,3.3428,3.3336,3.3114,3.2891,3.252,3.2075,3.1406,3.0827,3.0454,2.9991,2.9469,2.9245,2.917,2.917,2.917,2.917,2.917,2.917,2.917,2.917,2.917,5.6323,5.6323,5.6323,5.6323,5.6323,5.6323,5.6323,5.6323,5.6323,5.6323,5.6323,5.6287,5.5895,5.5325,5.5182,5.4882,5.4418,5.4276,5.4133,5.4061,5.4026,5.3847,5.3562,5.3134,5.2777,5.2242,5.1242,4.9922,4.9387,4.8423,4.771,4.7401,4.7473,4.7866,4.8437,4.8852,4.9601,5.0065,5.0172,5.0422,5.0886,5.0779,5.0921,5.1207,5.1528,5.1635,5.1849,5.192,5.1885,5.1885,5.1849,5.1813,5.1742,5.1742,5.1742,5.0591,4.7788,4.6223,4.4562,4.2776,4.2401,4.3938,4.352,4.3459,4.3723,4.3666,4.3632,4.42,4.5198,4.6023,4.6797,4.7025,4.7281,4.7623,4.7908,4.7737,4.7395,4.7538,4.7965,4.8193,4.8421,4.9104,5.0176,5.0301,4.937,4.8026,4.6418,4.3851,4.2406,4.0119,3.6548,3.4743,3.4225,3.4095,3.3725,3.3651,3.3503,3.3206,3.2891,3.2817,3.1926,3.1199,3.0976,3.0512,2.9767,2.9245,2.9245,2.917,2.917,2.917,2.917,2.917,2.917,2.917,2.917,5.5575,5.5646,5.6167,5.6323,5.6323,5.6323,5.6323,5.6323,5.6323,5.6323,5.6323,5.6323,5.6145,5.6002,5.5931,5.5703,5.5632,5.556,5.5453,5.4846,5.4755,5.4561,5.4168,5.374,5.3743,5.3027,5.1778,5.0779,5.0831,4.9101,4.8459,4.8459,4.8602,4.8887,4.9545,4.9958,5.0529,5.0993,5.1028,5.1135,5.1421,5.1528,5.1457,5.1671,5.1902,5.2027,5.2349,5.2491,5.2527,5.267,5.2741,5.2813,5.2152,5.2063,5.2366,5.2185,5.0625,4.9988,4.8183,4.6235,4.618,4.782,4.6441,4.6241,4.6668,4.51,4.4593,4.4924,4.5795,4.645,4.6911,4.7424,4.7766,4.8278,4.8478,4.8449,4.8221,4.8193,4.8506,4.8535,4.8762,4.9436,5.0261,5.0063,5.0293,4.9221,4.8169,4.714,4.599,4.1699,3.7704,3.6475,3.5758,3.4521,3.3799,3.3799,3.3651,3.3428,3.3428,3.3503,3.2686,3.1943,3.1571,3.1125,3.0363,2.9692,2.9394,2.917,2.917,2.917,2.917,2.917,2.917,2.917,2.917,5.5218,5.5254,5.6038,5.6323,5.6323,5.6323,5.6323,5.6323,5.6323,5.6323,5.6323,5.6323,5.6323,5.6323,5.6287,5.6252,5.631,5.6323,5.6216,5.5667,5.5632,5.5239,5.4995,5.4892,5.4752,5.4087,5.2886,5.2024,5.2365,5.0259,4.9616,4.9458,4.9387,4.9993,5.0723,5.0993,5.1314,5.1956,5.1885,5.1991,5.2276,5.2114,5.2079,5.2437,5.2757,5.31,5.3532,5.3894,5.3821,5.373,5.3442,5.3423,5.2955,5.2294,5.2741,5.2883,5.3163,5.2868,5.1253,5.1047,5.0473,5.0966,5.0464,4.9051,4.9555,4.7175,4.6517,4.7011,4.7379,4.6962,4.7167,4.7623,4.8079,4.8592,4.8592,4.8592,4.8762,4.8762,4.8791,4.8791,4.8791,4.9389,4.9778,4.9813,5.0709,5.0212,5.0353,4.9624,4.7596,4.3223,3.9827,3.873,3.6769,3.5039,3.3799,3.3799,3.3725,3.3577,3.3725,3.3799,3.3503,3.2817,3.2372,3.1852,3.1034,3.014,2.9767,2.9469,2.9319,2.917,2.917,2.917,2.917,2.917,2.9186,5.5147,5.5289,5.606,5.6323,5.6216,5.6323,5.6323,5.6323,5.6323,5.6323,5.6323,5.6524,5.6524,5.6559,5.6715,5.6787,5.6751,5.6796,5.6666,5.6711,5.6755,5.6568,5.6347,5.6165,5.605,5.5651,5.451,5.3604,5.3821,5.1694,5.0843,5.0648,5.0875,5.1003,5.1759,5.1831,5.2188,5.2688,5.2259,5.2813,5.3298,5.3205,5.3296,5.3657,5.4072,5.4473,5.4838,5.5239,5.5239,5.5001,5.4692,5.4418,5.4053,5.3478,5.3459,5.3803,5.4341,5.3856,5.2556,5.4124,5.4757,5.4984,5.3077,5.2073,5.1916,5.0291,4.8716,4.9109,4.8709,4.7894,4.7794,4.7908,4.825,4.8506,4.8278,4.8278,4.862,4.8791,4.8791,4.8791,4.8791,4.8876,4.9275,4.9834,5.1058,5.1826,5.2281,5.1004,4.867,4.5558,4.2788,4.0848,3.8018,3.6421,3.5315,3.4595,3.3799,3.3799,3.3799,3.3799,3.3577,3.3336,3.2965,3.252,3.1777,3.081,3.0289,2.9692,2.9618,2.9543,2.9394,2.917,2.917,2.9186,2.9233,5.4383,5.4561,5.5846,5.6038,5.5646,5.6167,5.6323,5.6323,5.6381,5.6323,5.6359,5.6988,5.7202,5.738,5.7701,5.7927,5.8034,5.8271,5.8284,5.8186,5.8156,5.8268,5.7941,5.7772,5.7869,5.7108,5.6045,5.5588,5.5826,5.3631,5.3087,5.32,5.3474,5.378,5.4381,5.4126,5.387,5.4053,5.3907,5.427,5.4983,5.4854,5.4964,5.5129,5.5366,5.577,5.6304,5.658,5.658,5.645,5.6338,5.6173,5.5715,5.5404,5.5441,5.5458,5.5583,5.5801,5.5935,5.7099,5.8496,5.7838,5.5695,5.5206,5.4448,5.1976,5.1007,5.1271,4.9814,4.8307,4.7823,4.8193,4.8592,4.862,4.8392,4.8364,4.8677,4.8791,4.8791,4.8791,4.8876,4.8962,4.9351,5.0034,5.1058,5.174,5.2195,5.153,4.9624,4.7739,4.5342,4.2739,3.9388,3.7945,3.6843,3.5167,3.3799,3.3799,3.3799,3.3799,3.3799,3.3725,3.3484,3.2965,3.2297,3.148,3.0885,3.0363,3.014,2.9916,2.9543,2.917,2.9186,2.9249,2.9222,5.3598,5.374,5.5275,5.561,5.5254,5.6289,5.6727,5.6785,5.6958,5.716,5.7673,5.8102,5.8379,5.8427,5.8773,5.8832,5.9097,5.9517,5.9361,5.9336,5.9595,5.9658,6.012,6.0136,6.0341,5.9577,5.94,5.9114,5.8196,5.5936,5.5546,5.6426,5.7116,5.7045,5.5988,5.5164,5.5255,5.5329,5.5346,5.562,5.623,5.6377,5.6265,5.658,5.6672,5.7229,5.7693,5.7973,5.7954,5.7879,5.7859,5.7412,5.6875,5.6581,5.6544,5.6654,5.7113,5.7278,5.7633,5.8815,6.008,5.9608,5.8774,5.7893,5.8407,5.5906,5.4388,5.3242,5.2446,5.062,4.9424,4.9094,4.8791,4.8791,4.8734,4.8705,4.8791,4.8791,4.8791,4.8791,4.8876,4.9076,4.9607,5.0165,5.0972,5.1683,5.211,5.2239,5.1004,4.941,4.7596,4.5198,4.0775,3.851,3.7651,3.5831,3.3873,3.3799,3.3799,3.3799,3.3799,3.3799,3.3725,3.3354,3.2761,3.2223,3.1629,3.1125,3.0512,3.014,2.9692,2.9335,2.9249,2.9313,2.9474,5.292,5.3098,5.4632,5.5275,5.5424,5.6748,5.7397,5.76,5.8023,5.8637,5.935,5.9654,5.9684,5.9782,5.9625,5.989,6.0431,6.0202,6.1104,6.1366,6.1143,6.2234,6.2928,6.3981,6.4541,6.3126,6.352,6.286,6.1089,5.9781,6.0231,6.1296,6.1145,5.9089,5.8159,5.8198,5.8056,5.75,5.6671,5.6912,5.7451,5.7562,5.7375,5.8028,5.8495,5.8927,5.9173,5.9456,5.9438,5.9003,5.8704,5.8198,5.8103,5.7769,5.7786,5.801,5.8475,5.8642,5.8811,5.9568,6.008,6.0251,6.0251,6.0341,6.0785,6.0047,5.9862,5.9159,5.4489,5.259,5.1519,5.0567,4.9025,4.8791,4.8791,4.8791,4.8791,4.8791,4.8791,4.8791,4.8962,4.9209,4.9721,5.0449,5.1257,5.1996,5.2451,5.248,5.153,5.1004,4.9339,4.7381,4.2739,4.0265,3.9315,3.7504,3.6052,3.5536,3.4447,3.3947,3.3873,3.3799,3.3799,3.3503,3.328,3.2891,3.252,3.1926,3.1331,3.0587,3.0023,2.9864,2.9704,2.9514,2.9648,5.3205,5.3812,5.4755,5.5465,5.5897,5.6883,5.7976,5.8872,5.9142,5.9642,6.0188,6.046,6.0781,6.1198,6.1845,6.303,6.4926,6.5607,6.653,6.7642,6.826,6.7993,6.7847,6.8064,6.8486,6.7978,6.8153,6.7638,6.6538,6.5822,6.5218,6.543,6.4984,6.4336,6.3888,6.2979,6.1791,6.0828,5.9112,5.8624,5.9173,5.9135,5.9267,5.9437,5.9607,5.9739,5.9853,6.0062,6.0062,5.9797,5.9494,5.9381,5.9381,5.9042,5.9135,5.9267,5.9455,5.9568,5.9738,5.989,6.0042,6.01,6.0365,6.0935,6.1591,6.065,6.003,6.1064,5.6119,5.3524,5.2133,5.0372,4.9157,4.8791,4.8791,4.8791,4.8791,4.8791,4.8791,4.8819,4.9019,4.9322,5.0005,5.0802,5.1513,5.2252,5.248,5.248,5.231,5.2097,5.1245,5.072,4.6878,4.4621,4.3174,4.1067,3.8657,3.7137,3.5112,3.417,3.3873,3.3799,3.3799,3.3799,3.3725,3.3354,3.2891,3.2594,3.2223,3.148,3.0844,3.0495,3.0042,2.9733,2.9758,5.3743,5.4429,5.5163,5.5881,5.6553,5.7992,5.9052,5.9845,6.0509,6.1261,6.1836,6.1709,6.2034,6.2922,6.4166,6.6227,6.8485,6.9183,7.0059,7.0699,7.1212,7.1425,7.1603,7.2182,7.1809,7.1409,7.1663,7.1799,7.2301,7.1902,7.0587,6.8846,6.8317,6.8092,6.611,6.6258,6.539,6.3957,6.2112,6.0651,6.0193,6.008,6.008,6.008,6.0024,6.0024,6.0062,6.0118,6.0118,6.0118,6.0118,6.0118,6.0118,6.0118,6.0118,6.0118,6.0118,6.0118,6.0118,6.008,6.0118,6.0118,6.0176,6.0669,6.1574,6.1634,6.1882,6.2405,5.7581,5.4938,5.4103,5.0994,4.955,4.8791,4.8791,4.8791,4.8791,4.8791,4.8791,4.8905,4.9076,4.9635,5.025,5.1001,5.1753,5.2393,5.2621,5.2593,5.2593,5.2593,5.2593,5.2551,5.0364,4.8267,4.6134,4.3608,4.0775,3.8437,3.6421,3.4466,3.4095,3.3799,3.3799,3.3799,3.3799,3.3651,3.3262,3.2965,3.2594,3.2149,3.1703,3.1103,3.0549,3.0256,3.0412,5.4703,5.5272,5.5961,5.6682,5.7633,5.935,6.0311,6.086,6.2083,6.3218,6.446,6.3896,6.4299,6.5486,6.7038,6.9284,7.1303,7.2245,7.2655,7.3531,7.3851,7.404,7.3953,7.5772,7.5232,7.454,7.5135,7.6157,7.586,7.6108,7.4495,7.1572,7.0639,7.0005,6.8789,6.8668,6.7446,6.6538,6.4888,6.2606,6.0533,6.0118,6.0118,6.0118,6.0118,6.0118,6.0118,6.0118,6.0118,6.0118,6.0118,6.0118,6.0118,6.0118,6.0118,6.0118,6.0118,6.0118,6.0118,6.0118,6.0118,6.0118,6.0251,6.0669,6.1674,6.259,6.3563,6.46,6.0323,5.7488,5.6471,5.2457,5.0045,4.9456,4.9222,4.8791,4.8791,4.8791,4.8791,4.8905,4.9836,5.0304,5.0818,5.1379,5.2007,5.2378,5.2734,5.2734,5.2805,5.2876,5.2876,5.2381,5.072,4.9865,4.8026,4.4982,4.2208,3.9878,3.7357,3.4891,3.4299,3.3799,3.3799,3.3799,3.3799,3.3725,3.3503,3.3262,3.2965,3.2665,3.2415,3.1839,3.1227,3.1116,3.1166,5.6778,5.7458,5.7604,5.8446,5.9519,6.0103,6.1315,6.286,6.35,6.51,6.7545,6.7705,6.8684,7.0356,7.1362,7.2714,7.5081,7.5254,7.623,7.7461,7.7971,7.8356,7.8526,7.9033,7.8752,7.7642,7.8505,7.8385,7.7461,7.7134,7.556,7.3681,7.3086,7.278,7.2266,7.1691,6.9642,6.8092,6.62,6.3937,6.1098,6.0118,6.0118,6.0118,6.0118,6.0118,6.0118,6.0118,6.0118,6.0118,6.0118,6.0118,6.0118,6.0118,6.0118,6.0118,6.0118,6.0118,6.0062,6.01,6.0156,6.0213,6.0669,6.1352,6.2284,6.2985,6.3987,6.418,6.1733,5.9822,5.897,5.5066,5.2522,5.158,5.0241,4.8828,4.9091,4.8894,4.8894,4.9578,5.0564,5.1258,5.1771,5.238,5.3216,5.3694,5.3653,5.3653,5.3441,5.3342,5.2989,5.2381,5.1813,5.1147,4.9482,4.6422,4.3005,4.0753,3.8364,3.5334,3.4373,3.3799,3.3799,3.3799,3.3799,3.3799,3.3799,3.3651,3.3483,3.3293,3.3098,3.2818,3.2632,3.2529,3.2287,5.7929,5.8563,5.8563,5.9448,6.0622,6.119,6.2272,6.3827,6.5512,6.7166,6.8705,7.01,7.1404,7.248,7.3589,7.5714,7.7529,7.8085,7.8808,7.9697,8.0079,8.0079,7.9921,7.9977,8.0079,8.0079,8.0042,7.9136,7.7882,7.7695,7.6566,7.5077,7.461,7.4329,7.4007,7.3913,7.237,7.085,6.9163,6.7338,6.5423,6.2685,6.121,6.0477,6.0118,6.0118,6.0118,6.0118,6.0118,6.0118,6.0118,6.0118,6.0118,6.0156,6.0251,6.0517,6.0289,6.0176,6.0555,6.0213,6.0327,6.0593,6.0973,6.1504,6.2074,6.3061,6.3858,6.3705,6.2174,6.0886,6.0886,5.7073,5.5066,5.4168,5.2328,5.0994,5.0437,4.9456,4.9518,4.9959,5.1045,5.1995,5.2649,5.3513,5.4402,5.4609,5.4609,5.4398,5.4146,5.3835,5.3412,5.2918,5.2451,5.1955,5.1076,4.6996,4.3005,4.1408,3.9242,3.5831,3.4225,3.3947,3.3799,3.3799,3.3799,3.3799,3.3799,3.3799,3.3946,3.3999,3.3861,3.377,3.3832,3.3754,3.3369,5.8809,5.9435,5.9435,6.0323,6.1732,6.2945,6.4008,6.5057,6.8145,6.9563,7.0397,7.2229,7.3399,7.4445,7.616,7.7915,7.936,7.9641,7.9865,8.0079,8.0079,8.0079,8.0079,8.0079,8.0079,8.0079,8.0032,7.9574,7.863,7.8443,7.7368,7.6059,7.5498,7.503,7.4329,7.3909,7.3402,7.1796,7.1006,6.9703,6.8103,6.5808,6.3538,6.1228,6.1098,6.0703,6.0364,6.0118,6.0194,6.0213,6.01,6.0251,6.0574,6.0441,6.0745,6.1163,6.0973,6.103,6.1314,6.0897,6.0935,6.1277,6.177,6.1846,6.215,6.3099,6.401,6.3729,6.2741,6.1696,6.1447,5.9193,5.7741,5.6789,5.513,5.3168,5.2294,5.1369,5.0681,5.0826,5.1788,5.2766,5.369,5.4641,5.5301,5.5591,5.5591,5.5481,5.496,5.4398,5.3906,5.3412,5.3017,5.2734,5.248,4.7713,4.3802,4.2353,3.9586,3.62,3.4318,3.3947,3.3799,3.3799,3.3799,3.3799,3.3799,3.3799,3.3946,3.4202,3.4402,3.4524,3.4515,3.4416,3.4207,6.0213,6.0913,6.0913,6.1843,6.3609,6.5665,6.7088,6.8305,7.083,7.2889,7.4908,7.5369,7.6675,7.8469,7.9145,7.9529,8.0032,8.0079,8.0079,8.0079,8.0079,8.0079,8.0079,8.0079,8.0079,8.0079,8.0079,7.9659,7.8911,7.8443,7.8163,7.6994,7.6059,7.5732,7.5118,7.4371,7.352,7.2251,7.2007,7.1142,6.8578,6.7998,6.6141,6.3943,6.3186,6.2294,6.0816,6.0516,6.0422,6.1011,6.0441,6.0916,6.1504,6.1618,6.1466,6.2322,6.2346,6.2367,6.2481,6.2326,6.225,6.236,6.293,6.3251,6.3441,6.4048,6.4542,6.4425,6.4279,6.3937,6.4061,6.1759,6.0448,5.9724,5.7804,5.5258,5.352,5.3567,5.3018,5.2743,5.3323,5.4021,5.4846,5.5547,5.6108,5.6601,5.6601,5.6391,5.5661,5.5031,5.4328,5.3835,5.3229,5.2876,5.231,4.867,4.5198,4.2933,3.9805,3.6769,3.4318,3.4021,3.3799,3.3799,3.3799,3.3799,3.3799,3.3817,3.4001,3.4331,3.4642,3.495,3.512,3.5144,3.4989,6.0897,6.1257,6.177,6.3431,6.5703,6.6966,6.8749,7.0984,7.3399,7.5139,7.6332,7.7801,7.8921,8.0032,8.0079,8.0079,8.0079,8.0079,8.0079,8.0079,8.0079,8.0079,8.0079,8.0079,8.0079,8.0079,8.0079,8.0275,7.9986,7.9705,7.9433,7.9331,7.8443,7.7602,7.7041,7.6667,7.5327,7.4143,7.4364,7.3934,7.2054,7.1123,6.9215,6.8204,6.6165,6.4214,6.2317,6.2294,6.2081,6.1739,6.2259,6.3727,6.5264,6.3747,6.3166,6.3821,6.3958,6.3803,6.3976,6.3898,6.3703,6.3792,6.4056,6.4067,6.4055,6.4443,6.4822,6.4898,6.4898,6.4898,6.4836,6.3407,6.316,6.254,6.0574,5.8023,5.635,5.6749,5.7071,5.6219,5.5196,5.5245,5.578,5.6286,5.678,5.6811,5.6811,5.6811,5.6081,5.5591,5.489,5.4258,5.3553,5.2947,5.2352,5.0194,4.6709,4.315,3.9462,3.5905,3.4392,3.417,3.3873,3.3799,3.3799,3.3799,3.3799,3.3854,3.3964,3.4422,3.4899,3.5398,3.559,3.5628,3.5572,6.1756,6.2624,6.3375,6.5547,6.8305,6.9091,7.091,7.3473,7.5988,7.7074,7.7472,7.9145,7.9977,8.0079,8.0079,8.0079,8.0079,8.0079,8.0079,8.0079,8.0079,8.0079,8.0079,8.0079,8.0173,8.0509,8.0463,8.0977,8.1585,8.1305,8.1211,8.1632,8.065,7.9901,7.8864,7.8303,7.7976,7.7181,7.7235,7.708,7.6123,7.4685,7.3818,7.3087,7.0476,6.7663,6.5699,6.5377,6.475,6.3903,6.4636,6.6104,6.7364,6.5279,6.4332,6.5191,6.5289,6.527,6.5661,6.5406,6.5093,6.5198,6.5293,6.4975,6.4531,6.5143,6.5312,6.5327,6.5204,6.5204,6.5143,6.5021,6.4827,6.4584,6.3218,6.1404,6.0141,6.0243,6.0079,5.8941,5.7057,5.568,5.6757,5.6919,5.6919,5.695,5.695,5.695,5.657,5.6151,5.5591,5.5031,5.4328,5.3794,5.2989,5.1332,4.7355,4.344,3.8217,3.4021,3.4447,3.4447,3.4021,3.3799,3.3799,3.3799,3.3799,3.3872,3.4166,3.4624,3.5101,3.56,3.5949,3.6193,3.6139,6.3418,6.6844,6.6884,6.8921,7.2033,7.4271,7.5078,7.623,7.8367,7.9473,7.9529,7.9865,8.0079,8.0079,8.0079,8.0079,8.0079,8.0079,8.0079,8.0079,8.0079,8.0341,8.0443,8.0546,8.0912,8.1455,8.1492,8.2157,8.2719,8.2906,8.2953,8.3011,8.2157,8.1024,8.0285,7.9246,7.8069,7.7663,7.8465,7.8627,7.8109,7.8304,7.7961,7.7081,7.4808,7.2232,7.014,6.8643,6.8448,6.8796,6.7182,6.7454,6.8229,6.6011,6.5252,6.6329,6.6664,6.6664,6.6739,6.6703,6.66,6.654,6.6557,6.6575,6.6354,6.6271,6.6426,6.6426,6.6122,6.5877,6.5755,6.5304,6.55,6.5884,6.6036,6.5433,6.4663,6.3607,6.2153,6.0282,5.8217,5.7043,5.695,5.695,5.695,5.695,5.695,5.695,5.6811,5.6431,5.6011,5.5591,5.5031,5.4568,5.3553,5.2281,4.8,4.4163,3.8876,3.5703,3.6126,3.5112,3.4373,3.3799,3.3799,3.3799,3.3854,3.4147,3.4477,3.4881,3.5306,3.5844,3.623,3.6341,3.6377,6.4544,6.7438,6.8061,7.0675,7.4575,7.5772,7.7074,7.8526,7.9641,8.0079,8.0079,8.0079,8.0079,8.0079,8.0079,8.0079,8.0079,8.0079,8.0079,8.0079,8.0135,8.0855,8.1727,8.2037,8.2332,8.2897,8.2991,8.3372,8.3901,8.3758,8.4345,8.4968,8.4403,8.3367,8.2228,8.1578,8.0622,7.9546,7.9766,8.0237,8.009,8.0314,8.0046,7.9348,7.7484,7.5878,7.4294,7.2363,7.1532,7.1495,6.9992,6.8858,6.9093,6.6872,6.6273,6.7804,6.8003,6.8003,6.8003,6.8003,6.7822,6.7519,6.7398,6.7216,6.6974,6.6852,6.6852,6.6913,6.667,6.6487,6.6443,6.634,6.6497,6.6996,6.7691,6.8416,6.9099,6.6987,6.5087,6.3313,6.1115,5.8971,5.709,5.702,5.695,5.695,5.695,5.695,5.695,5.671,5.6361,5.5871,5.5381,5.5311,5.4679,5.2366,4.8545,4.6397,4.2208,3.8897,3.8091,3.6347,3.526,3.4151,3.3947,3.3854,3.4056,3.4312,3.4716,3.5177,3.5531,3.588,3.6193,3.6377,3.6377,6.6712,6.9742,7.0463,7.3224,7.6903,7.7245,7.8367,7.9921,8.0079,8.0079,8.0079,8.0079,8.0079,8.0079,8.0079,8.0079,8.0079,8.0079,8.0079,8.0088,8.0312,8.165,8.3073,8.3672,8.4056,8.4521,8.471,8.4894,8.5427,8.5272,8.5932,8.7247,8.6454,8.5506,8.4416,8.3739,8.2795,8.1374,8.1161,8.1547,8.1782,8.1425,8.1149,8.1005,7.9755,7.8693,7.7812,7.6101,7.5007,7.4127,7.1482,6.9695,6.9353,6.7744,6.7258,6.8445,6.8726,6.8786,6.8786,6.8726,6.8546,6.8124,6.8124,6.7882,6.7398,6.7398,6.7398,6.7338,6.7156,6.7173,6.7426,6.7504,6.7706,6.8075,6.9366,7.0639,7.1173,6.9699,6.7365,6.5512,6.2816,5.9974,5.7824,5.695,5.695,5.695,5.695,5.695,5.695,5.6811,5.671,5.6221,5.6011,5.6081,5.5281,5.2578,5.0353,4.8331,4.5678,4.2376,4.063,3.8531,3.6642,3.4799,3.4708,3.4149,3.4276,3.4681,3.5067,3.5508,3.5825,3.6028,3.6285,3.6377,3.6377,7.0584,7.5467,7.5772,7.7074,7.9529,7.9641,7.9753,8.0079,8.0079,8.0079,8.0079,8.0079,8.0079,8.0079,8.0144,8.0144,8.0135,8.0247,8.0303,8.062,8.1335,8.2461,8.3736,8.4711,8.5564,8.6252,8.6348,8.6804,8.7426,8.7461,8.7901,8.8009,8.7663,8.6852,8.5181,8.4847,8.3732,8.2143,8.2296,8.2516,8.2584,8.2929,8.3201,8.3152,8.2811,8.1783,8.0267,7.956,7.8243,7.5159,7.1247,6.9187,6.914,6.8335,6.7779,6.8666,6.8786,6.8786,6.8786,6.8786,6.8726,6.8666,6.8666,6.8726,6.8546,6.8425,6.8465,6.8645,6.8183,6.8157,6.869,6.867,6.8751,6.9509,7.0624,7.1667,7.2556,7.0967,6.8547,6.5908,6.302,6.0217,5.7894,5.709,5.702,5.695,5.695,5.695,5.695,5.695,5.688,5.6811,5.6671,5.657,5.6431,5.3947,5.2366,5.0495,4.8331,4.5893,4.4115,4.1453,3.9117,3.6895,3.5492,3.4802,3.4645,3.5104,3.5604,3.5862,3.6064,3.6267,3.6377,3.6377,3.6377,7.2823,7.6058,7.6173,7.7688,7.9977,8.0079,8.0079,8.0079,8.0079,8.0079,8.0079,8.0079,8.0079,8.0144,8.0479,8.0543,8.0599,8.0979,8.1524,8.2261,8.3082,8.3945,8.506,8.6414,8.7535,8.8055,8.8082,8.8087,8.8116,8.8412,8.8649,8.8505,8.8034,8.6976,8.5668,8.5143,8.408,8.2736,8.3204,8.3583,8.3378,8.345,8.3613,8.3515,8.2929,8.2197,8.1562,8.1362,7.9874,7.6592,7.3355,7.0365,6.8443,6.7434,6.7416,6.8484,6.8786,6.8786,6.8786,6.8746,6.8786,6.8786,6.8786,6.8786,6.8786,6.8786,6.9108,6.951,6.9408,6.9425,6.9803,7.0064,7.0534,7.0768,7.0927,7.0934,7.1099,7.0494,6.9175,6.7368,6.4776,6.2339,5.9811,5.8417,5.695,5.695,5.695,5.695,5.695,5.695,5.695,5.695,5.695,5.695,5.688,5.5731,5.4228,5.2578,5.078,4.8786,4.662,4.3896,4.1115,3.8822,3.6868,3.6197,3.5432,3.5837,3.5899,3.6083,3.6267,3.6359,3.6377,3.6377,3.6377,7.5139,7.7302,7.7415,7.848,7.9977,8.0079,8.0079,8.0079,8.0079,8.0079,8.0079,8.0079,8.0144,8.0367,8.0654,8.0987,8.1256,8.2356,8.3272,8.3953,8.473,8.5625,8.6757,8.7877,8.8745,8.927,8.9297,8.9062,8.8826,8.9121,8.9162,8.8823,8.8145,8.7079,8.5722,8.523,8.4298,8.3196,8.3687,8.3955,8.3656,8.3613,8.3613,8.3515,8.288,8.2348,8.2006,8.1318,7.9638,7.6681,7.4526,7.174,6.8678,6.7448,6.755,6.7959,6.8041,6.8082,6.8363,6.8444,6.8524,6.8746,6.8786,6.8786,6.8786,6.8786,6.9068,6.9611,6.9711,6.9872,7.0172,7.0842,7.1019,7.1118,7.0818,7.0756,7.0815,7.0654,6.9871,6.8329,6.6032,6.3573,6.1018,5.8562,5.6989,5.695,5.695,5.695,5.695,5.695,5.695,5.695,5.695,5.695,5.688,5.6291,5.5521,5.458,5.2677,5.0665,4.843,4.5907,4.3145,4.082,3.9037,3.7785,3.6885,3.6525,3.624,3.6267,3.6578,3.6597,3.6457,3.6377,3.6377,7.7642,7.9753,8.0032,7.9921,8.0088,8.0135,8.0079,8.0079,8.0079,8.0135,8.0144,8.0088,8.0423,8.0821,8.1042,8.1319,8.2117,8.3777,8.4808,8.5142,8.6082,8.7106,8.8284,8.8537,8.9114,8.9884,8.9943,8.9884,8.9826,8.968,8.9299,8.8577,8.8284,8.7008,8.5163,8.5101,8.4571,8.3797,8.37,8.3656,8.3613,8.3613,8.3613,8.3613,8.3418,8.288,8.1957,8.0045,7.8098,7.5861,7.4417,7.2025,6.9317,6.886,6.8501,6.6855,6.6409,6.6812,6.7556,6.7618,6.7921,6.8524,6.8746,6.8706,6.8746,6.8786,6.8867,6.9128,6.9108,6.9269,6.9992,7.0172,7.0233,7.0193,7.0697,7.1019,7.122,7.1381,7.0398,6.7911,6.5842,6.385,6.0751,5.8221,5.6904,5.6827,5.6888,5.695,5.695,5.695,5.695,5.695,5.695,5.695,5.695,5.695,5.688,5.6391,5.4146,5.1982,4.9559,4.6913,4.4058,4.2353,4.0482,3.985,3.8944,3.8107,3.7671,3.7491,3.6975,3.7152,3.7091,3.7091,3.6854,7.9538,8.0432,8.02,8.0312,8.059,8.02,8.0079,8.0079,8.0079,8.0312,8.0543,8.0599,8.0979,8.1532,8.187,8.2365,8.3063,8.3737,8.4828,8.6138,8.6529,8.765,8.9269,8.9513,8.9708,8.9953,8.9992,8.9992,8.9953,8.9269,8.8781,8.8293,8.6878,8.5804,8.5267,8.5121,8.4633,8.39,8.4291,8.4242,8.3662,8.3613,8.3613,8.3515,8.288,8.205,8.087,8.0139,7.8802,7.6874,7.5998,7.452,7.201,6.9912,6.7947,6.6514,6.6248,6.6409,6.6691,6.6732,6.7094,6.794,6.8061,6.8283,6.8746,6.8786,6.9168,6.9611,6.9772,6.9812,6.9992,6.959,6.9228,6.9269,6.953,6.9671,6.9671,6.9731,6.9244,6.807,6.5516,6.331,6.1796,5.8631,5.6828,5.6309,5.6672,5.6919,5.695,5.695,5.695,5.695,5.695,5.695,5.695,5.695,5.688,5.6163,5.4293,5.2248,4.9833,4.7215,4.4826,4.3528,4.2519,4.1846,4.1151,4.0228,3.9957,3.9977,3.9366,3.8497,3.826,3.8102,3.7488,8.0423,8.0876,8.0757,8.0868,8.12,8.0868,8.0748,8.0748,8.0748,8.0923,8.12,8.1208,8.1587,8.209,8.1865,8.2012,8.2436,8.288,8.39,8.5462,8.5999,8.7065,8.8732,8.883,8.8967,8.9318,8.9025,8.883,8.8781,8.8586,8.8049,8.717,8.6536,8.5657,8.4828,8.4925,8.4633,8.376,8.4248,8.4242,8.3662,8.3613,8.3369,8.2978,8.1611,8.0484,7.9749,7.9358,7.858,7.7214,7.6953,7.622,7.4774,7.1919,6.9192,6.6841,6.5777,6.5426,6.5725,6.5805,6.6168,6.7014,6.7134,6.7497,6.8162,6.8404,6.8766,6.949,6.9691,6.9671,6.955,6.9148,6.8786,6.8786,6.8826,6.8867,6.8786,6.8786,6.8907,6.8704,6.6624,6.3874,6.2772,5.9782,5.7193,5.6546,5.6672,5.6888,5.695,5.695,5.695,5.695,5.695,5.695,5.695,5.695,5.6741,5.5913,5.4628,5.2544,5.081,4.8332,4.6184,4.4786,4.4219,4.3609,4.2757,4.1901,4.1451,4.1393,4.0922,4.0213,3.9977,3.8972,3.8181,8.0479,8.0987,8.1587,8.1856,8.1856,8.1705,8.1705,8.1555,8.1507,8.1562,8.1521,8.1569,8.1946,8.2252,8.0992,8.0282,8.0529,8.1513,8.2539,8.3662,8.4633,8.5657,8.6577,8.6675,8.726,8.8244,8.7406,8.6919,8.6919,8.7756,8.7268,8.5511,8.7024,8.6585,8.434,8.4633,8.4535,8.3711,8.3662,8.3613,8.3613,8.3515,8.3032,8.2108,7.9999,7.8922,7.8676,7.7751,7.7264,7.7265,7.7212,7.7263,7.7014,7.4943,7.1796,6.806,6.5328,6.4241,6.4815,6.4879,6.5282,6.6047,6.6208,6.6611,6.7416,6.7658,6.8061,6.8726,6.8685,6.8645,6.8645,6.8605,6.8685,6.8685,6.8706,6.8786,6.8786,6.8786,6.9188,6.957,6.8884,6.684,6.349,6.121,5.8862,5.7184,5.6857,5.695,5.695,5.695,5.695,5.695,5.695,5.6919,5.6888,5.6734,5.6765,5.5968,5.4416,5.3045,5.1511,4.9777,4.7937,4.6321,4.5467,4.4717,4.4223,4.3656,4.3078,4.2645,4.2212,4.1851,4.1418,4.0053,3.9326,8.1422,8.1643,8.2193,8.2413,8.2262,8.1159,8.0709,8.0613,7.9795,7.9675,8.0102,8.0155,8.0421,8.0802,8.0473,8.0285,8.0334,8.0578,8.1362,8.249,8.3564,8.4535,8.5609,8.6341,8.687,8.7065,8.6772,8.6626,8.6724,8.7122,8.6926,8.6285,8.6097,8.556,8.473,8.4144,8.3852,8.3613,8.3613,8.3613,8.3521,8.3257,8.293,8.2438,8.047,7.9084,7.8727,7.7702,7.7365,7.7716,7.7766,7.7915,7.8164,7.6164,7.4393,7.2953,6.9119,6.5931,6.4049,6.3922,6.434,6.5161,6.5282,6.5685,6.653,6.7255,6.7738,6.79,6.7376,6.6995,6.7094,6.7577,6.794,6.802,6.8524,6.8786,6.8786,6.8786,6.8907,6.9108,6.9047,6.7656,6.471,6.1414,5.8282,5.624,5.6302,5.695,5.695,5.695,5.695,5.695,5.695,5.6734,5.6302,5.6209,5.59,5.5146,5.2965,5.1166,5.0289,4.7635,4.5453,4.5817,4.5349,4.4842,4.4564,4.4571,4.428,4.3999,4.3923,4.3709,4.2838,4.2363,4.1638,8.1679,8.1617,8.2329,8.2506,8.2184,8.0846,8.0252,8.0257,7.9524,7.9446,7.9717,7.8893,7.876,7.9017,7.8968,7.902,7.9017,7.9017,7.9605,8.0683,8.1265,8.2387,8.3808,8.4535,8.5316,8.5943,8.5657,8.5657,8.595,8.5609,8.5413,8.5413,8.5699,8.5316,8.4535,8.4291,8.3949,8.3613,8.3613,8.3585,8.3524,8.2857,8.2272,8.1627,8.0094,7.9052,7.8652,7.816,7.7964,7.8213,7.8263,7.8412,7.8659,7.7468,7.6368,7.5309,7.2284,6.8959,6.5245,6.4956,6.4816,6.4356,6.434,6.4742,6.5644,6.6208,6.653,6.653,6.6409,6.6289,6.6329,6.6732,6.7094,6.7175,6.7859,6.8323,6.8363,6.8645,6.8786,6.8786,6.8786,6.8144,6.6299,6.2753,5.8781,5.5749,5.5777,5.6456,5.6549,5.6796,5.6919,5.6919,5.6672,5.6271,5.5653,5.5468,5.5313,5.4408,5.2028,4.9855,4.9401,4.6962,4.4708,4.4943,4.4704,4.4633,4.4849,4.4943,4.4943,4.484,4.4816,4.4713,4.4029,4.3336,4.312,8.1383,8.1141,8.1968,8.2196,8.1704,8.0578,8.0087,8.0087,7.9989,7.9993,7.9648,7.7995,7.7214,7.7116,7.6579,7.6238,7.6238,7.5896,7.6286,7.7505,7.7895,7.9312,8.1615,8.2006,8.3027,8.4486,8.4101,8.4248,8.4925,8.4096,8.3711,8.4004,8.5664,8.5671,8.4265,8.4754,8.4651,8.3776,8.3526,8.3475,8.3438,8.2498,8.1451,8.0402,7.9406,7.8758,7.8709,7.8758,7.8758,7.8758,7.8758,7.8807,7.8856,7.8906,7.7965,7.6116,7.5055,7.2745,6.8468,6.7489,6.6175,6.4059,6.3822,6.4185,6.4871,6.4928,6.4831,6.5186,6.5735,6.6115,6.6162,6.6202,6.6225,6.6208,6.6973,6.7497,6.7577,6.8181,6.8645,6.8685,6.8705,6.8766,6.8063,6.4374,6.0124,5.6605,5.6193,5.5907,5.5938,5.6332,5.6803,5.6857,5.6515,5.5832,5.4875,5.469,5.4474,5.433,5.1908,5.0142,4.8929,4.6844,4.4361,4.4624,4.428,4.4186,4.4468,4.4802,4.4731,4.4516,4.4539,4.468,4.4554,4.37,4.3294,8.0554,8.0465,8.0708,8.0765,8.0578,7.9505,7.9066,7.8968,7.819,7.7897,7.7799,7.7409,7.7165,7.6726,7.2676,7.0874,7.024,6.6574,6.7111,7.1018,7.2138,7.5066,7.9264,8.1269,8.2246,8.2685,8.3369,8.3711,8.3852,8.3711,8.4004,8.4834,8.5765,8.6255,8.6144,8.5549,8.5157,8.4859,8.3167,8.2488,8.2912,8.1909,8.1206,8.0955,7.9901,7.9152,7.8708,7.8758,7.8906,7.9299,7.9348,7.9495,7.9888,7.9887,7.9691,7.9053,7.707,7.5309,7.3987,7.0505,6.7284,6.5121,6.4943,6.4804,6.4595,6.4395,6.4504,6.5107,6.5339,6.5336,6.5124,6.5475,6.5655,6.5339,6.6047,6.6571,6.6629,6.708,6.7561,6.7897,6.8254,6.8597,6.7864,6.4296,6.0951,5.9672,5.7133,5.5269,5.519,5.5715,5.6385,5.672,5.6839,5.6124,5.4365,5.3804,5.3495,5.3271,5.1683,5.0216,4.8594,4.7324,4.5758,4.4059,4.3672,4.3646,4.3669,4.3716,4.3763,4.381,4.381,4.3763,4.381,4.3579,4.3886,7.8822,7.8919,7.9407,7.9261,7.8871,7.8724,7.8432,7.7702,7.4285,7.3016,7.37,7.6091,7.7165,7.6872,7.409,7.2725,7.2627,6.9746,6.999,7.2676,7.3358,7.5505,7.8678,8.0206,8.1147,8.1638,8.2438,8.3032,8.3582,8.3582,8.4173,8.5159,8.5584,8.5856,8.6077,8.5134,8.4537,8.4437,8.0254,7.7988,7.782,7.5244,7.3673,7.3168,7.3117,7.2882,7.2569,7.2066,7.1898,7.2208,7.2208,7.3257,7.5455,7.5653,7.6618,7.8505,7.7164,7.6191,7.6191,7.2427,6.88,6.5675,6.4596,6.4047,6.3993,6.3764,6.3776,6.4018,6.4047,6.4104,6.4285,6.4682,6.5023,6.5058,6.5631,6.5987,6.6068,6.6426,6.6913,6.7341,6.7746,6.8251,6.8559,6.5166,6.2599,6.1169,5.8267,5.5829,5.5451,5.5695,5.6229,5.6845,5.7238,5.6518,5.4862,5.4517,5.4197,5.3003,5.2328,5.1074,4.8958,4.741,4.6012,4.4283,4.3558,4.3436,4.3364,4.3364,4.3364,4.3364,4.3364,4.3364,4.3364,4.3552,4.374,7.6726,7.6774,7.7651,7.7116,7.5652,7.653,7.5994,7.4139,7.0189,6.8872,6.9993,7.4676,7.6677,7.6628,7.5945,7.5554,7.5505,7.4822,7.5066,7.5897,7.5995,7.6974,7.8687,7.9292,8.0037,8.0977,8.1536,8.2391,8.3239,8.3339,8.3836,8.4683,8.5088,8.5191,8.5092,8.4299,8.33,8.2102,7.6561,7.3417,7.2808,6.9302,6.6508,6.4678,6.5847,6.5898,6.4882,6.412,6.3447,6.3103,6.3103,6.478,6.8489,6.8794,7.0674,7.4642,7.4633,7.4657,7.5013,7.2531,6.9606,6.6449,6.4255,6.275,6.2412,6.2748,6.2969,6.2719,6.2874,6.3154,6.3752,6.3865,6.4278,6.4942,6.5324,6.5521,6.5644,6.5972,6.6345,6.6794,6.7237,6.7741,6.8089,6.599,6.3369,6.1225,5.8261,5.6321,5.5643,5.5999,5.6618,5.7155,5.7678,5.7165,5.5839,5.6218,5.5673,5.3747,5.3672,5.282,5.0639,4.8632,4.6756,4.5145,4.3947,4.3323,4.3058,4.3129,4.3035,4.3011,4.3011,4.3082,4.3176,4.3105,4.3105,7.4481,7.4481,7.4676,7.2138,6.7891,6.8087,6.5549,6.1839,6.9453,0.0,0.0,7.4041,7.4481,7.4139,6.9844,6.7891,6.7643,6.3665,6.4707,6.9734,7.0283,7.3396,7.866,7.9703,8.025,8.0498,8.1394,8.1941,8.214,8.2192,8.2291,8.254,8.3859,8.4519,8.4571,8.4839,8.1907,7.5732,7.4293,7.4891,7.7232,7.7537,7.4891,6.915,7.0166,6.8092,6.2672,6.3154,6.2735,6.0956,6.0817,6.121,6.1972,6.2023,6.3154,6.5695,6.5818,6.6995,6.9691,6.7774,6.7345,6.9433,6.6819,6.2873,5.7619,6.002,6.2088,6.2841,6.3602,6.3816,6.3461,6.345,6.3668,6.4142,6.4282,6.4586,6.5286,6.5423,6.5611,6.5929,6.6539,6.7227,6.8115,6.5304,6.2468,6.1294,5.8247,5.4938,5.413,5.6321,5.8236,5.8418,5.8647,5.83,5.6983,5.6616,5.6194,5.6057,5.5356,5.4573,5.343,5.0997,4.8434,4.6626,4.4411,4.294,4.2236,4.2165,4.2095,4.2024,4.2024,4.2141,4.2565,4.24,4.2142,7.2577,7.3065,7.3065,7.1894,0.0,6.9941,6.4133,5.5091,6.0903,6.5616,6.9648,7.3471,7.514,7.4987,7.2321,7.1581,7.2245,6.9598,7.0565,7.4427,7.3875,7.5257,7.8359,7.8796,7.9004,7.9054,8.0404,8.1357,8.191,8.191,8.0754,7.8543,7.9338,7.8305,7.5514,7.635,7.4479,6.9454,7.108,7.2452,7.3417,7.2401,6.9708,6.539,6.6213,0.0,0.0,0.0,0.0,0.0,0.0,0.0,0.0,0.0,0.0,6.0775,5.7485,5.6329,5.8402,5.7703,5.8239,6.1072,5.9344,5.6401,5.2733,5.5085,5.717,5.8075,5.8888,5.9935,6.1506,6.2139,6.266,6.3367,6.3606,6.4073,6.4797,6.4747,6.4956,6.5823,6.6402,6.7037,6.7889,6.584,6.4023,6.2237,5.9701,5.7652,5.6442,5.7686,5.889,5.8953,5.9458,5.9486,5.8286,5.8134,5.8414,5.7301,5.7349,5.665,5.4527,5.2619,5.0284,4.7036,4.5084,4.3372,4.2163,4.1743,4.1743,4.1743,4.1743,4.1789,4.1742,4.1601,4.1484,7.0622,7.1357,7.1406,7.1308,7.1306,7.2514,6.6418,5.5524,5.6491,6.0538,6.7024,7.3185,7.5916,7.5841,7.5753,7.6469,7.7725,7.7631,7.8349,7.9574,7.8866,7.83,7.7943,7.8061,7.8,7.7852,7.9266,8.0429,8.1342,8.1596,7.9819,7.6263,7.6785,7.4009,6.8288,0.0,0.0,0.0,6.8922,7.0462,7.0242,6.7565,6.4526,6.1413,6.224,0.0,5.943,5.7839,5.677,5.6431,5.6363,0.0,0.0,0.0,0.0,0.0,0.0,0.0,0.0,0.0,0.0,0.0,4.8914,4.7788,4.8057,4.9688,5.0961,5.1531,5.3156,5.5243,5.7773,5.8652,5.9784,6.1397,6.197,6.2842,6.4174,6.4084,6.4423,6.5827,6.6141,6.6612,6.7404,6.6859,6.5291,6.2765,6.1502,6.0583,5.9619,5.9243,5.9159,5.936,6.0241,6.0457,5.9312,5.9897,5.9666,5.8134,5.8676,5.7861,5.5033,5.3584,5.1164,4.7781,4.5788,4.4399,4.2713,4.1984,4.1751,4.1872,4.162,4.1249,4.0825,4.0802,4.099,6.7945,6.8042,6.8091,6.5457,6.1773,6.7896,7.0232,6.9854,7.0307,7.1127,7.2133,7.3445,7.4009,7.4009,7.4006,7.41,7.4399,7.5783,7.6181,7.6128,7.9012,7.9451,7.7832,7.8941,7.8851,7.7789,7.844,7.8806,7.9006,8.0073,8.0177,7.9766,8.2319,8.0069,7.2868,6.8063,6.6362,6.7549,7.022,7.3334,7.6492,7.5729,7.1893,6.5136,6.5695,6.2951,5.6278,5.6567,5.6245,5.4717,5.4154,5.4376,5.5248,5.1391,4.7999,0.0,4.189,0.0,0.0,0.0,0.0,0.0,0.0,0.0,0.0,4.5003,4.4985,4.4521,4.9808,5.2519,5.0717,5.0577,5.2268,5.6351,5.7614,5.9475,6.2739,6.3365,6.3848,6.4769,6.4966,6.5635,6.7139,6.6452,6.4797,6.2731,6.1118,6.0228,6.1454,6.0418,5.9661,6.0672,6.093,6.0646,5.9962,5.9907,5.9658,5.8628,5.7905,5.6849,5.6309,5.349,5.0667,4.9339,4.7161,4.5178,4.4362,4.276,4.1897,4.2134,4.1014,3.9991,3.9901,4.0093,4.0355,6.6251,6.6622,6.679,6.5498,6.3381,6.6699,6.8982,7.0347,7.0489,7.1488,7.2975,7.3185,7.3877,7.4921,7.4901,7.5371,7.6324,7.608,7.6362,7.7033,7.6922,7.6804,7.6715,7.6922,7.7468,7.8272,7.817,7.8454,7.9168,7.9687,7.8696,7.6339,7.7606,7.4636,6.7884,6.8225,6.9876,7.2591,7.3784,7.564,7.811,7.8178,7.5351,6.9567,6.9219,6.7337,6.348,6.2984,6.2635,6.2012,6.0943,5.9691,5.8037,4.9811,4.4447,0.0,0.0,0.0,0.0,0.0,0.0,0.0,0.0,0.0,0.0,0.0,4.0678,4.0134,4.6579,4.9731,4.7043,4.7831,4.8842,4.9954,5.0154,5.1917,5.6305,5.8001,5.8712,5.8342,6.0107,6.1928,6.3193,6.2371,6.2127,6.3845,5.8997,5.5338,5.5595,5.6707,5.7451,5.7785,5.9307,6.0209,5.9924,5.9496,5.9104,5.8723,5.8169,5.7469,5.6741,5.4572,5.2138,4.9995,4.8022,4.6257,4.4799,4.3717,4.2901,4.2167,4.1008,4.0417,4.0532,4.0231,3.9815,6.4848,6.5151,6.3634,6.361,6.4505,6.4859,6.6633,6.9239,6.9404,7.0684,7.2645,7.1913,7.2049,7.2842,7.1258,7.2332,7.5257,7.4264,7.5185,7.7665,7.5875,7.5083,7.5259,7.488,7.5361,7.6553,7.6699,7.7376,7.8434,7.7739,7.5534,7.2234,7.1593,6.8835,6.4163,6.8435,7.2826,7.6873,7.7436,7.8298,7.9281,7.9012,7.6702,7.204,7.1399,7.0665,6.9414,6.8087,6.7548,6.7854,6.5136,6.2395,5.976,4.8112,0.0,0.0,0.0,0.0,0.0,0.0,0.0,0.0,0.0,3.254,2.4894,0.0,3.7079,0.0,4.3199,4.6264,4.475,4.4787,0.0,0.0,4.304,4.4094,4.865,5.1452,5.2777,5.2141,5.5028,5.7406,5.8298,5.7683,5.8868,6.3028,5.6837,5.1371,5.0468,5.2637,5.422,5.4077,5.5739,5.7321,5.7072,5.7107,5.7095,5.75,5.7749,5.7381,5.6033,5.5014,5.3512,5.0494,4.8892,4.7562,4.5966,4.5117,4.4273,4.2791,4.2334,4.2208,4.2117,4.1241,4.0459,6.3493,6.295,5.6124,5.5862,5.9935,6.0021,6.4303,7.1212,7.1611,7.1964,7.1927,6.892,6.6302,6.3867,5.806,0.0,6.6194,6.7323,7.062,7.6027,7.752,7.6706,7.406,7.3969,7.2748,7.0567,7.278,7.4229,7.4868,7.1937,7.0078,6.9273,6.7671,6.6983,6.7295,6.8979,7.2729,7.829,8.0567,8.1674,8.1535,7.9393,7.5605,7.022,7.1328,7.0813,6.8476,6.7217,6.6764,6.6944,6.052,5.638,5.5244,0.0,0.0,0.0,0.0,0.0,0.0,0.0,0.0,0.0,0.0,0.0,0.0,0.0,0.0,3.7418,3.9658,0.0,4.3498,3.9052,0.0,0.0,0.0,3.7375,4.1423,4.4806,4.7428,4.9124,0.0,0.0,5.3499,5.3582,5.4888,5.8781,5.5907,5.2829,5.1269,5.1343,5.1439,5.0101,5.0136,5.0279,5.11,5.1742,5.2723,5.4026,5.5025,5.4998,5.3821,5.334,5.2723,5.088,4.9995,4.9035,4.8559,4.6783,4.5551,4.4763,4.5299,4.5486,4.3865,4.3196,4.2926,5.7719,5.1709,4.9184,4.9694,5.2201,5.2406,5.6087,6.1896,6.2098,6.2155,6.1981,5.9884,5.7088,5.3721,5.0431,0.0,0.0,0.0,6.0909,6.8273,6.8216,7.0413,7.4157,7.3513,7.3406,7.3808,7.3076,7.317,7.4173,7.2807,6.5427,5.2379,0.0,5.0661,5.5072,6.2499,6.9488,7.5848,8.1632,8.3839,8.2445,7.939,7.5519,7.0801,6.8959,6.8032,6.8098,6.6579,6.4387,6.1311,5.6821,5.1484,0.0,0.0,0.0,0.0,0.0,0.0,0.0,0.0,0.0,0.0,0.0,2.4708,1.8949,0.0,0.0,0.0,3.0445,3.1678,3.3656,3.5016,0.0,0.0,0.0,0.0,0.0,0.0,0.0,3.9087,4.4223,4.855,5.0314,4.8659,4.7941,4.9976,4.6475,4.3639,4.3525,0.0,4.57,4.6935,4.7589,4.8652,5.0457,4.9265,4.8431,4.9637,5.1207,5.2098,5.1685,5.1576,5.1282,5.0498,4.9136,4.7888,4.7616,4.7036,4.6331,4.612,4.5543,4.4975,4.4597,4.3659,4.3155,5.0292,0.0,0.0,0.0,0.0,4.4065,4.7326,5.2815,5.2408,5.2316,5.2117,4.9733,0.0,0.0,0.0,0.0,0.0,0.0,5.3684,6.1123,6.3284,6.6867,7.1811,7.0582,7.0736,7.1991,6.9305,6.8082,6.7986,6.6659,5.7053,3.9955,0.0,0.0,0.0,0.0,6.4042,7.0508,7.9044,8.285,8.1639,7.8019,7.5054,7.2793,6.8839,6.7134,6.7969,6.4682,6.0784,5.647,5.09,0.0,0.0,0.0,0.0,0.0,0.0,0.0,0.0,0.0,0.0,0.0,0.0,0.0,0.0,0.0,0.0,0.0,0.0,0.0,2.7505,3.1615,3.275,0.0,0.0,0.0,0.0,0.0,0.0,0.0,0.0,0.0,4.5123,4.4371,4.4286,0.0,0.0,4.0925,3.9531,4.1279,4.287,4.3276,4.3882,0.0,4.7269,4.5807,4.4692,4.5818,4.8187,4.9779,4.9565,4.9055,4.8475,4.7832,4.6897,4.5806,4.4822,4.4342,4.428,4.4627,4.3551,4.2765,4.3421,4.2724,4.2006,0.0,0.0,0.0,0.0,0.0,0.0,0.0,0.0,4.4867,4.4384,0.0,3.9106,0.0,0.0,0.0,0.0,3.728,4.4348,0.0,0.0,6.5586,6.8726,6.5409,6.41,6.2787,6.1457,5.9438,5.693,5.3922,4.939,0.0,0.0,0.0,0.0,0.0,0.0,5.6185,6.1663,7.192,7.7659,7.8701,7.487,7.3883,7.6255,7.233,6.9384,6.7786,6.0731,5.593,5.3862,4.1908,0.0,0.0,0.0,0.0,0.0,0.0,0.0,0.0,0.0,0.0,0.0,0.0,0.0,0.0,0.0,0.0,0.0,0.0,0.0,0.0,2.8756,0.0,0.0,0.0,0.0,0.0,0.0,0.0,0.0,0.0,3.7662,3.7055,4.1271,4.5724,4.8359,0.0,0.0,0.0,0.0,4.4646,3.8844,3.7858,3.8,3.8179,3.9854,4.1708,4.3161,0.0,0.0,4.7223,4.5768,4.4128,4.2087,4.336,4.3355,3.9587,3.8514,3.8498,3.9642,3.9329,3.9281,4.034,4.0023,3.9676,0.0,0.0,0.0,0.0,0.0,0.0,0.0,0.0,0.0,3.2428,3.1496,2.8917,0.0,0.0,0.0,0.0,0.0,0.0,0.0,0.0,5.0518,5.4776,5.6653,5.7827,5.6777,0.0,5.2319,4.6762,0.0,0.0,0.0,0.0,0.0,0.0,0.0,0.0,5.3672,5.7621,7.0096,7.6616,7.6137,7.3956,7.2796,7.2821,7.1491,6.7609,6.1032,5.4892,4.9254,0.0,0.0,0.0,0.0,0.0,0.0,0.0,0.0,0.0,0.0,0.0,0.0,0.0,0.0,0.0,0.0,0.0,0.0,0.0,0.0,0.0,0.0,0.0,2.9113,0.0,0.0,0.0,0.0,0.0,0.0,0.0,0.0,0.0,3.2763,3.6486,4.0498,4.3625,4.3418,4.2432,4.0852,0.0,0.0,0.0,0.0,0.0,0.0,0.0,3.8428,3.743,3.7786,3.8606,3.9895,4.1016,4.1469,4.021,0.0,0.0,3.3776,3.3571,3.4393,3.4887,3.4806,3.5053,3.6381,3.6134,3.6117,0.0,0.0,0.0,0.0,0.0,0.0,0.0,0.0,0.0,2.3203,2.243,0.0,0.0,0.0,0.0,0.0,0.0,0.0,0.0,0.0,0.0,0.0,4.83,4.9933,0.0,0.0,0.0,0.0,0.0,0.0,0.0,0.0,0.0,0.0,0.0,0.0,5.1197,5.439,6.7704,7.4434,7.3537,7.2699,7.1787,7.0855,7.0865,6.6767,5.7846,0.0,0.0,0.0,0.0,0.0,0.0,0.0,0.0,0.0,0.0,0.0,0.0,0.0,0.0,0.0,0.0,0.0,0.0,0.0,0.0,0.0,0.0,0.0,0.0,0.0,2.7354,0.0,0.0,0.0,0.0,0.0,0.0,0.0,0.0,0.0,0.0,0.0,3.6106,3.9312,4.0604,4.108,4.0623,4.101,4.1864,0.0,0.0,0.0,0.0,0.0,0.0,0.0,0.0,0.0,0.0,0.0,0.0,0.0,0.0,3.3704,2.8781,2.8471,2.9211,2.9674,0.0,0.0,0.0,0.0,0.0,0.0,0.0,0.0,0.0,0.0,0.0,0.0,0.0,0.0,0.0,1.7408,0.0,0.0,1.5617,0.0,0.0,0.0,0.0,0.0,0.0,0.0,0.0,0.0,0.0,0.0,0.0,0.0,0.0,0.0,0.0,0.0,0.0,0.0,0.0,0.0,0.0,4.8705,5.1458,6.4442,7.1114,7.1024,7.0964,7.0964,7.0934,7.0844,6.6974,5.8962,0.0,0.0,0.0,0.0,0.0,0.0,0.0,0.0,0.0,0.0,0.0,0.0,0.0,0.0,0.0,0.0,0.0,0.0,0.0,0.0,0.0,0.0,0.0,0.0,0.0,0.0,2.1888,2.603,2.8601,0.0,0.0,0.0,0.0,0.0,0.0,0.0,0.0,0.0,3.5834,4.268,4.5876,4.183,4.2898,4.3121,4.0483,3.8828,3.8253,3.9752,3.9854,3.9564,0.0,0.0,0.0,0.0,0.0,0.0,0.0,0.0,0.0,0.0,0.0,0.0,0.0,0.0,0.0,0.0,0.0,0.0,0.0,0.0,0.0,0.0,0.0,0.0,0.0,0.0,0.0,0.0,0.0,0.0,0.0,0.0,0.0,0.0,0.0,0.0,0.0,0.0,0.0,0.0,0.0,0.0,0.0,0.0,0.0,0.0,0.0,0.0,0.0,0.0,0.0,0.0,0.0,0.0,4.9441,5.1256,6.516,7.1892,7.0964,7.0964,7.0964,7.0844,6.8211,6.3414,0.0,0.0,0.0,0.0,0.0,0.0,0.0,0.0,0.0,0.0,0.0,0.0,0.0,0.0,0.0,0.0,0.0,0.0,0.0,0.0,0.0,0.0,0.0,0.0,0.0,0.0,0.0,0.0,3.0331,3.0282,2.6783,0.0,0.0,0.0,0.0,0.0,0.0,0.0,0.0,0.0,0.0,4.1185,4.1577,4.325,4.4053,4.2991,4.2283,4.1421,4.0171,3.9938,3.8816,3.586,0.0,0.0,0.0,0.0,0.0,0.0,0.0,0.0,0.0,0.0,0.0,0.0,0.0,0.0,0.0,0.0,0.0,0.0,0.0,0.0,0.0,0.0,0.0,0.0,0.0,0.0,0.0,0.0,0.0,0.0,0.0,0.0,0.0,0.0,0.0,0.0,0.0,0.0,0.0,0.0,0.0,0.0,0.0,0.0,0.0,0.0,0.0,0.0,0.0,0.0,0.0,0.0,0.0,4.9582,5.2072,6.5758,7.252,7.1742,7.1682,7.1203,7.0216,6.6775,6.1151,0.0,0.0,0.0,0.0,0.0,0.0,0.0,0.0,0.0,0.0,0.0,0.0,0.0,0.0,0.0,0.0,0.0,0.0,0.0,0.0,0.0,0.0,0.0,0.0,0.0,0.0,0.0,0.0,2.8083,2.8908,2.6157,0.0,0.0,0.0,0.0,0.0,0.0,0.0,0.0,0.0,0.0,3.7599,3.9103,4.1066,0.0,0.0,4.1483,4.0935,3.973,4.0217,3.9208,3.4792,3.3509,0.0,0.0,0.0,0.0,0.0,0.0,0.0,0.0,0.0,0.0,0.0,0.0,0.0,0.0,0.0,0.0,0.0,0.0,0.0,0.0,0.0,0.0,0.0,0.0,0.0,0.0,0.0,0.0,0.0,0.0,0.0,0.0,0.0,0.0,0.0,0.0,0.0,0.0,0.0,0.0,0.0,0.0,0.0,0.0,0.0,0.0,0.0,0.0,0.0,0.0,0.0,0.0,4.9124,5.3276,6.5966,7.252,7.246,7.252,7.1323,6.8959,6.5966,5.957,0.0,0.0,0.0,0.0,0.0,0.0,0.0,0.0,0.0,0.0,0.0,0.0,0.0,0.0,0.0,0.0,0.0,0.0,0.0,0.0,0.0,0.0,0.0,0.0,0.0,0.0,0.0,0.0,0.0,0.0,0.0,0.0,0.0,0.0,0.0,0.0,0.0,0.0,0.0,0.0,0.0,3.524,3.564,3.7585,3.8568,0.0,3.7656,3.7805,3.8231,4.0246,4.0027,3.4721,0.0,0.0,0.0,0.0,0.0,0.0,0.0,0.0,0.0,0.0,0.0,0.0,0.0,0.0,0.0,0.0,0.0,0.0,0.0,0.0,0.0,0.0,0.0,0.0,0.0,0.0,0.0,0.0,0.0,0.0,0.0,0.0,0.0,0.0,0.0,0.0,0.0,0.0,0.0,0.0,0.0,0.0,0.0,0.0,0.0,0.0,0.0,0.0,0.0,0.0,0.0,0.0,0.0,0.0,5.0552,6.3326,6.9498,6.8569,6.854,6.8241,6.7491,6.2049,0.0,0.0,0.0,0.0,0.0,0.0,0.0,0.0,0.0,0.0,0.0,0.0,0.0,0.0,0.0,0.0,0.0,0.0,0.0,0.0,0.0,0.0,0.0,0.0,0.0,0.0,0.0,1.5921,0.0,0.0,0.0,0.0,0.0,0.0,0.0,0.0,0.0,0.0,0.0,0.0,0.0,0.0,3.6803,3.901,3.9139,3.8948,0.0,0.0,3.6423,3.4708,3.6338,3.6574,0.0,0.0,0.0,0.0,0.0,0.0,0.0,0.0,0.0,0.0,0.0,0.0,0.0,0.0,0.0,0.0,0.0,0.0,0.0,0.0,0.0,0.0,0.0,0.0,0.0,0.0,0.0,0.0,0.0,0.0,0.0,0.0,0.0,0.0,0.0,0.0,0.0,0.0,0.0,0.0,0.0,0.0,0.0,0.0,0.0,0.0,0.0,0.0,0.0,0.0,0.0,0.0,0.0,0.0,4.5451,5.0308,6.033,6.6381,6.7822,6.791,6.7343,6.6145,6.0288,5.4666,0.0,0.0,0.0,0.0,0.0,0.0,0.0,0.0,0.0,0.0,0.0,0.0,0.0,0.0,0.0,0.0,0.0,0.0,0.0,0.0,0.0,0.0,0.0,0.0,0.0,0.0,0.0,0.0,0.0,0.0,0.0,0.0,0.0,0.0,0.0,0.0,0.0,0.0,0.0,0.0,0.0,0.0,3.7218,3.6778,0.0,0.0,0.0,3.5225,3.413,0.0,0.0,0.0,0.0,0.0,0.0,0.0,0.0,0.0,0.0,0.0,0.0,0.0,0.0,0.0,0.0,0.0,0.0,0.0,0.0,0.0,0.0,0.0,0.0,0.0,0.0,0.0,0.0,0.0,0.0,0.0,0.0,0.0,0.0,0.0,0.0,0.0,0.0,0.0,0.0,0.0,0.0,0.0,0.0,0.0,0.0,0.0,0.0,0.0,0.0,0.0,0.0,0.0,0.0,0.0,0.0,0.0,5.056,5.7479,6.338,6.8001,6.83,6.7163,6.4741,5.9954,5.4785,0.0,0.0,0.0,0.0,0.0,0.0,0.0,0.0,0.0,0.0,0.0,0.0,0.0,0.0,0.0,0.0,0.0,0.0,0.0,0.0,0.0,0.0,0.0,0.0,0.0,0.0,0.0,0.0,0.0,0.0,0.0,0.0,0.0,0.0,0.0,0.0,0.0,0.0,0.0,0.0,0.0,3.3554,3.3891,3.3177,3.2053,0.0,0.0,3.3758,3.4165,3.4822,0.0,0.0,0.0,0.0,0.0,0.0,0.0,0.0,0.0,0.0,0.0,0.0,0.0,0.0,0.0,0.0,0.0,0.0,0.0,0.0,0.0,0.0,0.0,0.0,0.0,0.0,0.0,0.0,0.0,0.0,0.0,0.0,0.0,0.0,0.0,0.0,0.0,0.0,0.0,0.0,0.0,0.0,0.0,0.0,0.0,0.0,0.0,0.0,0.0,0.0,0.0,0.0,0.0,0.0,0.0,0.0,4.8293,5.5765,6.1031,6.405,6.4203,6.3931,6.3332,6.0373,5.5718,0.0,0.0,0.0,0.0,0.0,0.0,0.0,0.0,0.0,0.0,0.0,0.0,0.0,0.0,0.0,0.0,0.0,0.0,0.0,0.0,0.0,0.0,0.0,0.0,0.0,0.0,0.0,0.0,0.0,0.0,0.0,0.0,0.0,0.0,0.0,0.0,0.0,0.0,0.0,0.0,0.0,3.3731,3.7307,3.4591,0.0,0.0,0.0,0.0,2.8782,2.8778,0.0,0.0,0.0,0.0,0.0,0.0,0.0,0.0,0.0,0.0,0.0,0.0,0.0,0.0,0.0,0.0,0.0,0.0,0.0,0.0,0.0,0.0,0.0,0.0,0.0,0.0,0.0,0.0,0.0,0.0,0.0,0.0,0.0,0.0,0.0,0.0,0.0,0.0,0.0,0.0,0.0,0.0,0.0,0.0,0.0,0.0,0.0,0.0,0.0,0.0,0.0,0.0,0.0,0.0,0.0,0.0,4.9012,5.3329,5.7923,6.2953,6.3086,6.3,6.3107,6.0519,5.6256,0.0,0.0,0.0,0.0,0.0,0.0,0.0,0.0,0.0,0.0,0.0,0.0,0.0,0.0,0.0,0.0,0.0,0.0,0.0,0.0,0.0,0.0,0.0,0.0,0.0,0.0,0.0,0.0,0.0,0.0,0.0,0.0,0.0,0.0,0.0,0.0,0.0,0.0,0.0,0.0,2.917,3.131,3.4563,0.0,0.0,0.0,0.0,0.0,0.0,2.737,2.629,0.0,0.0,0.0,0.0,0.0,0.0,0.0,0.0,0.0,0.0,0.0,0.0,0.0,0.0,0.0,0.0,0.0,0.0,0.0,0.0,0.0,0.0,0.0,0.0,0.0,0.0,0.0,0.0,0.0,0.0,0.0,0.0,0.0,0.0,0.0,0.0,0.0,0.0,0.0,0.0,0.0,0.0,0.0,0.0,0.0,0.0,0.0,0.0,0.0,0.0,0.0,0.0,0.0,0.0,0.0,4.9423,5.0831,5.5125,6.2458,6.2873,6.3053,6.3213,6.039,5.6197,5.0517,0.0,0.0,0.0,0.0,0.0,0.0,0.0,0.0,0.0,0.0,0.0,0.0,0.0,0.0,0.0,0.0,0.0,0.0,0.0,0.0,0.0,0.0,0.0,0.0,0.0,0.0,0.0,0.0,0.0,0.0,0.0,0.0,0.0,0.0,0.0,0.0,0.0,0.0,0.0,2.7199,2.8259,0.0,0.0,0.0,0.0,0.0,0.0,0.0,0.0,2.529,0.0,0.0,0.0,0.0,0.0,0.0,0.0,0.0,0.0,0.0,0.0,0.0,0.0,0.0,0.0,0.0,0.0,0.0,0.0,0.0,0.0,0.0,0.0,0.0,0.0,0.0,0.0,0.0,0.0,0.0,0.0,0.0,0.0,0.0,0.0,0.0,0.0,0.0,0.0,0.0,0.0,0.0,0.0,0.0,0.0,0.0,0.0,0.0,0.0,0.0,0.0,0.0,0.0,0.0,0.0,0.0,4.8509,5.41,5.9561,6.1895,6.3033,6.3,5.9416,5.4426,4.8027,0.0,0.0,0.0,0.0,0.0,0.0,0.0,0.0,0.0,0.0,0.0,0.0,0.0,0.0,0.0,0.0,0.0,0.0,0.0,0.0,0.0,0.0,0.0,0.0,0.0,0.0,0.0,0.0,0.0,0.0,0.0,0.0,0.0,0.0,0.0,0.0,0.0,0.0,2.11,2.385,0.0,0.0,0.0,0.0,0.0,0.0,0.0,0.0,2.2775,0.0,0.0,0.0,0.0,0.0,0.0,0.0,0.0,0.0,0.0,0.0,0.0,0.0,0.0,0.0,0.0,0.0,0.0,0.0,0.0,0.0,0.0,0.0,0.0,0.0,0.0,0.0,0.0,0.0,0.0,0.0,0.0,0.0,0.0,0.0,0.0,0.0,0.0,0.0,0.0,0.0,0.0,0.0,0.0,0.0,0.0,0.0,0.0,0.0,0.0,0.0,0.0,0.0,0.0,0.0,0.0,0.0,0.0,5.2482,5.7096,5.9646,6.1023,6.0913,5.5813,5.1137,0.0,0.0,0.0,0.0,0.0,0.0,0.0,0.0,0.0,0.0,0.0,0.0,0.0,0.0,0.0,0.0,0.0,0.0,0.0,0.0,0.0,0.0,0.0,0.0,0.0,0.0,0.0,0.0,0.0,0.0,0.0,0.0,0.0,0.0,0.0,0.0,0.0,0.0,0.0,0.0,0.0,0.0,0.0,0.0,0.0,0.0,0.0,0.0,0.0,0.0,0.0,0.0,0.0,0.0,0.0,0.0,0.0,0.0,0.0,0.0,0.0,0.0,0.0,0.0,0.0,0.0,0.0,0.0,0.0,0.0,0.0,0.0,0.0,0.0,0.0,0.0,0.0,0.0,0.0,0.0,0.0,0.0,0.0,0.0,0.0,0.0,0.0,0.0,0.0,0.0,0.0,0.0,0.0,0.0,0.0,0.0,0.0,0.0,0.0,0.0,0.0,0.0,0.0,0.0,0.0,0.0,0.0,0.0,5.0646,5.4592,5.7575,5.9192,5.9358,5.2265,4.7369,0.0,0.0,0.0,0.0,0.0,0.0,0.0,0.0,0.0,0.0,0.0,0.0,0.0,0.0,0.0,0.0,0.0,0.0,0.0,0.0,0.0,0.0,0.0,0.0,0.0,0.0,0.0,0.0,0.0,0.0,0.0,0.0,0.0,0.0,0.0,0.0,0.0,0.0,0.0,0.0,0.0,0.0,0.0,0.0,0.0,0.0,0.0,0.0,2.1376,0.0,0.0,0.0,0.0,0.0,0.0,0.0,0.0,0.0,0.0,0.0,0.0,0.0,0.0,0.0,0.0,0.0,0.0,0.0,0.0,0.0,0.0,0.0,0.0,0.0,0.0,0.0,0.0,0.0,0.0,0.0,0.0,0.0,0.0,0.0,0.0,0.0,0.0,0.0,0.0,0.0,0.0,0.0,0.0,0.0,0.0,0.0,0.0,0.0,0.0,0.0,0.0,0.0,0.0,0.0,0.0,0.0,0.0,0.0,4.8846,5.1741,5.6604,5.9091,5.8877,5.0381,4.3458,0.0,0.0,0.0,0.0,0.0,0.0,0.0,0.0,0.0,0.0,0.0,0.0,0.0,0.0,0.0,0.0,0.0,0.0,0.0,0.0,0.0,0.0,0.0,0.0,0.0,0.0,0.0,0.0,0.0,0.0,0.0,0.0,0.0,0.0,0.0,0.0,0.0,0.0,0.0,0.0,0.0,0.0,0.0,0.0,0.0,0.0,0.0,0.0,0.0,0.0,0.0,0.0,0.0,0.0,0.0,0.0,0.0,0.0,0.0,0.0,0.0,0.0,0.0,0.0,0.0,0.0,0.0,0.0,0.0,0.0,0.0,0.0,0.0,0.0,0.0,0.0,0.0,0.0,0.0,0.0,0.0,0.0,0.0,0.0,0.0,0.0,0.0,0.0,0.0,0.0,0.0,0.0,0.0,0.0,0.0,0.0,0.0,0.0,0.0,0.0,0.0,0.0,0.0,0.0,0.0,0.0,0.0,0.0,4.3634,4.7828,5.2213,5.3745,5.2273,4.5474,4.0483,0.0,0.0,0.0,0.0,0.0,0.0,0.0,0.0,0.0,0.0,0.0,0.0,0.0,0.0,0.0,0.0,0.0,0.0,0.0,0.0,0.0,0.0,0.0,0.0,0.0,0.0,0.0,0.0,0.0,0.0,0.0,0.0,0.0,0.0,0.0,0.0,0.0,0.0,0.0,0.0,0.0,0.0,0.0,0.0,0.0,0.0,0.0,0.0,0.0,0.0,0.0,0.0,0.0,0.0,0.0,0.0,0.0,0.0,0.0,0.0,0.0,0.0,0.0,0.0,0.0,0.0,0.0,0.0,0.0,0.0,0.0,0.0,0.0,0.0,0.0,0.0,0.0,0.0,0.0,0.0,0.0,0.0,0.0,0.0,0.0,0.0,0.0,0.0,0.0,0.0,0.0,0.0,0.0,0.0,0.0,0.0,0.0,0.0,0.0,0.0,0.0,0.0,0.0,0.0,0.0,0.0,0.0,0.0,0.0,4.3698,4.7269,4.7847,4.5216,4.1141,3.7684,0.0,0.0,0.0,0.0,0.0,0.0,0.0,0.0,0.0,0.0,0.0,0.0,0.0,0.0,0.0,0.0,0.0,0.0,0.0,0.0,0.0,0.0,0.0,0.0,0.0,0.0,0.0,0.0,0.0,0.0,0.0,0.0,0.0,0.0,0.0,0.0,0.0,0.0,0.0,0.0,0.0,0.0,0.0,0.0,0.0,0.0,0.0,0.0,0.0,0.0,0.0,0.0,0.0,0.0,0.0,0.0,0.0,0.0,0.0,0.0,0.0,0.0,0.0,0.0,0.0,0.0,0.0,0.0,0.0,0.0,0.0,0.0,0.0,0.0,0.0,0.0,0.0,0.0,0.0,0.0,0.0,0.0,0.0,0.0,0.0,0.0,0.0,0.0,0.0,0.0,0.0,0.0,0.0,0.0,0.0,0.0,0.0,0.0,0.0,0.0,0.0,0.0,0.0,0.0,0.0,0.0,0.0,0.0,0.0,3.9781,4.2399,4.2441,3.9944,3.8359,3.4629,0.0,0.0,0.0,0.0,0.0,0.0,0.0,0.0,0.0,0.0,0.0,0.0,0.0,0.0,0.0,0.0,0.0,0.0,0.0,0.0,0.0,0.0,0.0,0.0,0.0,0.0,0.0,0.0,0.0,0.0,0.0,0.0,0.0,0.0,0.0,0.0,0.0,0.0,0.0,0.0,0.0,0.0,0.0,0.0,0.0,0.0,0.0,0.0,0.0,0.0,0.0,0.0,0.0,0.0,0.0,0.0,0.0,0.0,0.0,0.0,0.0,0.0,0.0,0.0,0.0,0.0,0.0,0.0,0.0,0.0,0.0,0.0,0.0,0.0,0.0,0.0,0.0,0.0,0.0,0.0,0.0,0.0,0.0,0.0,0.0,0.0,0.0,0.0,0.0,0.0,0.0,0.0,0.0,0.0,0.0,0.0,0.0,0.0,0.0,0.0,0.0,0.0,0.0,0.0,0.0,0.0,0.0,0.0,0.0,2.9776,3.2159,3.418,3.5646,3.126,2.9237,2.9892,0.0,0.0,0.0,0.0,0.0,0.0,0.0,0.0,0.0,0.0,0.0,0.0,0.0,0.0,0.0,0.0,0.0,0.0,0.0,0.0,0.0,0.0,0.0,0.0,0.0,0.0,0.0,0.0,0.0,0.0,0.0,0.0,0.0,0.0,0.0,0.0,0.0,0.0,0.0,0.0,0.0,0.0,0.0,0.0,0.0,0.0,0.0,0.0,0.0,0.0,0.0,0.0,0.0,0.0,0.0,0.0,0.0,0.0,0.0,0.0,0.0,0.0,0.0,0.0,0.0,0.0,0.0,0.0,0.0,0.0,0.0,0.0,0.0,0.0,0.0,0.0,0.0,0.0,0.0,0.0,0.0,0.0,0.0,0.0,0.0,0.0,0.0,0.0,0.0,0.0,0.0,0.0,0.0,0.0,0.0,0.0,0.0,0.0,0.0,0.0,0.0,0.0,0.0,0.0,0.0,0.0,0.0,0.0,2.4983,2.7883,3.0297,3.1971,2.7871,2.6267,0.0,0.0,0.0,0.0,0.0,0.0,0.0,0.0,0.0,0.0,0.0,0.0,0.0,0.0,0.0,0.0,0.0,0.0,0.0,0.0,0.0,0.0,0.0,0.0,0.0,0.0,0.0,0.0,0.0,0.0,0.0,0.0,0.0,0.0,0.0,0.0,0.0,0.0,0.0,0.0,0.0,0.0,0.0,0.0,0.0,0.0,0.0,0.0,0.0,0.0,0.0,0.0,0.0,0.0,0.0,0.0,0.0,0.0,0.0,0.0,0.0,0.0,0.0,0.0,0.0,0.0,0.0,0.0,0.0,0.0,0.0,0.0,0.0,0.0,0.0,0.0,0.0,0.0,0.0,0.0,0.0,0.0,0.0,0.0,0.0,0.0,0.0,0.0,0.0,0.0,0.0,0.0,0.0,0.0,0.0,0.0,0.0,0.0,0.0,0.0,0.0,0.0,0.0,0.0,0.0,0.0,0.0,0.0,2.102,2.7213,3.1014,3.1791,2.9725,2.9294,2.6365,0.0,0.0,0.0,0.0,0.0,0.0,0.0,0.0,0.0,0.0,0.0,0.0,0.0,0.0,0.0,0.0,0.0,0.0,0.0,0.0,0.0,0.0,0.0,0.0,0.0,0.0,0.0,0.0,0.0,0.0,0.0,0.0,0.0,0.0,0.0,0.0,0.0,0.0,0.0,0.0,0.0,0.0,0.0,0.0,0.0,0.0,0.0,0.0,0.0,0.0,0.0,0.0,0.0,0.0,0.0,0.0,0.0,0.0,0.0,0.0,0.0,0.0,0.0,0.0,0.0,0.0,0.0,0.0,0.0,0.0,0.0,0.0,0.0,0.0,0.0,0.0,0.0,0.0,0.0,0.0,0.0,0.0,0.0,0.0,0.0,0.0,0.0,0.0,0.0,0.0,0.0,0.0,0.0,0.0,0.0,0.0,0.0,0.0,0.0,0.0,0.0,0.0,0.0,0.0,0.0,0.0,0.0,0.0,0.0,1.9694,0.0,2.7596,0.0,2.6962,2.5147,0.0,0.0,0.0,0.0,0.0,0.0,0.0,0.0,0.0,0.0,0.0,0.0,0.0,0.0,0.0,0.0,0.0,0.0,0.0,0.0,0.0,0.0,0.0,0.0,0.0,0.0,0.0,0.0,0.0,0.0,0.0,0.0,0.0,0.0,0.0,0.0,0.0,0.0,0.0,0.0,0.0,0.0,0.0,0.0,0.0,0.0,0.0,0.0,0.0,0.0,0.0,0.0,0.0,0.0,0.0,0.0,0.0,0.0,0.0,0.0,0.0,0.0,0.0,0.0,0.0,0.0,0.0,0.0,0.0,0.0,0.0,0.0,0.0,0.0,0.0,0.0,0.0,0.0,0.0,0.0,0.0,0.0,0.0,0.0,0.0,0.0,0.0,0.0,0.0,0.0,0.0,0.0,0.0,0.0,0.0,0.0,0.0,0.0,0.0,0.0,0.0,0.0,0.0,0.0,0.0,0.0,0.0,0.0,0.0,2.072,2.1789,2.5229,3.0822,2.6151,2.4817,0.0,0.0,0.0,0.0,0.0,0.0,0.0,0.0,0.0,0.0,0.0,0.0,0.0,0.0,0.0,0.0,0.0,0.0,0.0,0.0,0.0,0.0,0.0,0.0,0.0,0.0,0.0,0.0,0.0,0.0,0.0,0.0,0.0,0.0,0.0,0.0,0.0,0.0,0.0,0.0,0.0,0.0,0.0,0.0,0.0,0.0,0.0,0.0,0.0,0.0,0.0,0.0,0.0,0.0,0.0,0.0,0.0,0.0,0.0,0.0,0.0,0.0,0.0,0.0,0.0,0.0,0.0,0.0,0.0,0.0,0.0,0.0,0.0,0.0,0.0,0.0,0.0,0.0,0.0,0.0,0.0,0.0,0.0,0.0,0.0,0.0,0.0,0.0,0.0,0.0,0.0,0.0,0.0,0.0,0.0,0.0,0.0,0.0,0.0,0.0,0.0,0.0,0.0,0.0,0.0,0.0,0.0,0.0,0.0,0.0,2.556,2.4972,2.7333,2.6619,2.5254,0.0,0.0,0.0,0.0,0.0,0.0,0.0,0.0,0.0,0.0,0.0,0.0,0.0,0.0,0.0,0.0,0.0,0.0,0.0,0.0,0.0,0.0,0.0,0.0,0.0,0.0,0.0,0.0,0.0,0.0,0.0,0.0,0.0,0.0,0.0,0.0,0.0,0.0,0.0,0.0,0.0,0.0,0.0,0.0,0.0,0.0,0.0,0.0,0.0,0.0,0.0,0.0,0.0,0.0,0.0,0.0,0.0,0.0,0.0,0.0,0.0,0.0,0.0,0.0,0.0,0.0,0.0,0.0,0.0,0.0,0.0,0.0,0.0,0.0,0.0,0.0,0.0,0.0,0.0,0.0,0.0,0.0,0.0,0.0,0.0,0.0,0.0,0.0,0.0,0.0,0.0,0.0,0.0,0.0,0.0,0.0,0.0,0.0,0.0,0.0,0.0,0.0,0.0,0.0,0.0,0.0,0.0,0.0,0.0,0.0,2.4173,2.5032,2.4712,2.36,2.3382,2.4347,0.0,0.0,0.0,0.0,0.0,0.0,0.0,0.0,0.0,0.0,0.0,0.0,0.0,0.0,0.0,0.0,0.0,0.0,0.0,0.0,0.0,0.0,0.0,0.0,0.0,0.0,0.0,0.0,0.0,0.0,0.0,0.0,0.0,0.0,0.0,0.0,0.0,0.0,0.0,0.0,0.0,0.0,0.0,0.0,0.0,0.0,0.0,0.0,0.0,0.0,0.0,0.0,0.0,0.0,0.0,0.0,0.0,0.0,0.0,0.0,0.0,0.0,0.0,0.0,0.0,0.0,0.0,0.0,0.0,0.0,0.0,0.0,0.0,0.0,0.0,0.0,0.0,0.0,0.0,0.0,0.0,0.0,0.0,0.0,0.0,0.0,0.0,0.0,0.0,0.0,0.0,0.0,0.0,0.0,0.0,0.0,0.0,0.0,0.0,0.0,0.0,0.0,0.0,0.0,0.0,0.0,0.0,0.0,0.0,0.0,2.4183,2.4493,2.3166,2.3103,0.0,0.0,0.0,0.0,0.0,0.0,0.0,0.0,0.0,0.0,0.0,0.0,0.0,0.0,0.0,0.0,0.0,0.0,0.0,0.0,0.0,0.0,0.0,0.0,0.0,0.0,0.0,0.0,0.0,0.0,0.0,0.0,0.0,0.0,0.0,0.0,0.0,0.0,0.0,0.0,0.0,0.0,0.0,0.0,0.0,0.0,0.0,0.0,0.0,0.0,0.0,0.0,0.0,0.0,0.0,0.0,0.0,0.0,0.0,0.0,0.0,0.0,0.0,0.0,0.0,0.0,0.0,0.0,0.0,0.0,0.0,0.0,0.0,0.0,0.0,0.0,0.0,0.0,0.0,0.0,0.0,0.0,0.0,0.0,0.0,0.0,0.0,0.0,0.0,0.0,0.0,0.0,0.0,0.0,0.0,0.0,0.0,0.0,0.0,0.0,0.0,0.0,0.0,0.0,0.0,0.0,0.0,0.0,0.0,0.0,0.0,2.2837,2.5022,2.4324,0.0,2.3464,0.0,0.0,0.0,0.0,0.0,0.0,0.0,0.0,0.0,0.0,0.0,0.0,0.0,0.0,0.0,0.0,0.0,0.0,0.0,0.0,0.0,0.0,0.0,0.0,0.0,0.0,0.0,0.0,0.0,0.0,0.0,0.0,0.0,0.0,0.0,0.0,0.0,0.0,0.0,0.0,0.0,0.0,0.0,0.0,0.0,0.0,0.0,0.0,0.0,0.0,0.0,0.0,0.0,0.0,0.0,0.0,0.0,0.0,0.0,0.0,0.0,0.0,0.0,0.0,0.0,0.0,0.0,0.0,0.0,0.0,0.0,0.0,0.0,0.0,0.0,0.0,0.0,0.0,0.0,0.0,0.0,0.0,0.0,0.0,0.0,0.0,0.0,0.0,0.0,0.0,0.0,0.0,0.0,0.0,0.0,0.0,0.0,0.0,0.0,0.0,0.0,0.0,0.0,0.0,0.0,0.0,0.0,0.0,0.0,0.0,0.0,0.0,2.3775,2.2809,1.7742,0.0,0.0,0.0,0.0,0.0,0.0,0.0,0.0,0.0,0.0,0.0,0.0,0.0,0.0,0.0,0.0,0.0,0.0,0.0,0.0,0.0,0.0,0.0,0.0,0.0,0.0,0.0,0.0,0.0,0.0,0.0,0.0,0.0,0.0,0.0,0.0,0.0,0.0,0.0,0.0,0.0,0.0,0.0,0.0,0.0,0.0,0.0,0.0,0.0,0.0,0.0,0.0,0.0,0.0,0.0,0.0,0.0,0.0,0.0,0.0,0.0,0.0,0.0,0.0,0.0,0.0,0.0,0.0,0.0,0.0,0.0,0.0,0.0,0.0,0.0,0.0,0.0,0.0,0.0,0.0,0.0,0.0,0.0,0.0,0.0,0.0,0.0,0.0,0.0,0.0,0.0,0.0,0.0,0.0,0.0,0.0,0.0,0.0,0.0,0.0,0.0,0.0,0.0,0.0,0.0,0.0,0.0,0.0,0.0,0.0,2.2677,2.0694,2.2668,2.1411,1.6506,0.0,0.0,0.0,0.0,0.0,0.0,0.0,0.0,0.0,0.0,0.0,0.0,0.0,0.0,0.0,0.0,0.0,0.0,0.0,0.0,0.0,0.0,0.0,0.0,0.0,0.0,0.0,0.0,0.0,0.0,0.0,0.0,0.0,0.0,0.0,0.0,0.0,0.0,0.0,0.0,0.0,0.0,0.0,0.0,0.0,0.0,0.0,0.0,0.0,0.0,0.0,0.0,0.0,0.0,0.0,0.0,0.0,0.0,0.0,0.0,0.0,0.0,0.0,0.0,0.0,0.0,0.0,0.0,0.0,0.0,0.0,0.0,0.0,0.0,0.0,0.0,0.0,0.0,0.0,0.0,0.0,0.0,0.0,0.0,0.0,0.0,0.0,0.0,0.0,0.0,0.0,0.0,0.0,0.0,0.0,0.0,0.0,0.0,0.0,0.0,0.0,0.0,0.0,0.0,0.0,0.0,0.0,0.0,0.0,0.0,0.0,0.0,0.0,0.0,1.7576,0.0,0.0,0.0,0.0,0.0,0.0,0.0,0.0,0.0,0.0,0.0,0.0,0.0,0.0,0.0,0.0,0.0,0.0,0.0,0.0,0.0,0.0,0.0,0.0,0.0,0.0,0.0,0.0,0.0,0.0,0.0,0.0,0.0,0.0,0.0,0.0,0.0,0.0,0.0,0.0,0.0,0.0,0.0,0.0,0.0,0.0,0.0,0.0,0.0,0.0,0.0,0.0,0.0,0.0,0.0,0.0,0.0,0.0,0.0,0.0,0.0,0.0,0.0,0.0,0.0,0.0,0.0,0.0,0.0,0.0,0.0,0.0,0.0,0.0,0.0,0.0,0.0,0.0,0.0,0.0,0.0,0.0,0.0,0.0,0.0,0.0,0.0,0.0,0.0,0.0,0.0,0.0,0.0,0.0,0.0,0.0,0.0,0.0,0.0,0.0,0.0,0.0,0.0,0.0,0.0,0.0,0.0,0.0,0.0,0.0,0.0,0.0,0.0,0.0,0.0,0.0,0.0,0.0,0.0,0.0,0.0,0.0,0.0,0.0,0.0,0.0,0.0,0.0,0.0,0.0,0.0,0.0,0.0,0.0,0.0,0.0,0.0,0.0,0.0,0.0,0.0,0.0,0.0,0.0,0.0,0.0,0.0,0.0,0.0,0.0,0.0,0.0,0.0,0.0,0.0,0.0,0.0,0.0,0.0,0.0,0.0,0.0,0.0,0.0,0.0,0.0,0.0,0.0,0.0,0.0,0.0,0.0,0.0,0.0,0.0,0.0,0.0,0.0,0.0,0.0,0.0,0.0,0.0,0.0,0.0,0.0,0.0,0.0,0.0,0.0,0.0,0.0,0.0,0.0,0.0,0.0,0.0,0.0,0.0,0.0,0.0,0.0,0.0,0.0,0.0,0.0,0.0,0.0,0.0,0.0,0.0,0.0,0.0,0.0,0.0,0.0,0.0,0.0,0.0,0.0,0.0,0.0,0.0,0.0,0.0,0.0,0.0,0.0,0.0,0.0,0.0,0.0,0.0,0.0,0.0,0.0,0.0,0.0,0.0,0.0,0.0,0.0,0.0,0.0,0.0,0.0,0.0,0.0,0.0,0.0,0.0,0.0,0.0,0.0,0.0,0.0,0.0,0.0,0.0,0.0,0.0,0.0,0.0,0.0,0.0,0.0,0.0,0.0,0.0,0.0,0.0,0.0,0.0,0.0,0.0,0.0,0.0,0.0,0.0,0.0,0.0,0.0,0.0,0.0,0.0,0.0,0.0,0.0,0.0,0.0,0.0,0.0,0.0,0.0,0.0,0.0,0.0,0.0,0.0,0.0,0.0,0.0,0.0,0.0,0.0,0.0,0.0,0.0,0.0,0.0,0.0,0.0,0.0,0.0,0.0,0.0,0.0,0.0,0.0,0.0,0.0,0.0,0.0,0.0,0.0,0.0,0.0,0.0,0.0,0.0,0.0,0.0,0.0,0.0,0.0,0.0,0.0,0.0,0.0,0.0,0.0,0.0,0.0,0.0,0.0,0.0,0.0,0.0,0.0,0.0,0.0,0.0,0.0,0.0,0.0,0.0,0.0,0.0,0.0,0.0,0.0,0.0,0.0,0.0,0.0,0.0,0.0,0.0,0.0,0.0,0.0,0.0,0.0,0.0,0.0,0.0,0.0,0.0,0.0,0.0,0.0,0.0,0.0,0.0,0.0,0.0,0.0,0.0,0.0,0.0,0.0,0.0,0.0,0.0,0.0,0.0,0.0,0.0,0.0,0.0,0.0,0.0,0.0,0.0,0.0,0.0,0.0,0.0,0.0,0.0,0.0,0.0,0.0,0.0,0.0,0.0,0.0,0.0,0.0,0.0,0.0,0.0,0.0,0.0,0.0,0.0,0.0,0.0,0.0,0.0,0.0,0.0,0.0,0.0,0.0,0.0,0.0,0.0,0.0,0.0,0.0,0.0,0.0,0.0,0.0,0.0,0.0,0.0,0.0,0.0,0.0,0.0,0.0,0.0,0.0,0.0,0.0,0.0,0.0,0.0,0.0,0.0,0.0,0.0,0.0,0.0,0.0,0.0,0.0,0.0,0.0,0.0,0.0,0.0,0.0,0.0,0.0,0.0,0.0,0.0,0.0,0.0,0.0,0.0,0.0,0.0,0.0,0.0,0.0,0.0,0.0,0.0,0.0,0.0,0.0,0.0,0.0,0.0,0.0,0.0,0.0,0.0,0.0,0.0,0.0,0.0,0.0,0.0,0.0,0.0,0.0,0.0,0.0,0.0,0.0,0.0,0.0,0.0,0.0,0.0,0.0,0.0,0.0,0.0,0.0,0.0,0.0,0.0,0.0,0.0,0.0,0.0,0.0,0.0,0.0,0.0,0.0,0.0,0.0,0.0,0.0,0.0,0.0,0.0,0.0,0.0,0.0,0.0,0.0,0.0,0.0,0.0,0.0,0.0,0.0,0.0,0.0,0.0,0.0,0.0,0.0,0.0,0.0,0.0,0.0,0.0,0.0,0.0,0.0,0.0,0.0,0.0,0.0,0.0,0.0,0.0,0.0,0.0,0.0,0.0,0.0,0.0,0.0,0.0,0.0,0.0,0.0,0.0,0.0,0.0,0.0,0.0,0.0,0.0,0.0,0.0,0.0,0.0,0.0,0.0,0.0,0.0,0.0,0.0,0.0,0.0,0.0,0.0,0.0,0.0,0.0,0.0,0.0,0.0,0.0,0.0,0.0,0.0,0.0,0.0,0.0,0.0,0.0,0.0,0.0,0.0,0.0,0.0,0.0,0.0,0.0,0.0,0.0,0.0,0.0,0.0,0.0,0.0,0.0,0.0,0.0,0.0,0.0,0.0,0.0,0.0,0.0,0.0,0.0,0.0,0.0,0.0,0.0,0.0,0.0,0.0,0.0,0.0,0.0,0.0,0.0,0.0,0.0,0.0,0.0,0.0,0.0,0.0,0.0,0.0,0.0,0.0,0.0,0.0,0.0,0.0,0.0,0.0,0.0,0.0,0.0,0.0,0.0,0.0,0.0,0.0,0.0,0.0,0.0,0.0,0.0,0.0,0.0,0.0,0.0,0.0,0.0,0.0,0.0,0.0,0.0,0.0,0.0,0.0,0.0,0.0,0.0,0.0,0.0,0.0,0.0,0.0,0.0,0.0,0.0,0.0,0.0,0.0,0.0,0.0,0.0,0.0,0.0,0.0,0.0,0.0,0.0,0.0,0.0,0.0,0.0,0.0,0.0,0.0,0.0,0.0,0.0,0.0,0.0,0.0,0.0,0.0,0.0,0.0,0.0,0.0,0.0,0.0,0.0,0.0,0.0,0.0,0.0,0.0,0.0,0.0,0.0,0.0,0.0,0.0,0.0,0.0,0.0,0.0,0.0,0.0,0.0,0.0,0.0,0.0,0.0,0.0,0.0,0.0,0.0,0.0,0.0,0.0,0.0,0.0,0.0,0.0,0.0,0.0,0.0,0.0,0.0,0.0,0.0,0.0,0.0,0.0,0.0,0.0,0.0,0.0,0.0,0.0,0.0,0.0,0.0,0.0,0.0,0.0,0.0,0.0,0.0,0.0,0.0,0.0,0.0,0.0,0.0,0.0,0.0,0.0,0.0,0.0,0.0,0.0,0.0,0.0,0.0,0.0,0.0,0.0,0.0,0.0,0.0,0.0,0.0,0.0,0.0,0.0,0.0,0.0,0.0,0.0,0.0,0.0,0.0,0.0,0.0,0.0,0.0,0.0,0.0,0.0,0.0,0.0,0.0,0.0,0.0,0.0,0.0,0.0,0.0,0.0,0.0,0.0,0.0,0.0,0.0,0.0,0.0,0.0,0.0,0.0,0.0,0.0,0.0,0.0,0.0,0.0,0.0,0.0,0.0,0.0,0.0,0.0,0.0,0.0,0.0,0.0,0.0,0.0,0.0,0.0,0.0,0.0,0.0,0.0,0.0,0.0,0.0,0.0,0.0,0.0,0.0,0.0,0.0,0.0,0.0,0.0,0.0,0.0,0.0,0.0,0.0,0.0,0.0,0.0,0.0,0.0,0.0,0.0,0.0,0.0,0.0,0.0,0.0,0.0,0.0,0.0,0.0,0.0,0.0,0.0,0.0,0.0,0.0,0.0,0.0,0.0,0.0,0.0,0.0,0.0,0.0,0.0,0.0,0.0,0.0,0.0,0.0,0.0,0.0,0.0,0.0,0.0,0.0,0.0,0.0,0.0,0.0,0.0,0.0,0.0,0.0,0.0,0.0,0.0,0.0,0.0,0.0,0.0,0.0,0.0,0.0,0.0,0.0,0.0,0.0,0.0,0.0,0.0,0.0,0.0,0.0,0.0,0.0,0.0,0.0,0.0,0.0,0.0,0.0,0.0]}],[{"header":{"parameterUnit":"kt","parameterCategory":2,"dx":1,"dy":1,"la1":29.587661999999998,"la2":31.0,"lo1":-88.76705300000003,"lo2":-86.6583820000003,"nx":115,"ny":88,"refTime":"2022-09-21T18:00:00:Z","depth":0,"parameterNumber":2,"parameterNumberName":"V-component_of_WINDS"},"data":[9.9732,9.9732,9.9732,9.9061,9.8084,9.7721,9.7587,9.7615,9.7414,9.7185,9.7185,9.7185,9.7185,9.7185,9.7185,9.7185,9.7185,9.7185,9.6246,9.5509,9.6743,9.6112,9.5777,9.6514,9.6715,9.6246,9.5844,9.6581,9.7213,9.6514,9.6313,9.6447,9.5174,9.4504,9.4504,9.4504,9.4437,9.4236,9.3766,9.2962,9.1488,9.0121,8.858,8.9075,9.0013,9.2359,9.4991,9.871,10.1958,10.491,10.7506,10.9325,11.0428,11.1049,11.153,11.16,11.1105,11.1457,11.1666,11.1095,11.1452,11.2451,11.2736,11.2736,11.3784,11.5544,11.6618,11.7255,11.917,12.0788,12.093,12.0826,11.9703,11.7855,11.6562,11.4531,11.2641,11.306,11.3645,11.4378,11.5833,11.7587,11.9092,12.1844,12.3674,12.5705,12.7868,12.8861,12.8862,12.9902,13.1223,13.0896,13.0553,13.1217,13.1477,13.1202,13.149,13.1728,13.1579,13.1016,13.1031,13.1922,13.1922,13.1031,13.1328,13.1774,13.1625,13.0957,13.1758,13.2278,13.2368,13.2368,13.2204,13.1833,13.1239,10.1273,10.1206,10.1206,10.1072,10.0737,9.9597,9.9061,9.886,9.7721,9.7252,9.7453,9.7386,9.7185,9.7185,9.7185,9.7185,9.7185,9.7185,9.7051,9.6715,9.6945,9.6112,9.5911,9.6179,9.5442,9.4772,9.4236,9.5308,9.6542,9.5107,9.4303,9.4705,9.3967,9.2962,9.2962,9.2962,9.3029,9.2761,9.2225,9.1354,9.0281,8.9209,8.8606,8.9343,9.0884,9.3096,9.5174,9.7919,10.0807,10.3571,10.6015,10.7644,10.8767,10.9456,11.0146,11.0541,11.0059,11.0895,11.1737,11.1095,11.1523,11.2165,11.2522,11.2928,11.3382,11.4624,11.5976,11.7437,11.9563,12.0802,12.0581,12.0115,11.8624,11.7038,11.6195,11.4972,11.3419,11.2215,11.2427,11.2521,11.4668,11.7202,11.9986,12.3661,12.5883,12.7796,12.9449,13.0545,13.1595,13.2291,13.2896,13.2775,13.2653,13.2096,13.1743,13.2022,13.26,13.2822,13.3209,13.2545,13.2145,13.2873,13.3095,13.2665,13.2517,13.2665,13.2665,13.3021,13.3392,13.3987,13.4061,13.4135,13.3838,13.3392,13.2798,10.3954,10.382,10.315,10.2278,10.1474,10.0804,10.0536,10.0268,9.9023,9.8793,9.9463,9.8793,9.8391,9.8391,9.7453,9.7185,9.7185,9.7185,9.6849,9.6514,9.6313,9.5978,9.6112,9.6313,9.5174,9.4571,9.4101,9.3766,9.4169,9.3163,9.2694,9.3297,9.2359,9.1555,9.1581,9.1555,9.1555,9.1488,9.1018,9.0214,8.9116,8.8848,8.8647,8.9477,9.0951,9.256,9.4705,9.6917,9.9262,10.1297,10.3338,10.4915,10.6091,10.684,10.7451,10.8157,10.8726,10.9136,11.0227,11.0453,11.0239,11.1452,11.2165,11.1911,11.2507,11.311,11.4389,11.5138,11.7259,11.9517,11.934,11.9376,11.8027,11.6951,11.6156,11.4583,11.28,11.2309,11.2993,11.3442,11.543,11.804,12.1109,12.4713,12.701,12.892,13.0907,13.2109,13.3265,13.411,13.4532,13.4689,13.4935,13.4539,13.364,13.3684,13.3881,13.4358,13.4894,13.4545,13.4268,13.4432,13.4655,13.4952,13.4952,13.4432,13.4507,13.5101,13.5546,13.5324,13.5472,13.5695,13.5398,13.4952,13.4729,10.5928,10.5861,10.4789,10.3649,10.2547,10.2144,10.201,10.1876,10.0833,10.1005,10.1608,10.0536,9.9664,9.9128,9.819,9.752,9.7319,9.7118,9.6447,9.6447,9.6648,9.6313,9.5442,9.6313,9.5777,9.5174,9.4772,9.4437,9.2761,9.189,9.1622,9.1957,9.075,9.0013,9.0013,9.0013,9.0013,9.0013,8.9879,8.9544,8.9652,8.9585,8.9518,9.0683,9.1756,9.3297,9.4437,9.6447,9.7855,9.9128,10.0469,10.1528,10.2706,10.3134,10.4272,10.5709,10.6636,10.8319,10.9525,11.0025,11.0096,11.1095,11.1358,11.1154,11.1236,11.1694,11.2286,11.2824,11.4135,11.6362,11.7783,11.7924,11.7713,11.6938,11.6164,11.3936,11.1612,11.2792,11.4255,11.5626,11.7164,11.9725,12.2506,12.53,12.7622,12.9891,13.2064,13.3464,13.4538,13.5141,13.5484,13.5615,13.6155,13.6286,13.6012,13.5711,13.5494,13.5784,13.5776,13.6203,13.6629,13.6199,13.5753,13.657,13.6867,13.6273,13.605,13.6645,13.6645,13.6496,13.6496,13.6348,13.6125,13.5918,13.6199,10.5928,10.5928,10.5794,10.5526,10.5362,10.4088,10.3649,10.3582,10.3381,10.3515,10.3314,10.204,10.067,10.0,9.9329,9.8592,9.8123,9.7855,9.7654,9.7118,9.7481,9.6648,9.6045,9.6179,9.571,9.4906,9.437,9.4034,9.1354,9.0013,8.992,9.0616,8.9343,8.8781,8.8848,8.8807,8.9276,8.9518,8.9812,9.0214,9.1152,9.1286,9.1085,9.2493,9.3565,9.4571,9.5241,9.638,9.7883,9.8793,9.9664,10.0134,10.1199,10.2018,10.3213,10.4346,10.5244,10.7175,10.871,10.9559,11.0102,11.0552,11.0431,10.9662,10.9559,11.0018,11.0729,11.1314,11.3053,11.5234,11.6893,11.7361,11.7475,11.7053,11.656,11.5364,11.377,11.3891,11.5023,11.5753,11.7476,12.0024,12.2757,12.4183,12.6379,13.1296,13.3675,13.4449,13.525,13.5776,13.5924,13.5924,13.611,13.6093,13.6149,13.622,13.6377,13.648,13.6417,13.6682,13.669,13.6771,13.6851,13.6851,13.6835,13.6851,13.6867,13.6793,13.6793,13.6867,13.6867,13.6867,13.6793,13.6645,13.6719,10.5928,10.5928,10.5928,10.5928,10.5861,10.5362,10.5124,10.5124,10.5093,10.5124,10.4892,10.3485,10.2576,10.1839,10.0938,10.0268,9.9693,9.9463,9.9061,9.8726,9.8592,9.752,9.6782,9.6715,9.5911,9.4705,9.4034,9.3565,9.1018,8.9276,8.8379,8.9209,8.8781,8.8312,8.8379,8.8647,8.925,9.0322,9.0992,9.1689,9.2091,9.2158,9.2828,9.3833,9.437,9.5375,9.6246,9.6676,9.7414,9.7883,9.8056,9.8391,9.8763,9.9316,10.0136,10.1409,10.2921,10.532,10.778,10.8564,10.9903,11.0472,10.972,10.8497,10.82,10.8511,10.9174,11.0371,11.2298,11.4202,11.5581,11.6868,11.6983,11.7194,11.6983,11.6772,11.6138,11.553,11.5716,11.6138,11.7879,12.0397,12.2274,12.3439,12.5944,13.0406,13.3089,13.402,13.4713,13.5413,13.5674,13.5967,13.5967,13.5931,13.5967,13.6021,13.6202,13.629,13.632,13.6423,13.6598,13.6608,13.6723,13.6771,13.6819,13.6835,13.6867,13.6867,13.6867,13.6867,13.6867,13.6867,13.6867,13.6867,13.6867,10.5928,10.5928,10.5928,10.5928,10.5928,10.5928,10.5928,10.5928,10.5928,10.5928,10.5898,10.4825,10.4051,10.3716,10.2681,10.1876,10.1541,10.1273,10.0737,10.0335,9.9933,9.9262,9.8659,9.8056,9.7185,9.5978,9.4437,9.3029,9.1219,8.9745,8.8982,8.8379,8.8312,8.8714,8.8982,8.9384,9.1219,9.2426,9.2493,9.3297,9.39,9.3699,9.4303,9.5107,9.571,9.6112,9.6782,9.7118,9.7213,9.7252,9.7252,9.7185,9.7185,9.7241,9.7409,9.8506,10.037,10.2906,10.5791,10.7141,10.8658,11.0082,10.8767,10.7454,10.7338,10.7551,10.7693,10.9477,11.1496,11.382,11.56,11.642,11.6772,11.7194,11.7687,11.7264,11.642,11.6279,11.7264,11.7687,11.832,12.0837,12.3681,12.4727,12.5658,12.9341,13.182,13.2736,13.3536,13.464,13.5237,13.5803,13.5968,13.595,13.5968,13.5913,13.5967,13.6021,13.611,13.6216,13.6372,13.6582,13.6665,13.669,13.6803,13.6851,13.6867,13.6867,13.6867,13.6867,13.6867,13.6867,13.6867,13.6867,13.6867,10.5928,10.5928,10.5928,10.5928,10.5928,10.5928,10.5928,10.5928,10.5928,10.5928,10.5928,10.5861,10.5124,10.4051,10.3783,10.3083,10.2211,10.1943,10.1675,10.1541,10.1474,10.1139,10.0603,9.9799,9.9128,9.8123,9.6246,9.3766,9.2761,9.0951,8.9611,8.8915,8.9049,8.9786,9.0858,9.1756,9.3163,9.4034,9.4236,9.4705,9.5576,9.5375,9.5643,9.6179,9.6782,9.6984,9.7386,9.752,9.7453,9.7453,9.7386,9.7319,9.7185,9.7185,9.7185,9.7703,9.8936,10.2015,10.4982,10.6542,10.8161,10.9266,10.7715,10.7904,10.7879,10.7738,10.8162,10.957,11.1869,11.3911,11.5645,11.6208,11.6842,11.7687,11.839,11.7968,11.7123,11.7475,11.8531,11.9094,11.9657,12.1347,12.419,12.5285,12.5736,12.9095,13.1536,13.2254,13.2724,13.3829,13.4927,13.556,13.5692,13.5803,13.5895,13.5913,13.595,13.6023,13.6021,13.6039,13.6251,13.6497,13.6548,13.6574,13.6739,13.6851,13.6851,13.6867,13.6867,13.6867,13.6867,13.6867,13.6867,13.6867,13.6867,10.4521,10.4655,10.5496,10.5928,10.5928,10.5928,10.5928,10.5928,10.5928,10.5928,10.5928,10.5928,10.5593,10.5325,10.5191,10.4624,10.449,10.4356,10.4155,10.3016,10.2979,10.2479,10.1742,10.0938,10.0678,9.9597,9.7252,9.5375,9.5347,9.2225,9.1018,9.1018,9.1286,9.1823,9.2935,9.3833,9.4906,9.5777,9.5844,9.6045,9.6581,9.6782,9.6648,9.7051,9.7357,9.7721,9.8324,9.8592,9.8659,9.8927,9.9061,9.9195,9.8084,9.7788,9.797,9.712,9.7771,9.9715,10.3035,10.4921,10.6685,10.8039,10.6489,10.6824,10.8459,10.838,10.9,11.0669,11.3348,11.4967,11.5927,11.7194,11.8039,11.9305,11.9798,11.9728,11.9165,11.9094,11.9869,11.9939,12.0502,12.2359,12.4401,12.489,12.5861,12.8644,13.1228,13.1521,13.1927,13.3266,13.453,13.4947,13.5217,13.5617,13.5877,13.5877,13.5913,13.5968,13.5968,13.595,13.6149,13.6325,13.6411,13.6514,13.6608,13.6755,13.6819,13.6867,13.6867,13.6867,13.6867,13.6867,13.6867,13.6867,13.6867,10.385,10.3917,10.5392,10.5928,10.5928,10.5928,10.5928,10.5928,10.5928,10.5928,10.5928,10.5928,10.5928,10.5928,10.5861,10.5794,10.5764,10.5928,10.5727,10.4557,10.449,10.3753,10.3023,10.2561,10.2033,10.0925,9.8554,9.6948,9.7712,9.4275,9.3069,9.2895,9.2761,9.39,9.5146,9.5777,9.638,9.7587,9.7453,9.7396,9.7674,9.7244,9.7177,9.7846,9.7674,9.8438,9.9758,9.9649,9.9775,9.9996,9.9461,9.9816,9.9463,9.7579,9.8028,9.7779,9.7281,9.8649,10.0862,10.3513,10.5228,10.5664,10.5653,10.64,10.8424,10.8819,11.0256,11.2108,11.4915,11.6234,11.656,11.7687,11.8813,12.008,12.008,12.008,12.0502,12.0502,12.0572,12.0572,12.0572,12.2051,12.3204,12.3681,12.6103,12.8913,13.0324,13.0766,13.1437,13.278,13.3917,13.4238,13.4867,13.5484,13.5877,13.5877,13.5895,13.5932,13.5895,13.5877,13.595,13.6039,13.6146,13.6268,13.6457,13.6657,13.6739,13.6803,13.6835,13.6867,13.6867,13.6867,13.6867,13.6867,13.6942,10.3716,10.3984,10.5294,10.5928,10.5727,10.5928,10.5928,10.5928,10.5928,10.5928,10.5928,10.6166,10.6166,10.6233,10.6666,10.68,10.6733,10.6537,10.6434,10.6238,10.6042,10.597,10.5141,10.4118,10.3231,10.2497,10.0265,9.8597,9.8998,9.5832,9.4996,9.4756,9.4807,9.5169,9.7089,9.7223,9.7893,9.8831,9.7769,9.8162,9.8418,9.7863,9.8159,9.8568,9.8688,9.942,10.0605,10.0819,10.0819,10.1036,10.0599,10.0488,10.0598,9.8752,9.833,9.8835,9.854,9.8805,9.9761,10.2196,10.3665,10.4232,10.4875,10.5885,10.7483,10.9089,11.0715,11.3112,11.6336,11.7986,11.8109,11.839,11.9235,11.9869,11.9305,11.9305,12.015,12.0572,12.0572,12.0572,12.0572,12.0784,12.1769,12.3345,12.6372,12.8273,12.9399,13.0315,13.1043,13.2077,13.292,13.3609,13.452,13.504,13.5334,13.5598,13.5877,13.5877,13.5877,13.5877,13.5932,13.5913,13.6003,13.611,13.6286,13.6507,13.6624,13.6755,13.6771,13.6787,13.6819,13.6867,13.6867,13.6942,13.7164,10.2144,10.2479,10.4892,10.5392,10.4655,10.5496,10.5928,10.5928,10.5898,10.5928,10.5995,10.7037,10.7439,10.7774,10.8378,10.8945,10.8716,10.859,10.8755,10.829,10.753,10.7038,10.6437,10.5578,10.4398,10.3691,10.1762,10.0801,10.1363,9.763,9.689,9.7347,9.7976,9.8155,9.9124,9.8658,9.8192,9.8525,9.8259,9.8666,9.9833,9.9471,9.967,9.984,9.9882,10.0613,10.1706,10.2074,10.2074,10.2233,10.2294,10.2125,10.1424,10.0728,10.0535,10.0178,9.9761,9.964,10.0521,10.2219,10.3787,10.3807,10.4198,10.5487,10.7585,10.9894,11.1601,11.3983,11.7354,11.9376,11.8179,11.9094,12.008,12.015,11.9587,11.9517,12.0291,12.0572,12.0572,12.0572,12.0784,12.0995,12.2148,12.3838,12.6372,12.8062,12.9188,13.019,13.0766,13.1385,13.2151,13.3016,13.4046,13.4541,13.4847,13.5372,13.5877,13.5877,13.5877,13.5877,13.5877,13.5895,13.5876,13.6003,13.6163,13.6355,13.6491,13.6608,13.6657,13.6706,13.6787,13.6867,13.6942,13.7239,13.7477,10.067,10.0938,10.382,10.4588,10.3917,10.5172,10.5713,10.5682,10.5589,10.5825,10.6497,10.7991,10.879,10.9023,10.9957,11.0356,11.0128,10.9902,10.99,10.9568,10.8909,10.8181,10.749,10.6697,10.5708,10.5705,10.3535,10.2648,10.3519,10.0781,9.9695,9.885,9.8804,9.9808,10.0231,9.9647,9.9683,9.9816,9.9719,9.9827,10.0792,10.0797,10.0598,10.1031,10.1066,10.1799,10.3018,10.3122,10.322,10.335,10.3447,10.3175,10.2605,10.1552,10.1225,10.1163,10.0818,10.0724,10.1221,10.2645,10.3931,10.4028,10.4414,10.5252,10.6876,11.0167,11.2444,11.4668,11.745,11.9074,11.8589,11.9629,12.0572,12.0572,12.0432,12.0361,12.0572,12.0572,12.0572,12.0572,12.0784,12.1276,12.2781,12.4358,12.6161,12.7921,12.8977,12.9907,13.0315,13.0847,13.1437,13.2201,13.3631,13.4301,13.4624,13.5198,13.5858,13.5877,13.5877,13.5877,13.5877,13.5877,13.5895,13.5986,13.6131,13.6181,13.632,13.6514,13.6574,13.6657,13.6755,13.691,13.7239,13.7536,13.8666,9.9396,9.9732,10.2614,10.382,10.3827,10.4925,10.5437,10.5672,10.5354,10.6056,10.7484,10.8876,10.9639,11.0104,11.0534,11.0736,11.0009,10.9875,10.981,10.9577,10.918,10.8474,10.7634,10.6745,10.623,10.69,10.4807,10.423,10.4751,10.1997,10.1114,10.0026,9.905,9.9319,9.9603,9.9668,9.9926,10.086,10.0806,10.1106,10.1673,10.1611,10.128,10.2044,10.2215,10.258,10.4189,10.4027,10.3863,10.4023,10.3495,10.2996,10.3485,10.2366,10.2007,10.2142,10.2052,10.1956,10.2121,10.3175,10.3931,10.4359,10.4885,10.5708,10.7028,11.0305,11.2732,11.4558,11.7186,11.8466,11.9019,11.9673,12.0395,12.0572,12.0572,12.0572,12.0572,12.0572,12.0572,12.0572,12.0995,12.1796,12.3063,12.5062,12.6865,12.8695,12.9822,12.9892,13.019,13.0315,13.0874,13.1515,13.3016,13.3786,13.4068,13.4665,13.5139,13.5276,13.5635,13.584,13.5858,13.5877,13.5877,13.595,13.6005,13.6021,13.611,13.6251,13.6389,13.6558,13.6838,13.7184,13.7529,13.8114,13.9483,9.9933,10.1072,10.2979,10.3632,10.3486,10.4766,10.5813,10.662,10.6557,10.7322,10.8582,10.9213,11.0076,11.0974,11.2004,11.169,11.0775,11.055,10.9908,10.8512,10.7405,10.6855,10.6498,10.5186,10.4458,10.4427,10.395,10.3288,10.2827,10.1843,10.0787,9.9561,9.8764,9.9187,9.9205,9.8976,9.9006,10.0489,10.0981,10.2054,10.3139,10.3074,10.3173,10.3338,10.3503,10.3602,10.4062,10.403,10.403,10.4095,10.3568,10.3633,10.4158,10.3302,10.3074,10.3173,10.324,10.3175,10.334,10.3603,10.3866,10.4096,10.4556,10.5542,10.7355,11.0408,11.2901,11.4243,11.6836,11.813,11.8834,11.9756,12.0342,12.0572,12.0572,12.0572,12.0572,12.0572,12.0572,12.0643,12.1136,12.2077,12.3767,12.5738,12.7498,12.9329,12.9892,12.9892,12.9879,12.9964,13.0302,13.0426,13.1695,13.2397,13.2875,13.3542,13.4259,13.4766,13.5465,13.5784,13.5858,13.5877,13.5877,13.5877,13.5895,13.5986,13.6021,13.6093,13.6181,13.6355,13.6656,13.7201,13.8,13.8766,14.0003,10.0678,10.1431,10.2933,10.3322,10.3216,10.5024,10.626,10.6861,10.7359,10.8416,10.9574,10.9907,11.077,11.1925,11.2268,11.1594,11.0134,10.9517,10.9049,10.8091,10.7208,10.6517,10.6031,10.4902,10.4605,10.4879,10.3784,10.2302,10.0548,9.9993,9.9532,9.8437,9.825,9.8498,9.9293,9.8463,9.8677,9.9432,10.0862,10.2454,10.3603,10.3931,10.3931,10.3931,10.3964,10.3964,10.403,10.3997,10.3997,10.3997,10.3997,10.3997,10.3997,10.3997,10.3997,10.3997,10.3997,10.3997,10.3997,10.3931,10.3997,10.3997,10.4227,10.5082,10.7189,10.9775,11.207,11.3603,11.6122,11.748,11.7866,11.941,12.018,12.0572,12.0572,12.0572,12.0572,12.0572,12.0572,12.0854,12.1276,12.2852,12.4569,12.6231,12.7893,12.9272,12.9835,12.9764,12.9764,12.9764,12.9764,12.9863,13.0564,13.1273,13.1877,13.2733,13.3631,13.4322,13.504,13.5709,13.5803,13.5877,13.5877,13.5877,13.5877,13.5913,13.5931,13.6003,13.6093,13.6198,13.6303,13.7453,13.8511,13.9352,14.1183,10.1542,10.1666,10.2933,10.3318,10.3573,10.5571,10.6599,10.716,10.8211,10.9222,11.0256,11.0671,11.1228,11.1591,11.1021,10.9543,10.824,10.7613,10.7337,10.6739,10.6332,10.6109,10.6354,10.5253,10.4987,10.5107,10.3652,10.1294,9.9423,9.885,9.8077,9.6945,9.6782,9.7242,9.8013,9.7727,9.8942,9.9464,10.0638,10.2163,10.3668,10.3997,10.3997,10.3997,10.3997,10.3997,10.3997,10.3997,10.3997,10.3997,10.3997,10.3997,10.3997,10.3997,10.3997,10.3997,10.3997,10.3997,10.3997,10.3997,10.3997,10.3997,10.4359,10.5082,10.6957,10.9233,11.1213,11.2457,11.4807,11.6253,11.6751,11.8691,11.9893,12.0137,12.0315,12.0572,12.0572,12.0572,12.0572,12.0854,12.2197,12.3728,12.4994,12.657,12.8118,12.9032,12.9707,12.9707,12.9678,12.9649,12.9649,12.985,13.0426,13.0756,13.1281,13.2274,13.3106,13.3822,13.4705,13.5522,13.5673,13.5877,13.5877,13.5877,13.5877,13.5895,13.595,13.5931,13.6003,13.6388,13.6994,13.7908,13.906,14.0718,14.2418,10.3092,10.4192,10.4458,10.5033,10.5737,10.6367,10.7688,10.9428,10.9848,10.9968,11.0089,11.008,10.9651,10.8858,10.8201,10.7297,10.5747,10.5624,10.4922,10.4206,10.3824,10.3629,10.3501,10.3114,10.3329,10.3976,10.2658,10.1121,9.9146,9.8727,9.7258,9.6023,9.514,9.5278,9.5574,9.6006,9.7409,9.8498,9.978,10.1335,10.3336,10.3997,10.3997,10.3997,10.3997,10.3997,10.3997,10.3997,10.3997,10.3997,10.3997,10.3997,10.3997,10.3997,10.3997,10.3997,10.3997,10.3997,10.403,10.4096,10.4063,10.4293,10.5082,10.6266,10.7744,10.9093,11.0969,11.2434,11.4142,11.507,11.5423,11.742,11.8662,11.9158,11.9811,12.0475,12.0369,12.0449,12.0449,12.1564,12.3212,12.4322,12.5178,12.6652,12.8278,12.923,12.933,12.933,12.9417,12.9376,12.9521,12.985,13.0078,13.026,13.082,13.1776,13.285,13.3558,13.4343,13.5407,13.5654,13.5877,13.5877,13.5877,13.5877,13.5877,13.5877,13.5913,13.6189,13.6705,13.7533,13.8693,14.0297,14.1957,14.3413,10.4104,10.4706,10.4706,10.5342,10.6335,10.706,10.854,11.0273,11.0253,11.0144,10.9818,10.9113,10.8264,10.7455,10.6699,10.5295,10.4061,10.3739,10.3286,10.2698,10.2497,10.2497,10.2524,10.2481,10.2497,10.2497,10.2333,10.1403,9.9685,9.9445,9.8111,9.6094,9.5496,9.5137,9.4618,9.4498,9.5495,9.6628,9.775,9.9016,10.0382,10.2292,10.327,10.3701,10.3997,10.3997,10.3997,10.3997,10.3997,10.3997,10.3997,10.3997,10.3997,10.4063,10.4359,10.4819,10.4424,10.4227,10.4885,10.4293,10.449,10.495,10.5608,10.6529,10.7515,10.9225,11.0606,11.1744,11.3036,11.451,11.451,11.6373,11.742,11.7837,11.8748,11.941,11.9728,12.0137,12.085,12.1736,12.3424,12.4756,12.5553,12.6837,12.8357,12.8846,12.8846,12.8936,12.9124,12.9172,12.9347,12.955,12.9822,13.0021,13.0288,13.1572,13.285,13.3357,13.4089,13.5198,13.5692,13.584,13.5877,13.5877,13.5877,13.5877,13.5877,13.5877,13.6466,13.7,13.8051,13.9324,14.1262,14.2997,14.4179,10.4743,10.4651,10.4651,10.5543,10.6923,10.7799,10.8936,11.017,10.9719,10.9456,10.8922,10.7716,10.6921,10.6196,10.5066,10.3867,10.2959,10.2742,10.2568,10.2497,10.2497,10.2497,10.2497,10.2497,10.2497,10.2497,10.2437,10.1735,10.0642,10.0403,9.9026,9.7351,9.6633,9.6035,9.5137,9.4599,9.48,9.5928,9.7173,9.7832,9.886,10.0493,10.2302,10.3171,10.3336,10.3569,10.3767,10.3997,10.4128,10.4293,10.4096,10.4359,10.4786,10.4687,10.5213,10.5937,10.5608,10.5575,10.62,10.5476,10.5542,10.6134,10.6989,10.712,10.7646,10.929,11.0869,11.1643,11.2897,11.4075,11.421,11.5394,11.6128,11.6596,11.739,11.8374,11.8846,11.9745,12.0861,12.1953,12.369,12.5257,12.6102,12.7182,12.8138,12.8426,12.8426,12.8556,12.8697,12.8936,12.9142,12.9347,12.9592,12.9707,12.9892,13.1314,13.259,13.306,13.3909,13.51,13.5747,13.584,13.5877,13.5877,13.5877,13.5877,13.5877,13.5877,13.6466,13.7498,13.8622,13.9765,14.1722,14.3698,14.4919,10.4819,10.5905,10.5905,10.7385,10.9346,10.8479,10.8677,10.9709,10.855,10.7178,10.587,10.5542,10.4691,10.3544,10.3028,10.2829,10.2437,10.2497,10.2497,10.2497,10.2497,10.2497,10.2497,10.2497,10.2497,10.2497,10.2497,10.1958,10.1001,10.0403,10.0044,9.8548,9.7351,9.6932,9.6255,9.5297,9.5381,9.6535,9.7757,9.8482,9.9086,10.022,10.1364,10.1959,10.1983,10.2531,10.3503,10.403,10.4523,10.5674,10.4687,10.5377,10.6529,10.6726,10.6463,10.781,10.7445,10.7345,10.7542,10.7545,10.7413,10.7876,10.8862,10.9553,10.9882,11.0934,11.1789,11.2294,11.2465,11.3009,11.2939,11.4042,11.4742,11.5035,11.6096,11.7329,11.8466,11.961,12.085,12.2212,12.4112,12.5547,12.6514,12.7369,12.7703,12.8067,12.8067,12.8159,12.8395,12.8667,12.8965,12.9172,12.9505,12.9649,12.9879,13.1043,13.2201,13.2874,13.3844,13.4867,13.5747,13.5821,13.5877,13.5877,13.5877,13.5877,13.5877,13.595,13.6687,13.8013,13.9266,14.0833,14.2512,14.4304,14.5044,10.5476,10.6233,10.6989,10.7954,10.8811,10.8216,10.8174,10.8268,10.6921,10.5706,10.4942,10.3952,10.32,10.2437,10.2497,10.2497,10.2497,10.2497,10.2497,10.2497,10.2497,10.2497,10.2497,10.2497,10.2497,10.2497,10.2497,10.2632,10.2377,10.2018,10.1556,10.1539,10.0403,9.9326,9.8607,9.8129,9.7726,9.8057,9.8461,9.8785,9.8946,9.9711,10.0122,10.0171,10.044,10.116,10.2695,10.3419,10.4608,10.5074,10.3617,10.3613,10.6501,10.6355,10.6701,10.8077,10.8173,10.7912,10.8339,10.8208,10.8147,10.8975,10.9701,11.0134,11.0667,11.1759,11.2416,11.2548,11.2548,11.2548,11.2583,11.3221,11.3359,11.3702,11.4676,11.5902,11.7315,11.9144,12.1008,12.2827,12.4703,12.5926,12.6769,12.7542,12.7905,12.7974,12.7974,12.7974,12.8213,12.8426,12.8727,12.8995,12.9289,12.9621,12.978,13.0548,13.1674,13.2803,13.4025,13.5178,13.5728,13.5784,13.5858,13.5877,13.5877,13.5877,13.5877,13.6098,13.654,13.8382,14.0298,14.1973,14.3412,14.4576,14.5372,10.6295,10.658,10.7723,10.8018,10.7736,10.7414,10.7134,10.6779,10.5191,10.4398,10.4103,10.3028,10.2481,10.2497,10.2497,10.2497,10.2497,10.2497,10.2497,10.2497,10.2497,10.2497,10.2497,10.2497,10.2616,10.2932,10.2872,10.353,10.4307,10.3948,10.3829,10.4367,10.3111,10.2154,10.0941,10.0223,9.9804,9.8787,9.8745,9.8769,9.8647,9.8885,9.8966,9.8658,9.9146,10.0079,10.1289,10.2129,10.3246,10.3772,10.269,10.3016,10.5995,10.6135,10.7066,10.8764,10.8794,10.8628,10.9279,10.8989,10.8735,10.9998,11.0295,11.0306,11.0654,11.1703,11.2133,11.2299,11.2371,11.2371,11.2406,11.2477,11.2852,11.3428,11.4195,11.5181,11.6614,11.9035,12.1494,12.3398,12.5199,12.673,12.7666,12.7843,12.7843,12.7912,12.7912,12.7912,12.7997,12.8182,12.8426,12.8667,12.8965,12.9271,12.9521,13.0105,13.1443,13.2709,13.4385,13.5821,13.5635,13.5635,13.5821,13.5877,13.5877,13.5877,13.5877,13.6171,13.735,13.9192,14.1108,14.2784,14.4183,14.4827,14.5623,10.6728,10.7756,10.7821,10.7794,10.7298,10.5947,10.5377,10.4922,10.3526,10.2872,10.2829,10.2568,10.2497,10.2497,10.2497,10.2497,10.2497,10.2497,10.2497,10.2497,10.2497,10.2485,10.2501,10.2517,10.3098,10.4023,10.4188,10.492,10.5638,10.5877,10.5937,10.5891,10.492,10.3589,10.2529,10.1317,9.9924,9.9181,9.942,9.9292,9.8637,9.8773,9.856,9.7997,9.8601,9.9192,9.9476,9.941,9.936,10.0687,10.1862,10.3499,10.6073,10.6933,10.8196,11.0118,11.0537,11.0537,11.0935,11.0602,11.0841,11.0877,11.1044,11.1211,11.1254,11.1392,11.1653,11.1653,11.1833,11.1977,11.2049,11.2401,11.3165,11.4258,11.4521,11.5653,11.756,11.9943,12.1982,12.3256,12.592,12.7372,12.7912,12.7912,12.7912,12.7912,12.7912,12.7912,12.7974,12.8059,12.8243,12.8426,12.8667,12.8946,12.9289,12.9808,13.1209,13.247,13.4196,13.531,13.5119,13.5465,13.5654,13.5877,13.5877,13.5877,13.6098,13.7277,13.8603,14.0224,14.1605,14.3427,14.4974,14.5416,14.5563,10.8355,10.7923,10.8788,10.7926,10.6012,10.5253,10.4398,10.3501,10.2742,10.2497,10.2497,10.2497,10.2497,10.2497,10.2497,10.2497,10.2497,10.2497,10.2497,10.2497,10.2453,10.2564,10.2745,10.2789,10.3622,10.4918,10.5037,10.5994,10.7027,10.6366,10.6871,10.754,10.6825,10.5514,10.4189,10.383,10.2844,10.0791,10.0617,10.0534,9.9679,9.9401,9.8739,9.8424,9.7193,9.701,9.7371,9.7682,9.7446,9.7285,9.8465,10.1012,10.4512,10.5858,10.7752,11.0376,11.07,11.07,11.07,11.07,11.0811,11.0995,11.1069,11.1179,11.1325,11.1398,11.1398,11.1362,11.1507,11.1616,11.1819,11.2763,11.4167,11.5457,11.5491,11.5858,11.7306,11.9309,12.1133,12.3095,12.5131,12.6825,12.785,12.7881,12.7912,12.7912,12.7912,12.7912,12.7912,12.7936,12.809,12.8304,12.8516,12.8547,12.8817,12.9611,13.0927,13.1704,13.3106,13.4269,13.45,13.506,13.5426,13.571,13.584,13.6098,13.6908,13.794,13.9561,14.1089,14.2175,14.3575,14.4827,14.5563,14.5563,10.873,10.7265,10.8245,10.7041,10.4524,10.4272,10.3526,10.2524,10.2497,10.2497,10.2497,10.2497,10.2497,10.2497,10.2497,10.2497,10.2497,10.2497,10.2497,10.2393,10.2218,10.2418,10.2931,10.3326,10.4382,10.5664,10.5901,10.6726,10.8242,10.7202,10.7549,10.9317,10.8202,10.7015,10.5651,10.551,10.4321,10.1958,10.1351,10.104,10.0655,9.977,9.9211,9.9035,9.7507,9.6315,9.5662,9.6642,9.6438,9.5199,9.6823,9.9882,10.3427,10.5573,10.7767,10.9801,11.0252,11.0215,11.0215,11.0252,11.0364,11.0625,11.0625,11.0774,11.1069,11.1069,11.1069,11.1105,11.1216,11.1382,11.1939,11.3043,11.4513,11.6147,11.6884,11.7273,11.8014,11.9067,12.0751,12.2886,12.4626,12.627,12.7436,12.7912,12.7912,12.7912,12.7912,12.7912,12.7912,12.7974,12.7936,12.8151,12.8243,12.8213,12.8477,12.9525,13.0324,13.1007,13.1955,13.3132,13.3675,13.4374,13.498,13.5781,13.6039,13.6963,13.7792,13.91,14.0647,14.2415,14.3354,14.4164,14.5195,14.5563,14.5563,10.6895,10.5192,10.5253,10.4398,10.2829,10.2742,10.2655,10.2497,10.2497,10.2497,10.2497,10.2497,10.2497,10.2497,10.235,10.235,10.2453,10.2366,10.2322,10.2266,10.1795,10.2059,10.3176,10.4145,10.531,10.6512,10.663,10.7433,10.8687,10.8367,10.8792,10.8803,10.8496,10.7492,10.5425,10.5012,10.3863,10.1438,10.0725,10.0546,10.0293,9.9712,9.9485,9.9427,9.9019,9.7899,9.6296,9.6193,9.6192,9.6416,9.8968,10.1615,10.3843,10.6366,10.8337,11.0021,11.0215,11.0215,11.0215,11.0215,11.0252,11.029,11.029,11.0252,11.0364,11.0439,11.0504,11.066,11.0856,11.1495,11.2505,11.3583,11.4421,11.5826,11.7104,11.8248,11.9129,11.973,12.0695,12.2501,12.4523,12.6071,12.7404,12.785,12.7881,12.7912,12.7912,12.7912,12.7912,12.7912,12.7943,12.7974,12.8036,12.7997,12.8059,12.9043,12.9611,13.0269,13.1007,13.188,13.2566,13.3502,13.4205,13.562,13.6621,13.7661,13.8953,14.0794,14.247,14.3501,14.4311,14.5121,14.5563,14.5563,14.5563,10.658,10.5046,10.4963,10.4037,10.2481,10.2497,10.2497,10.2497,10.2497,10.2497,10.2497,10.2497,10.2497,10.235,10.2087,10.1939,10.1895,10.169,10.2032,10.261,10.2142,10.2516,10.3762,10.4713,10.5953,10.7296,10.7568,10.8054,10.8814,10.8573,10.838,10.8204,10.7509,10.6217,10.4736,10.4675,10.3484,10.1151,10.1159,10.0945,10.0029,9.9672,9.9536,9.942,9.8722,9.785,9.7094,9.6964,9.5932,9.4794,9.8459,10.2741,10.6025,10.649,10.7758,10.9597,11.0215,11.0215,11.0215,11.015,11.0215,11.0215,11.0215,11.0215,11.0215,11.0215,11.073,11.1374,11.1617,11.2053,11.2801,11.4334,11.5383,11.506,11.5319,11.5048,11.5035,11.5318,11.6997,12.014,12.1987,12.3846,12.5927,12.7082,12.7912,12.7912,12.7912,12.7912,12.7912,12.7912,12.7912,12.7912,12.7912,12.7912,12.7943,12.8365,12.8925,12.9525,13.0159,13.0919,13.2109,13.3118,13.448,13.5949,13.7593,13.8713,14.0477,14.2411,14.3648,14.4385,14.5121,14.549,14.5563,14.5563,14.5563,10.5706,10.4229,10.4145,10.3441,10.2481,10.2497,10.2497,10.2497,10.2497,10.2497,10.2497,10.2497,10.235,10.2174,10.1851,10.1587,10.1469,10.1362,10.1693,10.2411,10.2558,10.3296,10.4429,10.5077,10.6232,10.7573,10.7846,10.8041,10.8235,10.7992,10.7564,10.7154,10.6336,10.505,10.3413,10.3622,10.2717,10.0477,10.0958,10.0833,9.9698,9.9536,9.9536,9.942,9.8664,9.7921,9.7514,9.6803,9.5436,9.3645,9.6906,10.1042,10.4876,10.5491,10.6417,10.8493,10.8889,10.8954,10.9404,10.9533,10.9662,11.015,11.0215,11.0215,11.0215,11.0215,11.0665,11.14,11.1696,11.1954,11.2572,11.448,11.4906,11.3951,11.3332,11.3371,11.3603,11.3345,11.472,11.7756,12.036,12.2448,12.4587,12.6848,12.7812,12.7912,12.7912,12.7912,12.7912,12.7912,12.7912,12.7912,12.7912,12.7912,12.7943,12.8121,12.8456,12.8777,12.9566,13.0285,13.1941,13.3322,13.5039,13.6711,13.8414,14.0099,14.1986,14.349,14.4345,14.5121,14.5357,14.543,14.5544,14.5563,14.5563,10.3976,10.2655,10.2437,10.2524,10.2393,10.2453,10.2497,10.2497,10.2497,10.2453,10.235,10.2393,10.2131,10.1719,10.1543,10.1321,10.1067,10.1179,10.1407,10.192,10.2816,10.4039,10.533,10.5514,10.6319,10.7358,10.7308,10.7358,10.7407,10.7232,10.6659,10.5679,10.533,10.3923,10.1606,10.1757,10.1012,9.9976,9.986,9.9698,9.9536,9.9536,9.9536,9.9536,9.9303,9.8664,9.7456,9.5393,9.4741,9.5477,9.5357,9.6893,10.0974,10.2935,10.4357,10.5958,10.6148,10.6792,10.785,10.808,10.8696,10.9662,11.015,11.0086,11.015,11.0215,11.0343,11.0628,11.073,11.0988,11.2147,11.2572,11.2534,11.2469,11.3139,11.3654,11.3976,11.4234,11.502,11.6594,11.9858,12.2817,12.3872,12.575,12.7434,12.7635,12.7773,12.7912,12.7912,12.7912,12.7912,12.7912,12.7912,12.7912,12.7912,12.7912,12.7943,12.8159,12.9124,13.0501,13.2332,13.4339,13.6101,13.7992,13.9739,14.071,14.2538,14.3785,14.4685,14.4967,14.5256,14.5289,14.5383,14.5383,14.5444,10.2725,10.2027,10.2306,10.2218,10.1999,10.2306,10.2497,10.2497,10.2497,10.2218,10.1939,10.1895,10.169,10.1247,10.0876,10.0473,10.0094,10.0126,10.1094,10.2769,10.3235,10.4573,10.6387,10.6678,10.691,10.7201,10.7367,10.7367,10.7201,10.6387,10.5805,10.5224,10.3537,10.2257,10.1617,10.1443,10.0861,9.9989,10.0454,10.0396,9.9594,9.9536,9.9536,9.942,9.8664,9.7675,9.6485,9.5612,9.4749,9.388,9.5756,9.7007,9.7094,10.0193,10.3267,10.5545,10.5891,10.6148,10.6599,10.6663,10.7243,10.8595,10.8788,10.9276,11.015,11.0215,11.0692,11.14,11.1658,11.1722,11.2147,11.1503,11.0923,11.0988,11.1272,11.1632,11.1632,11.1594,11.1897,11.3147,11.6391,11.9069,12.063,12.3966,12.597,12.6286,12.7288,12.7843,12.7912,12.7912,12.7912,12.7912,12.7912,12.7912,12.7912,12.7912,12.7943,12.8591,12.9474,13.1376,13.3284,13.544,13.7448,13.9377,14.0719,14.1555,14.2628,14.3837,14.4386,14.4459,14.4705,14.4939,14.5001,14.5043,14.5281,10.2131,10.1675,10.1867,10.1779,10.1514,10.1779,10.197,10.197,10.197,10.1735,10.1514,10.141,10.1203,10.0697,9.9311,9.8499,9.8244,9.8664,9.9989,10.185,10.249,10.3875,10.5747,10.5863,10.6145,10.6445,10.6096,10.5863,10.5805,10.5573,10.4933,10.3886,10.313,10.2083,10.1094,10.121,10.0861,9.971,10.0292,10.0396,9.9594,9.9536,9.9245,9.878,9.7152,9.5917,9.5146,9.4681,9.3648,9.202,9.4501,9.5288,9.411,9.6972,10.0323,10.3173,10.4124,10.4704,10.5054,10.5183,10.5762,10.7114,10.7307,10.7886,10.9082,10.9469,11.0048,11.1207,11.1529,11.1632,11.1438,11.0794,11.0215,11.0215,11.0279,11.0343,11.0215,11.0215,11.0408,11.116,11.2683,11.5828,11.8838,12.2402,12.5137,12.6263,12.7288,12.7773,12.7912,12.7912,12.7912,12.7912,12.7912,12.7912,12.7912,12.7912,12.8005,12.8783,13.0075,13.1912,13.389,13.6013,13.8279,14.0174,14.0513,14.126,14.263,14.3754,14.3964,14.4059,14.4194,14.4393,14.4459,14.4812,14.5022,10.2087,10.1587,10.1203,10.1084,10.1084,10.101,10.101,10.0937,10.0877,10.0833,10.067,10.0729,10.0521,9.9779,9.7274,9.5888,9.6077,9.7036,9.8257,9.9594,10.0861,10.2083,10.3293,10.341,10.4108,10.5165,10.4282,10.3701,10.3701,10.4584,10.4002,10.1908,10.3711,10.3188,10.0512,10.0861,10.0745,9.9652,9.9594,9.9536,9.9536,9.942,9.8735,9.7528,9.5233,9.4056,9.3866,9.266,9.1978,9.1877,9.212,9.2078,9.2088,9.3586,9.5928,9.8797,10.0716,10.231,10.3474,10.3702,10.4346,10.5569,10.5827,10.647,10.7758,10.8144,10.8788,10.9984,10.9919,10.9855,10.9855,10.9791,10.9919,10.9919,11.0086,11.0215,11.0215,11.0215,11.0859,11.1605,11.1316,11.2908,11.7853,12.1439,12.4277,12.6392,12.7704,12.7912,12.7912,12.7912,12.7912,12.7912,12.7912,12.7843,12.7773,12.7427,12.7496,12.7765,12.9175,13.212,13.4191,13.63,13.8726,14.0474,14.0194,14.0754,14.2421,14.3072,14.2851,14.2822,14.2792,14.3294,14.3262,14.4122,14.4559,10.1336,10.1158,10.0711,10.0532,10.0459,9.9889,9.9667,9.9549,9.8649,9.8062,9.7713,9.767,9.7451,9.6938,9.6223,9.5786,9.5844,9.6135,9.6964,9.8199,9.9478,10.0745,10.2024,10.2897,10.3642,10.3875,10.3526,10.3351,10.3468,10.3828,10.3595,10.2944,10.2606,10.1966,10.0977,10.0279,9.993,9.9536,9.9536,9.9536,9.9316,9.8347,9.7528,9.695,9.4636,9.3522,9.3823,9.2601,9.1793,9.1397,9.1354,9.1227,9.1014,9.2497,9.3734,9.4859,9.7688,10.0322,10.2251,10.242,10.2965,10.4153,10.4346,10.499,10.6342,10.75,10.8273,10.853,10.7693,10.7215,10.7243,10.8015,10.8595,10.8723,10.9662,11.0215,11.0215,11.0215,11.0408,11.073,11.0499,11.1356,11.4229,11.8606,12.2535,12.4486,12.6455,12.7912,12.7912,12.7912,12.7912,12.7912,12.7912,12.7427,12.6455,12.6247,12.5554,12.5887,12.8464,13.1149,13.165,13.5454,13.8601,13.9201,13.8795,13.904,14.0006,13.9764,13.9379,13.9547,13.9571,13.9957,14.1496,14.1876,14.2565,10.064,10.0006,10.0207,9.9865,9.9146,9.8183,9.7787,9.7684,9.7009,9.6483,9.6062,9.5069,9.4488,9.4273,9.4215,9.4172,9.4273,9.4273,9.487,9.6047,9.6848,9.8185,9.9768,10.0745,10.1675,10.2537,10.2083,10.2083,10.2432,10.2024,10.1792,10.1792,10.2246,10.1675,10.0745,10.0454,10.0047,9.9536,9.9536,9.9063,9.8119,9.6692,9.5693,9.5046,9.3159,9.2253,9.2395,9.1817,9.1285,9.0971,9.0929,9.0801,9.0586,9.1408,9.2231,9.2999,9.5274,9.7801,10.0588,10.0865,10.1496,10.2865,10.2965,10.3609,10.4925,10.5827,10.6342,10.6342,10.6148,10.5955,10.602,10.6663,10.7243,10.7371,10.8466,10.934,10.9404,10.9855,11.0215,11.0215,11.0215,11.0523,11.1993,11.618,12.0186,12.3041,12.5276,12.6802,12.701,12.7565,12.7843,12.7843,12.7288,12.6386,12.4999,12.4583,12.4236,12.4386,12.7371,13.0516,13.1256,13.4242,13.7087,13.7809,13.7328,13.7112,13.7521,13.7809,13.7809,13.8003,13.793,13.8124,13.9379,13.9834,14.0219,9.9608,9.8432,9.9325,9.8939,9.7371,9.6135,9.5655,9.5655,9.5539,9.5437,9.5131,9.295,9.202,9.1903,9.1264,9.0856,9.0856,9.0449,9.0915,9.2469,9.2935,9.4521,9.7049,9.7514,9.8838,10.0687,10.0117,10.0292,10.121,10.0221,9.9652,10.0001,10.1978,10.1873,9.9979,10.056,10.0548,9.9399,9.9212,9.8061,9.609,9.4694,9.3492,9.2492,9.1245,9.0501,9.0744,9.0601,9.0601,9.0501,9.0501,9.0458,9.0415,9.0472,9.1084,9.2439,9.3204,9.5018,9.8238,9.9005,9.9979,10.1527,10.1766,10.2345,10.3439,10.3403,10.3374,10.3689,10.4689,10.5168,10.5497,10.5561,10.5726,10.5827,10.705,10.7886,10.8015,10.8981,10.9855,10.9919,10.9818,11.0048,11.0662,11.4071,11.8159,12.1562,12.384,12.5384,12.5454,12.6525,12.7396,12.6956,12.6194,12.4669,12.3433,12.3017,12.2531,12.2928,12.6682,12.894,13.0217,13.2513,13.5523,13.6076,13.6029,13.574,13.6606,13.7376,13.716,13.6751,13.6823,13.7256,13.7377,13.781,13.8098,9.6749,9.6428,9.6719,9.6573,9.6135,9.4855,9.4331,9.4215,9.3183,9.2834,9.2718,9.2252,9.1962,9.1438,8.6708,8.4652,8.3895,7.9339,7.9979,8.4729,8.597,8.9361,9.4463,9.6745,9.7908,9.8431,9.9245,9.9652,9.993,9.9652,10.0001,10.0989,10.1197,10.088,9.9975,9.9284,9.872,9.8375,9.6626,9.5206,9.4231,9.2989,9.2192,9.1806,9.061,9.0156,9.0544,9.0601,9.0372,9.0026,8.9983,8.9853,8.9606,8.9506,8.968,9.0142,9.1645,9.2999,9.3958,9.6598,9.9052,10.0759,10.0964,10.1234,10.1638,10.0594,10.0163,10.122,10.1703,10.2065,10.2471,10.3147,10.3932,10.431,10.5569,10.6406,10.637,10.6444,10.6949,10.8263,10.8307,10.872,11.0339,11.3067,11.585,11.8388,12.1482,12.359,12.3958,12.5137,12.517,12.4101,12.3294,12.262,12.1749,12.0669,11.9975,11.9825,12.2499,12.5074,12.7421,13.0243,13.2891,13.4104,13.3911,13.4079,13.4152,13.4296,13.444,13.4585,13.4585,13.444,13.4585,13.5378,13.6077,9.404,9.4157,9.4739,9.4564,9.4099,9.3924,9.3575,9.2601,8.853,8.7017,8.7832,9.0682,9.1962,9.1613,8.8297,8.6766,8.665,8.312,8.3411,8.6708,8.7425,8.9984,9.3765,9.5059,9.5855,9.6434,9.695,9.7541,9.797,9.797,9.8663,9.9819,9.9655,9.9421,9.9129,9.7936,9.7248,9.7134,9.1613,8.8247,8.7381,8.4489,8.2635,8.2068,8.2011,8.2017,8.2295,8.1725,8.1266,8.0991,8.0991,8.1988,8.3893,8.4021,8.5093,8.738,8.8767,8.9504,8.9504,9.2287,9.5022,9.7482,9.8291,9.8741,9.8776,9.7838,9.7739,9.8579,9.8741,9.9066,9.9943,10.068,10.1454,10.2243,10.3768,10.471,10.4838,10.5152,10.5922,10.6729,10.7371,10.804,10.8923,11.1602,11.4103,11.5649,11.8155,12.0583,12.1675,12.2565,12.2321,12.0359,12.034,12.0345,11.969,11.8596,11.8241,11.8698,12.1068,12.3494,12.549,12.9161,13.1759,13.283,13.307,13.3189,13.3213,13.3213,13.3213,13.3213,13.3213,13.3213,13.3213,13.3791,13.4368,9.1438,9.1496,9.2644,9.1903,9.0158,9.1205,9.0566,8.8355,8.374,8.2169,8.3507,8.8995,9.138,9.1322,9.0408,9.0042,8.9984,8.9071,8.9163,9.025,9.0167,9.1329,9.3361,9.3147,9.3608,9.4603,9.4523,9.4989,9.5861,9.5976,9.6549,9.7524,9.7775,9.7786,9.7671,9.6549,9.5405,9.4032,8.6062,8.1538,8.0861,7.6968,7.3864,7.1833,7.3131,7.3187,7.2058,7.1212,7.0387,7.0083,7.0083,7.1946,7.6065,7.6403,7.8491,8.299,8.3711,8.4199,8.4694,8.6631,8.9192,9.241,9.4593,9.5143,9.4183,9.469,9.5362,9.589,9.6242,9.6785,9.7936,9.8225,9.8862,10.0242,10.1802,10.2848,10.304,10.4181,10.5023,10.5098,10.6435,10.7105,10.7783,11.0233,11.272,11.4243,11.6377,11.7749,11.9497,11.975,11.8702,11.7347,11.7768,11.8186,11.7895,11.7041,11.7049,11.8279,12.0727,12.2758,12.4165,12.7731,13.0449,13.1577,13.1822,13.2108,13.2274,13.2491,13.2202,13.213,13.213,13.2346,13.2635,13.2419,13.2419,8.8762,8.8762,8.8995,8.597,8.091,8.1143,7.8118,7.3697,8.2771,0.0,0.0,8.8239,8.8762,8.8355,8.3237,8.091,8.0524,7.5038,7.5846,8.1738,8.1567,8.4899,9.1088,9.2194,9.2725,9.3012,9.3943,9.4575,9.4804,9.4759,9.4874,9.5161,9.5623,9.5952,9.5906,9.5263,9.1468,8.4664,8.2692,8.3175,8.5869,8.6208,8.3175,7.6798,7.7927,7.5707,6.9757,7.014,6.9598,6.7624,6.7544,6.7906,6.8752,6.8808,7.014,7.2961,7.3259,7.4651,7.7741,7.9617,8.2152,8.5838,8.9788,9.0105,8.5423,8.9298,9.2483,9.3715,9.485,9.562,9.6221,9.6319,9.6994,9.877,9.9222,9.993,10.1014,10.1468,10.2249,10.3488,10.382,10.4641,10.7048,10.9493,11.1831,11.3775,11.5875,11.7982,11.8606,11.7749,11.6644,11.6214,11.6353,11.6613,11.6671,11.592,11.5535,11.7034,11.8206,11.9405,12.125,12.4265,12.6588,12.7669,12.8296,12.9036,12.9268,12.9531,12.9314,12.9337,12.9337,12.9698,13.0758,13.0253,12.9458,8.6494,8.7076,8.7076,8.568,0.0,8.3353,7.6431,6.5582,7.2501,7.7167,8.0209,8.2408,8.3359,8.319,8.1297,8.0024,7.9014,7.7212,7.7771,8.0515,8.133,8.3765,8.7409,8.9357,9.0285,9.0343,9.1381,9.216,9.2685,9.2685,9.1376,8.8972,8.9282,8.7253,8.3226,8.4517,8.2626,7.7137,7.8943,8.0466,8.1538,8.041,7.7419,7.2623,7.3618,0.0,0.0,0.0,0.0,0.0,0.0,0.0,0.0,0.0,0.0,6.7276,6.3494,6.2082,6.4507,6.5437,6.8189,7.3349,7.6299,7.5961,7.1591,7.7853,8.2603,8.4008,8.6489,8.9172,9.205,9.2997,9.411,9.5737,9.667,9.7727,9.9068,9.9463,10.0142,10.148,10.2372,10.3227,10.4665,10.7572,11.0335,11.2134,11.4533,11.6426,11.7017,11.6494,11.589,11.5858,11.56,11.55,11.611,11.5336,11.511,11.6515,11.7421,11.8602,12.0344,12.2844,12.5046,12.6223,12.7094,12.7769,12.8333,12.847,12.847,12.847,12.847,12.8615,12.8231,12.7798,12.7437,8.4071,8.504,8.5098,8.4982,8.4885,8.5752,7.768,6.4014,6.4985,6.8201,7.2984,7.6366,7.7845,7.8023,8.0002,8.0055,7.8835,8.136,8.1934,8.1064,8.2385,8.3236,8.3675,8.5938,8.6914,8.6843,8.8227,8.9325,9.024,9.0522,8.8648,8.4698,8.4533,8.059,7.347,0.0,0.0,0.0,7.5878,7.8171,7.7756,7.4956,7.1663,6.8131,6.9124,0.0,6.5932,6.4095,6.2912,6.2399,6.2461,0.0,0.0,0.0,0.0,0.0,0.0,0.0,0.0,0.0,0.0,0.0,6.0538,6.0078,5.9082,6.5715,7.0627,7.1994,7.7162,8.1805,8.4951,8.6649,8.8633,9.1025,9.2745,9.4719,9.6842,9.7628,9.8496,9.9572,10.1001,10.1964,10.2443,10.5327,10.8261,11.0095,11.2539,11.4241,11.4833,11.5027,11.5327,11.5564,11.5108,11.4909,11.5162,11.4602,11.4466,11.5336,11.6254,11.717,11.8524,12.0351,12.2388,12.3666,12.4742,12.5162,12.5828,12.6393,12.615,12.675,12.6913,12.6715,12.5415,12.5343,12.592,8.1063,8.118,8.1238,7.8095,7.3455,7.7506,7.715,7.3771,7.3444,7.3815,7.4533,7.4738,7.4821,7.4821,7.5145,7.5158,7.4969,7.5949,7.7692,7.996,7.9271,7.9798,8.1482,8.2733,8.2819,8.2152,8.5696,8.7619,8.7745,8.893,8.9143,8.8492,8.7795,8.5116,8.0397,7.5426,7.1009,6.7108,7.5302,8.1,8.3567,8.3646,7.9845,7.2341,7.2961,6.9914,6.2435,6.2686,6.2056,5.9647,5.975,6.0061,6.0293,5.6515,5.3133,0.0,4.6168,0.0,0.0,0.0,0.0,0.0,0.0,0.0,0.0,5.7536,5.9561,6.0098,7.163,7.6954,7.2013,7.359,7.74,8.3347,8.5517,8.8384,9.3234,9.5282,9.6693,9.8087,9.8503,9.9517,10.1435,10.3063,10.5094,10.7836,10.9976,11.0639,11.1439,11.2004,11.3097,11.471,11.4744,11.4208,11.3367,11.2966,11.2497,11.1581,11.2129,11.2328,11.2939,11.4385,11.5663,11.6236,11.7464,11.8078,11.8062,11.8894,11.9764,12.129,12.1914,12.2173,12.2123,12.2938,12.3971,7.8519,7.9398,7.9158,7.5264,6.9319,7.1214,7.198,7.182,7.1574,7.1332,7.1012,7.0905,7.0183,6.918,7.0537,7.0592,6.9785,7.0945,7.1755,7.2149,7.2046,7.2725,7.4245,7.642,7.7807,7.8614,8.2105,8.4132,8.4712,8.5267,8.4114,8.1328,8.1068,7.7288,7.0296,6.8151,6.7773,6.9112,7.3222,7.7477,8.1952,8.2202,8.0276,7.642,7.6121,7.3727,6.9125,6.8961,6.8354,6.6864,6.6507,6.5285,6.2784,5.4359,4.8666,0.0,0.0,0.0,0.0,0.0,0.0,0.0,0.0,0.0,0.0,0.0,4.9127,5.3139,6.6754,7.2698,6.6334,6.9028,7.165,7.3281,7.3145,7.5894,8.3378,8.599,8.725,8.7315,9.0063,9.2681,9.4576,9.6388,9.9423,10.4698,10.0784,9.7809,9.9146,10.417,10.7908,10.8677,11.1394,11.3236,11.27,11.1895,11.1158,11.0586,11.0707,11.0987,11.1361,11.2355,11.3421,11.4299,11.5224,11.5944,11.6515,11.6926,11.747,11.8461,11.8466,11.8428,11.9191,12.0894,12.231,7.5426,7.6366,7.3364,6.9418,6.5212,6.4859,6.5767,6.723,6.7169,6.693,6.6494,6.5608,6.4095,6.2144,6.2698,6.3085,6.3288,6.4913,6.5936,6.6552,6.6761,6.7309,6.8361,7.0671,7.2696,7.4412,7.7287,7.9602,8.122,8.0413,7.7792,7.3586,7.2299,6.7644,5.9898,6.2435,6.6296,7.0983,7.2052,7.479,7.9109,7.8411,7.8138,7.8274,7.6902,7.5614,7.4601,7.3656,7.2914,7.2526,7.0387,6.7647,6.4085,5.2104,0.0,0.0,0.0,0.0,0.0,0.0,0.0,0.0,0.0,3.444,2.6725,0.0,4.1407,0.0,6.1055,6.7157,6.3027,6.4485,0.0,0.0,6.2186,6.3858,7.1872,7.5568,7.7422,7.7211,8.1583,8.5108,8.643,8.8296,9.1961,9.8223,9.2072,8.7211,8.8524,9.6443,10.1973,10.1705,10.4691,10.7806,10.7336,10.7403,10.7238,10.8141,10.861,10.9063,10.9676,11.0191,11.1096,11.275,11.3288,11.3771,11.467,11.5089,11.5335,11.5407,11.5333,11.5379,11.6705,11.8304,11.9617,7.106,7.0221,5.9792,5.6352,5.7627,5.7646,5.9637,6.2865,6.2525,6.2351,6.2045,5.8669,5.6004,5.3709,4.8934,0.0,5.5543,5.6678,6.1119,6.8305,6.6722,6.6386,6.7197,6.741,6.7838,6.8369,7.0668,7.3744,7.7275,7.4088,7.1234,6.8821,6.4148,5.985,5.6593,6.3415,6.7969,6.9418,7.3584,7.6079,7.6784,7.4849,7.4296,7.5302,7.3621,7.2851,7.3191,7.2081,7.1361,7.0775,6.4829,6.0592,5.8534,0.0,0.0,0.0,0.0,0.0,0.0,0.0,0.0,0.0,0.0,0.0,0.0,0.0,0.0,4.6105,5.3778,0.0,6.0842,5.6358,0.0,0.0,0.0,5.5022,6.0625,6.6038,7.0315,7.2743,0.0,0.0,7.9409,7.9719,8.1952,8.7661,8.9253,8.8907,8.6389,9.2388,9.6743,9.4101,9.4169,9.4437,9.5978,9.7185,9.9157,10.1474,10.3351,10.4396,10.4922,10.5253,10.6327,10.8648,10.8138,10.791,10.9871,11.0886,11.0823,10.9587,11.1419,11.3472,11.4271,11.4769,11.5195,6.0162,5.3722,4.7445,4.5686,4.7105,4.6877,4.9133,5.2864,5.2744,5.2676,5.2529,5.0305,4.7849,4.5128,4.2316,0.0,0.0,0.0,5.1563,5.8958,5.7621,5.9609,6.411,6.3693,6.4163,6.5659,6.7036,6.8831,7.1083,6.9545,6.1548,4.7474,0.0,4.438,4.5045,5.3793,5.9874,6.3292,6.8802,7.0896,6.9487,6.9317,6.9428,6.9652,7.0097,6.9836,6.892,6.955,6.8072,6.3977,6.0074,5.467,0.0,0.0,0.0,0.0,0.0,0.0,0.0,0.0,0.0,0.0,0.0,2.6066,2.0121,0.0,0.0,0.0,3.875,4.0774,4.3468,4.7106,0.0,0.0,0.0,0.0,0.0,0.0,0.0,5.7072,6.4874,7.1389,7.4505,7.2141,7.116,7.4092,7.3836,7.3169,7.2707,0.0,8.595,8.8389,8.9503,9.126,9.4772,9.2654,9.1205,9.323,9.6179,9.8371,9.876,10.1635,10.399,10.5132,10.5523,10.5846,10.6634,10.7057,10.7033,10.6545,10.7783,10.9254,11.0556,11.1908,11.3161,4.7935,0.0,0.0,0.0,0.0,3.7262,3.9755,4.4317,4.3976,4.385,4.3732,4.1731,0.0,0.0,0.0,0.0,0.0,0.0,4.4698,5.0835,5.275,5.5922,6.0189,5.9291,5.9816,6.1622,6.0779,6.0899,6.1687,5.9757,4.9759,3.2464,0.0,0.0,0.0,0.0,5.1342,5.6022,6.2733,6.5387,6.3855,6.46,6.4814,6.4401,6.6333,6.6987,6.614,6.5677,6.3219,5.8413,5.2709,0.0,0.0,0.0,0.0,0.0,0.0,0.0,0.0,0.0,0.0,0.0,0.0,0.0,0.0,0.0,0.0,0.0,0.0,0.0,3.2924,4.0148,4.2536,0.0,0.0,0.0,0.0,0.0,0.0,0.0,0.0,0.0,6.6741,6.5783,6.5657,0.0,0.0,6.7359,6.5628,7.296,7.9369,8.1391,8.253,0.0,8.8899,8.6151,8.4164,8.6059,9.0389,9.3498,9.3096,9.6017,9.8432,9.807,10.0284,10.1537,10.0231,9.9448,9.9309,10.0235,10.0459,10.1208,10.3074,10.4432,10.5623,0.0,0.0,0.0,0.0,0.0,0.0,0.0,0.0,3.7606,3.7119,0.0,3.2777,0.0,0.0,0.0,0.0,3.0936,3.6925,0.0,0.0,5.485,5.7604,5.4824,5.3786,5.4041,5.5094,5.0597,4.8623,4.8711,4.2369,0.0,0.0,0.0,0.0,0.0,0.0,4.3896,4.8231,5.6316,6.081,6.1696,6.1376,6.0904,6.0384,6.2392,6.4208,6.5675,6.0073,5.6605,5.5654,4.1635,0.0,0.0,0.0,0.0,0.0,0.0,0.0,0.0,0.0,0.0,0.0,0.0,0.0,0.0,0.0,0.0,0.0,0.0,0.0,0.0,3.66,0.0,0.0,0.0,0.0,0.0,0.0,0.0,0.0,0.0,5.5837,5.4872,6.1187,6.7709,7.1611,0.0,0.0,0.0,0.0,7.9517,7.2481,7.12,7.1468,7.1803,7.4954,7.8441,8.128,0.0,0.0,8.858,8.7802,8.7193,8.6172,9.129,9.3641,8.8265,8.625,8.634,8.8906,8.8464,8.8485,9.1006,9.1229,9.0303,0.0,0.0,0.0,0.0,0.0,0.0,0.0,0.0,0.0,2.7151,2.6253,2.413,0.0,0.0,0.0,0.0,0.0,0.0,0.0,0.0,4.1736,4.5405,4.7066,4.8148,4.7747,0.0,4.3609,3.8891,0.0,0.0,0.0,0.0,0.0,0.0,0.0,0.0,4.1933,4.5018,5.4827,5.9926,5.9552,5.8761,5.8752,5.9564,5.8671,5.7046,5.4773,5.1581,4.8244,0.0,0.0,0.0,0.0,0.0,0.0,0.0,0.0,0.0,0.0,0.0,0.0,0.0,0.0,0.0,0.0,0.0,0.0,0.0,0.0,0.0,0.0,0.0,3.5043,0.0,0.0,0.0,0.0,0.0,0.0,0.0,0.0,0.0,4.8516,5.4157,6.0609,6.7096,6.9569,7.0706,7.0668,0.0,0.0,0.0,0.0,0.0,0.0,0.0,7.2273,7.0395,7.1066,7.2608,7.4933,7.9318,8.2496,8.2442,0.0,0.0,7.531,7.5402,7.7363,7.8473,7.8176,7.8731,8.1714,8.1159,8.1001,0.0,0.0,0.0,0.0,0.0,0.0,0.0,0.0,0.0,1.9362,1.851,0.0,0.0,0.0,0.0,0.0,0.0,0.0,0.0,0.0,0.0,0.0,3.9771,4.1253,0.0,0.0,0.0,0.0,0.0,0.0,0.0,0.0,0.0,0.0,0.0,0.0,4.0044,4.2494,5.2956,5.8154,5.7453,5.6799,5.6975,5.7891,5.6305,5.3406,4.9187,0.0,0.0,0.0,0.0,0.0,0.0,0.0,0.0,0.0,0.0,0.0,0.0,0.0,0.0,0.0,0.0,0.0,0.0,0.0,0.0,0.0,0.0,0.0,0.0,0.0,3.0749,0.0,0.0,0.0,0.0,0.0,0.0,0.0,0.0,0.0,0.0,0.0,5.4229,6.0753,6.4432,6.7531,7.0361,7.2763,7.6112,0.0,0.0,0.0,0.0,0.0,0.0,0.0,0.0,0.0,0.0,0.0,0.0,0.0,0.0,7.2588,6.3985,6.4041,6.5706,6.6747,0.0,0.0,0.0,0.0,0.0,0.0,0.0,0.0,0.0,0.0,0.0,0.0,0.0,0.0,0.0,1.4097,0.0,0.0,1.2689,0.0,0.0,0.0,0.0,0.0,0.0,0.0,0.0,0.0,0.0,0.0,0.0,0.0,0.0,0.0,0.0,0.0,0.0,0.0,0.0,0.0,0.0,3.8053,4.0203,5.0348,5.5498,5.549,5.5443,5.5443,5.5482,5.535,5.3512,4.975,0.0,0.0,0.0,0.0,0.0,0.0,0.0,0.0,0.0,0.0,0.0,0.0,0.0,0.0,0.0,0.0,0.0,0.0,0.0,0.0,0.0,0.0,0.0,0.0,0.0,0.0,2.309,2.9487,3.4086,0.0,0.0,0.0,0.0,0.0,0.0,0.0,0.0,0.0,5.3314,6.3351,6.9889,6.8764,7.0869,7.3388,7.5048,7.2834,7.185,7.4665,7.4954,7.4507,0.0,0.0,0.0,0.0,0.0,0.0,0.0,0.0,0.0,0.0,0.0,0.0,0.0,0.0,0.0,0.0,0.0,0.0,0.0,0.0,0.0,0.0,0.0,0.0,0.0,0.0,0.0,0.0,0.0,0.0,0.0,0.0,0.0,0.0,0.0,0.0,0.0,0.0,0.0,0.0,0.0,0.0,0.0,0.0,0.0,0.0,0.0,0.0,0.0,0.0,0.0,0.0,0.0,0.0,3.8715,4.0091,5.0909,5.6105,5.5443,5.5443,5.5443,5.535,5.3293,4.9936,0.0,0.0,0.0,0.0,0.0,0.0,0.0,0.0,0.0,0.0,0.0,0.0,0.0,0.0,0.0,0.0,0.0,0.0,0.0,0.0,0.0,0.0,0.0,0.0,0.0,0.0,0.0,0.0,3.6795,3.7521,3.3708,0.0,0.0,0.0,0.0,0.0,0.0,0.0,0.0,0.0,0.0,6.5592,6.9625,7.2606,7.4601,7.5219,7.5793,7.5402,7.3317,7.4134,7.3098,6.7532,0.0,0.0,0.0,0.0,0.0,0.0,0.0,0.0,0.0,0.0,0.0,0.0,0.0,0.0,0.0,0.0,0.0,0.0,0.0,0.0,0.0,0.0,0.0,0.0,0.0,0.0,0.0,0.0,0.0,0.0,0.0,0.0,0.0,0.0,0.0,0.0,0.0,0.0,0.0,0.0,0.0,0.0,0.0,0.0,0.0,0.0,0.0,0.0,0.0,0.0,0.0,0.0,0.0,3.8781,4.0774,5.1376,5.6659,5.6051,5.6004,5.563,5.4797,5.2171,4.7776,0.0,0.0,0.0,0.0,0.0,0.0,0.0,0.0,0.0,0.0,0.0,0.0,0.0,0.0,0.0,0.0,0.0,0.0,0.0,0.0,0.0,0.0,0.0,0.0,0.0,0.0,0.0,0.0,3.422,3.5898,3.2847,0.0,0.0,0.0,0.0,0.0,0.0,0.0,0.0,0.0,0.0,5.9953,6.5972,6.8515,0.0,0.0,7.3978,7.3849,7.2606,7.4847,7.3836,6.5348,6.3021,0.0,0.0,0.0,0.0,0.0,0.0,0.0,0.0,0.0,0.0,0.0,0.0,0.0,0.0,0.0,0.0,0.0,0.0,0.0,0.0,0.0,0.0,0.0,0.0,0.0,0.0,0.0,0.0,0.0,0.0,0.0,0.0,0.0,0.0,0.0,0.0,0.0,0.0,0.0,0.0,0.0,0.0,0.0,0.0,0.0,0.0,0.0,0.0,0.0,0.0,0.0,0.0,3.838,4.1577,5.148,5.6659,5.6612,5.6659,5.5724,5.3816,5.148,4.6593,0.0,0.0,0.0,0.0,0.0,0.0,0.0,0.0,0.0,0.0,0.0,0.0,0.0,0.0,0.0,0.0,0.0,0.0,0.0,0.0,0.0,0.0,0.0,0.0,0.0,0.0,0.0,0.0,0.0,0.0,0.0,0.0,0.0,0.0,0.0,0.0,0.0,0.0,0.0,0.0,0.0,5.4072,5.9462,6.0589,6.3015,0.0,6.846,6.8378,7.1431,7.5692,7.5379,6.53,0.0,0.0,0.0,0.0,0.0,0.0,0.0,0.0,0.0,0.0,0.0,0.0,0.0,0.0,0.0,0.0,0.0,0.0,0.0,0.0,0.0,0.0,0.0,0.0,0.0,0.0,0.0,0.0,0.0,0.0,0.0,0.0,0.0,0.0,0.0,0.0,0.0,0.0,0.0,0.0,0.0,0.0,0.0,0.0,0.0,0.0,0.0,0.0,0.0,0.0,0.0,0.0,0.0,0.0,3.9142,4.9309,5.4236,5.3452,5.3489,5.3255,5.2611,4.8478,0.0,0.0,0.0,0.0,0.0,0.0,0.0,0.0,0.0,0.0,0.0,0.0,0.0,0.0,0.0,0.0,0.0,0.0,0.0,0.0,0.0,0.0,0.0,0.0,0.0,0.0,0.0,1.7337,0.0,0.0,0.0,0.0,0.0,0.0,0.0,0.0,0.0,0.0,0.0,0.0,0.0,0.0,5.495,5.95,5.9414,5.9903,0.0,0.0,6.3405,6.2455,6.7276,6.8786,0.0,0.0,0.0,0.0,0.0,0.0,0.0,0.0,0.0,0.0,0.0,0.0,0.0,0.0,0.0,0.0,0.0,0.0,0.0,0.0,0.0,0.0,0.0,0.0,0.0,0.0,0.0,0.0,0.0,0.0,0.0,0.0,0.0,0.0,0.0,0.0,0.0,0.0,0.0,0.0,0.0,0.0,0.0,0.0,0.0,0.0,0.0,0.0,0.0,0.0,0.0,0.0,0.0,0.0,3.5311,3.9084,4.6977,5.1688,5.2928,5.2938,5.2555,5.162,4.7155,4.2757,0.0,0.0,0.0,0.0,0.0,0.0,0.0,0.0,0.0,0.0,0.0,0.0,0.0,0.0,0.0,0.0,0.0,0.0,0.0,0.0,0.0,0.0,0.0,0.0,0.0,0.0,0.0,0.0,0.0,0.0,0.0,0.0,0.0,0.0,0.0,0.0,0.0,0.0,0.0,0.0,0.0,0.0,5.6498,5.5697,0.0,0.0,0.0,6.1553,6.0865,0.0,0.0,0.0,0.0,0.0,0.0,0.0,0.0,0.0,0.0,0.0,0.0,0.0,0.0,0.0,0.0,0.0,0.0,0.0,0.0,0.0,0.0,0.0,0.0,0.0,0.0,0.0,0.0,0.0,0.0,0.0,0.0,0.0,0.0,0.0,0.0,0.0,0.0,0.0,0.0,0.0,0.0,0.0,0.0,0.0,0.0,0.0,0.0,0.0,0.0,0.0,0.0,0.0,0.0,0.0,0.0,0.0,3.9502,4.4706,4.924,5.3069,5.3302,5.2415,5.0581,4.6841,4.2851,0.0,0.0,0.0,0.0,0.0,0.0,0.0,0.0,0.0,0.0,0.0,0.0,0.0,0.0,0.0,0.0,0.0,0.0,0.0,0.0,0.0,0.0,0.0,0.0,0.0,0.0,0.0,0.0,0.0,0.0,0.0,0.0,0.0,0.0,0.0,0.0,0.0,0.0,0.0,0.0,0.0,5.0455,5.3135,5.1518,5.0434,0.0,0.0,6.0203,6.1714,6.4384,0.0,0.0,0.0,0.0,0.0,0.0,0.0,0.0,0.0,0.0,0.0,0.0,0.0,0.0,0.0,0.0,0.0,0.0,0.0,0.0,0.0,0.0,0.0,0.0,0.0,0.0,0.0,0.0,0.0,0.0,0.0,0.0,0.0,0.0,0.0,0.0,0.0,0.0,0.0,0.0,0.0,0.0,0.0,0.0,0.0,0.0,0.0,0.0,0.0,0.0,0.0,0.0,0.0,0.0,0.0,0.0,3.7098,4.3324,4.7683,4.9985,5.0161,4.9892,4.9425,4.7169,4.363,0.0,0.0,0.0,0.0,0.0,0.0,0.0,0.0,0.0,0.0,0.0,0.0,0.0,0.0,0.0,0.0,0.0,0.0,0.0,0.0,0.0,0.0,0.0,0.0,0.0,0.0,0.0,0.0,0.0,0.0,0.0,0.0,0.0,0.0,0.0,0.0,0.0,0.0,0.0,0.0,0.0,5.0245,5.6165,5.1953,0.0,0.0,0.0,0.0,5.3148,5.384,0.0,0.0,0.0,0.0,0.0,0.0,0.0,0.0,0.0,0.0,0.0,0.0,0.0,0.0,0.0,0.0,0.0,0.0,0.0,0.0,0.0,0.0,0.0,0.0,0.0,0.0,0.0,0.0,0.0,0.0,0.0,0.0,0.0,0.0,0.0,0.0,0.0,0.0,0.0,0.0,0.0,0.0,0.0,0.0,0.0,0.0,0.0,0.0,0.0,0.0,0.0,0.0,0.0,0.0,0.0,0.0,3.7906,4.1385,4.5001,4.8799,4.9122,4.911,4.8973,4.7229,4.4051,0.0,0.0,0.0,0.0,0.0,0.0,0.0,0.0,0.0,0.0,0.0,0.0,0.0,0.0,0.0,0.0,0.0,0.0,0.0,0.0,0.0,0.0,0.0,0.0,0.0,0.0,0.0,0.0,0.0,0.0,0.0,0.0,0.0,0.0,0.0,0.0,0.0,0.0,0.0,0.0,4.3247,4.6474,5.1424,0.0,0.0,0.0,0.0,0.0,0.0,5.0804,4.9315,0.0,0.0,0.0,0.0,0.0,0.0,0.0,0.0,0.0,0.0,0.0,0.0,0.0,0.0,0.0,0.0,0.0,0.0,0.0,0.0,0.0,0.0,0.0,0.0,0.0,0.0,0.0,0.0,0.0,0.0,0.0,0.0,0.0,0.0,0.0,0.0,0.0,0.0,0.0,0.0,0.0,0.0,0.0,0.0,0.0,0.0,0.0,0.0,0.0,0.0,0.0,0.0,0.0,0.0,0.0,3.8614,3.9402,4.2538,4.8197,4.8902,4.9041,4.8835,4.7023,4.4004,3.9557,0.0,0.0,0.0,0.0,0.0,0.0,0.0,0.0,0.0,0.0,0.0,0.0,0.0,0.0,0.0,0.0,0.0,0.0,0.0,0.0,0.0,0.0,0.0,0.0,0.0,0.0,0.0,0.0,0.0,0.0,0.0,0.0,0.0,0.0,0.0,0.0,0.0,0.0,0.0,4.0088,4.1846,0.0,0.0,0.0,0.0,0.0,0.0,0.0,0.0,4.7439,0.0,0.0,0.0,0.0,0.0,0.0,0.0,0.0,0.0,0.0,0.0,0.0,0.0,0.0,0.0,0.0,0.0,0.0,0.0,0.0,0.0,0.0,0.0,0.0,0.0,0.0,0.0,0.0,0.0,0.0,0.0,0.0,0.0,0.0,0.0,0.0,0.0,0.0,0.0,0.0,0.0,0.0,0.0,0.0,0.0,0.0,0.0,0.0,0.0,0.0,0.0,0.0,0.0,0.0,0.0,0.0,3.7687,4.2125,4.6482,4.8304,4.9191,4.911,4.6421,4.257,3.7565,0.0,0.0,0.0,0.0,0.0,0.0,0.0,0.0,0.0,0.0,0.0,0.0,0.0,0.0,0.0,0.0,0.0,0.0,0.0,0.0,0.0,0.0,0.0,0.0,0.0,0.0,0.0,0.0,0.0,0.0,0.0,0.0,0.0,0.0,0.0,0.0,0.0,0.0,2.9718,3.4743,0.0,0.0,0.0,0.0,0.0,0.0,0.0,0.0,4.2498,0.0,0.0,0.0,0.0,0.0,0.0,0.0,0.0,0.0,0.0,0.0,0.0,0.0,0.0,0.0,0.0,0.0,0.0,0.0,0.0,0.0,0.0,0.0,0.0,0.0,0.0,0.0,0.0,0.0,0.0,0.0,0.0,0.0,0.0,0.0,0.0,0.0,0.0,0.0,0.0,0.0,0.0,0.0,0.0,0.0,0.0,0.0,0.0,0.0,0.0,0.0,0.0,0.0,0.0,0.0,0.0,0.0,0.0,4.0865,4.4209,4.6496,4.757,4.7217,4.3508,3.9997,0.0,0.0,0.0,0.0,0.0,0.0,0.0,0.0,0.0,0.0,0.0,0.0,0.0,0.0,0.0,0.0,0.0,0.0,0.0,0.0,0.0,0.0,0.0,0.0,0.0,0.0,0.0,0.0,0.0,0.0,0.0,0.0,0.0,0.0,0.0,0.0,0.0,0.0,0.0,0.0,0.0,0.0,0.0,0.0,0.0,0.0,0.0,0.0,0.0,0.0,0.0,0.0,0.0,0.0,0.0,0.0,0.0,0.0,0.0,0.0,0.0,0.0,0.0,0.0,0.0,0.0,0.0,0.0,0.0,0.0,0.0,0.0,0.0,0.0,0.0,0.0,0.0,0.0,0.0,0.0,0.0,0.0,0.0,0.0,0.0,0.0,0.0,0.0,0.0,0.0,0.0,0.0,0.0,0.0,0.0,0.0,0.0,0.0,0.0,0.0,0.0,0.0,0.0,0.0,0.0,0.0,0.0,0.0,3.9392,4.1985,4.4831,4.609,4.5753,4.065,3.705,0.0,0.0,0.0,0.0,0.0,0.0,0.0,0.0,0.0,0.0,0.0,0.0,0.0,0.0,0.0,0.0,0.0,0.0,0.0,0.0,0.0,0.0,0.0,0.0,0.0,0.0,0.0,0.0,0.0,0.0,0.0,0.0,0.0,0.0,0.0,0.0,0.0,0.0,0.0,0.0,0.0,0.0,0.0,0.0,0.0,0.0,0.0,0.0,3.9371,0.0,0.0,0.0,0.0,0.0,0.0,0.0,0.0,0.0,0.0,0.0,0.0,0.0,0.0,0.0,0.0,0.0,0.0,0.0,0.0,0.0,0.0,0.0,0.0,0.0,0.0,0.0,0.0,0.0,0.0,0.0,0.0,0.0,0.0,0.0,0.0,0.0,0.0,0.0,0.0,0.0,0.0,0.0,0.0,0.0,0.0,0.0,0.0,0.0,0.0,0.0,0.0,0.0,0.0,0.0,0.0,0.0,0.0,0.0,3.812,4.0334,4.4224,4.6219,4.6,3.9362,3.3915,0.0,0.0,0.0,0.0,0.0,0.0,0.0,0.0,0.0,0.0,0.0,0.0,0.0,0.0,0.0,0.0,0.0,0.0,0.0,0.0,0.0,0.0,0.0,0.0,0.0,0.0,0.0,0.0,0.0,0.0,0.0,0.0,0.0,0.0,0.0,0.0,0.0,0.0,0.0,0.0,0.0,0.0,0.0,0.0,0.0,0.0,0.0,0.0,0.0,0.0,0.0,0.0,0.0,0.0,0.0,0.0,0.0,0.0,0.0,0.0,0.0,0.0,0.0,0.0,0.0,0.0,0.0,0.0,0.0,0.0,0.0,0.0,0.0,0.0,0.0,0.0,0.0,0.0,0.0,0.0,0.0,0.0,0.0,0.0,0.0,0.0,0.0,0.0,0.0,0.0,0.0,0.0,0.0,0.0,0.0,0.0,0.0,0.0,0.0,0.0,0.0,0.0,0.0,0.0,0.0,0.0,0.0,0.0,3.3937,3.7326,4.0839,4.2085,4.0886,3.5528,3.1557,0.0,0.0,0.0,0.0,0.0,0.0,0.0,0.0,0.0,0.0,0.0,0.0,0.0,0.0,0.0,0.0,0.0,0.0,0.0,0.0,0.0,0.0,0.0,0.0,0.0,0.0,0.0,0.0,0.0,0.0,0.0,0.0,0.0,0.0,0.0,0.0,0.0,0.0,0.0,0.0,0.0,0.0,0.0,0.0,0.0,0.0,0.0,0.0,0.0,0.0,0.0,0.0,0.0,0.0,0.0,0.0,0.0,0.0,0.0,0.0,0.0,0.0,0.0,0.0,0.0,0.0,0.0,0.0,0.0,0.0,0.0,0.0,0.0,0.0,0.0,0.0,0.0,0.0,0.0,0.0,0.0,0.0,0.0,0.0,0.0,0.0,0.0,0.0,0.0,0.0,0.0,0.0,0.0,0.0,0.0,0.0,0.0,0.0,0.0,0.0,0.0,0.0,0.0,0.0,0.0,0.0,0.0,0.0,0.0,3.4102,3.6931,3.7424,3.5366,3.2071,2.9343,0.0,0.0,0.0,0.0,0.0,0.0,0.0,0.0,0.0,0.0,0.0,0.0,0.0,0.0,0.0,0.0,0.0,0.0,0.0,0.0,0.0,0.0,0.0,0.0,0.0,0.0,0.0,0.0,0.0,0.0,0.0,0.0,0.0,0.0,0.0,0.0,0.0,0.0,0.0,0.0,0.0,0.0,0.0,0.0,0.0,0.0,0.0,0.0,0.0,0.0,0.0,0.0,0.0,0.0,0.0,0.0,0.0,0.0,0.0,0.0,0.0,0.0,0.0,0.0,0.0,0.0,0.0,0.0,0.0,0.0,0.0,0.0,0.0,0.0,0.0,0.0,0.0,0.0,0.0,0.0,0.0,0.0,0.0,0.0,0.0,0.0,0.0,0.0,0.0,0.0,0.0,0.0,0.0,0.0,0.0,0.0,0.0,0.0,0.0,0.0,0.0,0.0,0.0,0.0,0.0,0.0,0.0,0.0,0.0,3.0976,3.3051,3.3121,3.1137,2.9835,2.6964,0.0,0.0,0.0,0.0,0.0,0.0,0.0,0.0,0.0,0.0,0.0,0.0,0.0,0.0,0.0,0.0,0.0,0.0,0.0,0.0,0.0,0.0,0.0,0.0,0.0,0.0,0.0,0.0,0.0,0.0,0.0,0.0,0.0,0.0,0.0,0.0,0.0,0.0,0.0,0.0,0.0,0.0,0.0,0.0,0.0,0.0,0.0,0.0,0.0,0.0,0.0,0.0,0.0,0.0,0.0,0.0,0.0,0.0,0.0,0.0,0.0,0.0,0.0,0.0,0.0,0.0,0.0,0.0,0.0,0.0,0.0,0.0,0.0,0.0,0.0,0.0,0.0,0.0,0.0,0.0,0.0,0.0,0.0,0.0,0.0,0.0,0.0,0.0,0.0,0.0,0.0,0.0,0.0,0.0,0.0,0.0,0.0,0.0,0.0,0.0,0.0,0.0,0.0,0.0,0.0,0.0,0.0,0.0,0.0,2.3185,2.5069,2.6674,2.7881,2.4368,2.2765,2.3407,0.0,0.0,0.0,0.0,0.0,0.0,0.0,0.0,0.0,0.0,0.0,0.0,0.0,0.0,0.0,0.0,0.0,0.0,0.0,0.0,0.0,0.0,0.0,0.0,0.0,0.0,0.0,0.0,0.0,0.0,0.0,0.0,0.0,0.0,0.0,0.0,0.0,0.0,0.0,0.0,0.0,0.0,0.0,0.0,0.0,0.0,0.0,0.0,0.0,0.0,0.0,0.0,0.0,0.0,0.0,0.0,0.0,0.0,0.0,0.0,0.0,0.0,0.0,0.0,0.0,0.0,0.0,0.0,0.0,0.0,0.0,0.0,0.0,0.0,0.0,0.0,0.0,0.0,0.0,0.0,0.0,0.0,0.0,0.0,0.0,0.0,0.0,0.0,0.0,0.0,0.0,0.0,0.0,0.0,0.0,0.0,0.0,0.0,0.0,0.0,0.0,0.0,0.0,0.0,0.0,0.0,0.0,0.0,1.9453,2.1785,2.3751,2.5062,2.18,2.0522,0.0,0.0,0.0,0.0,0.0,0.0,0.0,0.0,0.0,0.0,0.0,0.0,0.0,0.0,0.0,0.0,0.0,0.0,0.0,0.0,0.0,0.0,0.0,0.0,0.0,0.0,0.0,0.0,0.0,0.0,0.0,0.0,0.0,0.0,0.0,0.0,0.0,0.0,0.0,0.0,0.0,0.0,0.0,0.0,0.0,0.0,0.0,0.0,0.0,0.0,0.0,0.0,0.0,0.0,0.0,0.0,0.0,0.0,0.0,0.0,0.0,0.0,0.0,0.0,0.0,0.0,0.0,0.0,0.0,0.0,0.0,0.0,0.0,0.0,0.0,0.0,0.0,0.0,0.0,0.0,0.0,0.0,0.0,0.0,0.0,0.0,0.0,0.0,0.0,0.0,0.0,0.0,0.0,0.0,0.0,0.0,0.0,0.0,0.0,0.0,0.0,0.0,0.0,0.0,0.0,0.0,0.0,0.0,1.6386,2.1285,2.4313,2.4922,2.325,2.2938,2.0645,0.0,0.0,0.0,0.0,0.0,0.0,0.0,0.0,0.0,0.0,0.0,0.0,0.0,0.0,0.0,0.0,0.0,0.0,0.0,0.0,0.0,0.0,0.0,0.0,0.0,0.0,0.0,0.0,0.0,0.0,0.0,0.0,0.0,0.0,0.0,0.0,0.0,0.0,0.0,0.0,0.0,0.0,0.0,0.0,0.0,0.0,0.0,0.0,0.0,0.0,0.0,0.0,0.0,0.0,0.0,0.0,0.0,0.0,0.0,0.0,0.0,0.0,0.0,0.0,0.0,0.0,0.0,0.0,0.0,0.0,0.0,0.0,0.0,0.0,0.0,0.0,0.0,0.0,0.0,0.0,0.0,0.0,0.0,0.0,0.0,0.0,0.0,0.0,0.0,0.0,0.0,0.0,0.0,0.0,0.0,0.0,0.0,0.0,0.0,0.0,0.0,0.0,0.0,0.0,0.0,0.0,0.0,0.0,0.0,1.5369,0.0,2.1658,0.0,2.1113,1.9981,0.0,0.0,0.0,0.0,0.0,0.0,0.0,0.0,0.0,0.0,0.0,0.0,0.0,0.0,0.0,0.0,0.0,0.0,0.0,0.0,0.0,0.0,0.0,0.0,0.0,0.0,0.0,0.0,0.0,0.0,0.0,0.0,0.0,0.0,0.0,0.0,0.0,0.0,0.0,0.0,0.0,0.0,0.0,0.0,0.0,0.0,0.0,0.0,0.0,0.0,0.0,0.0,0.0,0.0,0.0,0.0,0.0,0.0,0.0,0.0,0.0,0.0,0.0,0.0,0.0,0.0,0.0,0.0,0.0,0.0,0.0,0.0,0.0,0.0,0.0,0.0,0.0,0.0,0.0,0.0,0.0,0.0,0.0,0.0,0.0,0.0,0.0,0.0,0.0,0.0,0.0,0.0,0.0,0.0,0.0,0.0,0.0,0.0,0.0,0.0,0.0,0.0,0.0,0.0,0.0,0.0,0.0,0.0,0.0,1.6152,1.7004,1.9755,2.4189,2.1036,2.039,0.0,0.0,0.0,0.0,0.0,0.0,0.0,0.0,0.0,0.0,0.0,0.0,0.0,0.0,0.0,0.0,0.0,0.0,0.0,0.0,0.0,0.0,0.0,0.0,0.0,0.0,0.0,0.0,0.0,0.0,0.0,0.0,0.0,0.0,0.0,0.0,0.0,0.0,0.0,0.0,0.0,0.0,0.0,0.0,0.0,0.0,0.0,0.0,0.0,0.0,0.0,0.0,0.0,0.0,0.0,0.0,0.0,0.0,0.0,0.0,0.0,0.0,0.0,0.0,0.0,0.0,0.0,0.0,0.0,0.0,0.0,0.0,0.0,0.0,0.0,0.0,0.0,0.0,0.0,0.0,0.0,0.0,0.0,0.0,0.0,0.0,0.0,0.0,0.0,0.0,0.0,0.0,0.0,0.0,0.0,0.0,0.0,0.0,0.0,0.0,0.0,0.0,0.0,0.0,0.0,0.0,0.0,0.0,0.0,0.0,1.9947,1.9467,2.1379,2.2262,2.1641,0.0,0.0,0.0,0.0,0.0,0.0,0.0,0.0,0.0,0.0,0.0,0.0,0.0,0.0,0.0,0.0,0.0,0.0,0.0,0.0,0.0,0.0,0.0,0.0,0.0,0.0,0.0,0.0,0.0,0.0,0.0,0.0,0.0,0.0,0.0,0.0,0.0,0.0,0.0,0.0,0.0,0.0,0.0,0.0,0.0,0.0,0.0,0.0,0.0,0.0,0.0,0.0,0.0,0.0,0.0,0.0,0.0,0.0,0.0,0.0,0.0,0.0,0.0,0.0,0.0,0.0,0.0,0.0,0.0,0.0,0.0,0.0,0.0,0.0,0.0,0.0,0.0,0.0,0.0,0.0,0.0,0.0,0.0,0.0,0.0,0.0,0.0,0.0,0.0,0.0,0.0,0.0,0.0,0.0,0.0,0.0,0.0,0.0,0.0,0.0,0.0,0.0,0.0,0.0,0.0,0.0,0.0,0.0,0.0,0.0,1.8886,1.9513,1.9307,1.8877,1.9146,2.0362,0.0,0.0,0.0,0.0,0.0,0.0,0.0,0.0,0.0,0.0,0.0,0.0,0.0,0.0,0.0,0.0,0.0,0.0,0.0,0.0,0.0,0.0,0.0,0.0,0.0,0.0,0.0,0.0,0.0,0.0,0.0,0.0,0.0,0.0,0.0,0.0,0.0,0.0,0.0,0.0,0.0,0.0,0.0,0.0,0.0,0.0,0.0,0.0,0.0,0.0,0.0,0.0,0.0,0.0,0.0,0.0,0.0,0.0,0.0,0.0,0.0,0.0,0.0,0.0,0.0,0.0,0.0,0.0,0.0,0.0,0.0,0.0,0.0,0.0,0.0,0.0,0.0,0.0,0.0,0.0,0.0,0.0,0.0,0.0,0.0,0.0,0.0,0.0,0.0,0.0,0.0,0.0,0.0,0.0,0.0,0.0,0.0,0.0,0.0,0.0,0.0,0.0,0.0,0.0,0.0,0.0,0.0,0.0,0.0,0.0,1.8873,1.9093,1.8079,1.8646,0.0,0.0,0.0,0.0,0.0,0.0,0.0,0.0,0.0,0.0,0.0,0.0,0.0,0.0,0.0,0.0,0.0,0.0,0.0,0.0,0.0,0.0,0.0,0.0,0.0,0.0,0.0,0.0,0.0,0.0,0.0,0.0,0.0,0.0,0.0,0.0,0.0,0.0,0.0,0.0,0.0,0.0,0.0,0.0,0.0,0.0,0.0,0.0,0.0,0.0,0.0,0.0,0.0,0.0,0.0,0.0,0.0,0.0,0.0,0.0,0.0,0.0,0.0,0.0,0.0,0.0,0.0,0.0,0.0,0.0,0.0,0.0,0.0,0.0,0.0,0.0,0.0,0.0,0.0,0.0,0.0,0.0,0.0,0.0,0.0,0.0,0.0,0.0,0.0,0.0,0.0,0.0,0.0,0.0,0.0,0.0,0.0,0.0,0.0,0.0,0.0,0.0,0.0,0.0,0.0,0.0,0.0,0.0,0.0,0.0,0.0,1.7883,1.9527,1.894,0.0,2.0691,0.0,0.0,0.0,0.0,0.0,0.0,0.0,0.0,0.0,0.0,0.0,0.0,0.0,0.0,0.0,0.0,0.0,0.0,0.0,0.0,0.0,0.0,0.0,0.0,0.0,0.0,0.0,0.0,0.0,0.0,0.0,0.0,0.0,0.0,0.0,0.0,0.0,0.0,0.0,0.0,0.0,0.0,0.0,0.0,0.0,0.0,0.0,0.0,0.0,0.0,0.0,0.0,0.0,0.0,0.0,0.0,0.0,0.0,0.0,0.0,0.0,0.0,0.0,0.0,0.0,0.0,0.0,0.0,0.0,0.0,0.0,0.0,0.0,0.0,0.0,0.0,0.0,0.0,0.0,0.0,0.0,0.0,0.0,0.0,0.0,0.0,0.0,0.0,0.0,0.0,0.0,0.0,0.0,0.0,0.0,0.0,0.0,0.0,0.0,0.0,0.0,0.0,0.0,0.0,0.0,0.0,0.0,0.0,0.0,0.0,0.0,0.0,1.8533,1.8163,1.512,0.0,0.0,0.0,0.0,0.0,0.0,0.0,0.0,0.0,0.0,0.0,0.0,0.0,0.0,0.0,0.0,0.0,0.0,0.0,0.0,0.0,0.0,0.0,0.0,0.0,0.0,0.0,0.0,0.0,0.0,0.0,0.0,0.0,0.0,0.0,0.0,0.0,0.0,0.0,0.0,0.0,0.0,0.0,0.0,0.0,0.0,0.0,0.0,0.0,0.0,0.0,0.0,0.0,0.0,0.0,0.0,0.0,0.0,0.0,0.0,0.0,0.0,0.0,0.0,0.0,0.0,0.0,0.0,0.0,0.0,0.0,0.0,0.0,0.0,0.0,0.0,0.0,0.0,0.0,0.0,0.0,0.0,0.0,0.0,0.0,0.0,0.0,0.0,0.0,0.0,0.0,0.0,0.0,0.0,0.0,0.0,0.0,0.0,0.0,0.0,0.0,0.0,0.0,0.0,0.0,0.0,0.0,0.0,0.0,0.0,1.7717,1.6186,1.773,1.6993,1.3759,0.0,0.0,0.0,0.0,0.0,0.0,0.0,0.0,0.0,0.0,0.0,0.0,0.0,0.0,0.0,0.0,0.0,0.0,0.0,0.0,0.0,0.0,0.0,0.0,0.0,0.0,0.0,0.0,0.0,0.0,0.0,0.0,0.0,0.0,0.0,0.0,0.0,0.0,0.0,0.0,0.0,0.0,0.0,0.0,0.0,0.0,0.0,0.0,0.0,0.0,0.0,0.0,0.0,0.0,0.0,0.0,0.0,0.0,0.0,0.0,0.0,0.0,0.0,0.0,0.0,0.0,0.0,0.0,0.0,0.0,0.0,0.0,0.0,0.0,0.0,0.0,0.0,0.0,0.0,0.0,0.0,0.0,0.0,0.0,0.0,0.0,0.0,0.0,0.0,0.0,0.0,0.0,0.0,0.0,0.0,0.0,0.0,0.0,0.0,0.0,0.0,0.0,0.0,0.0,0.0,0.0,0.0,0.0,0.0,0.0,0.0,0.0,0.0,0.0,1.4846,0.0,0.0,0.0,0.0,0.0,0.0,0.0,0.0,0.0,0.0,0.0,0.0,0.0,0.0,0.0,0.0,0.0,0.0,0.0,0.0,0.0,0.0,0.0,0.0,0.0,0.0,0.0,0.0,0.0,0.0,0.0,0.0,0.0,0.0,0.0,0.0,0.0,0.0,0.0,0.0,0.0,0.0,0.0,0.0,0.0,0.0,0.0,0.0,0.0,0.0,0.0,0.0,0.0,0.0,0.0,0.0,0.0,0.0,0.0,0.0,0.0,0.0,0.0,0.0,0.0,0.0,0.0,0.0,0.0,0.0,0.0,0.0,0.0,0.0,0.0,0.0,0.0,0.0,0.0,0.0,0.0,0.0,0.0,0.0,0.0,0.0,0.0,0.0,0.0,0.0,0.0,0.0,0.0,0.0,0.0,0.0,0.0,0.0,0.0,0.0,0.0,0.0,0.0,0.0,0.0,0.0,0.0,0.0,0.0,0.0,0.0,0.0,0.0,0.0,0.0,0.0,0.0,0.0,0.0,0.0,0.0,0.0,0.0,0.0,0.0,0.0,0.0,0.0,0.0,0.0,0.0,0.0,0.0,0.0,0.0,0.0,0.0,0.0,0.0,0.0,0.0,0.0,0.0,0.0,0.0,0.0,0.0,0.0,0.0,0.0,0.0,0.0,0.0,0.0,0.0,0.0,0.0,0.0,0.0,0.0,0.0,0.0,0.0,0.0,0.0,0.0,0.0,0.0,0.0,0.0,0.0,0.0,0.0,0.0,0.0,0.0,0.0,0.0,0.0,0.0,0.0,0.0,0.0,0.0,0.0,0.0,0.0,0.0,0.0,0.0,0.0,0.0,0.0,0.0,0.0,0.0,0.0,0.0,0.0,0.0,0.0,0.0,0.0,0.0,0.0,0.0,0.0,0.0,0.0,0.0,0.0,0.0,0.0,0.0,0.0,0.0,0.0,0.0,0.0,0.0,0.0,0.0,0.0,0.0,0.0,0.0,0.0,0.0,0.0,0.0,0.0,0.0,0.0,0.0,0.0,0.0,0.0,0.0,0.0,0.0,0.0,0.0,0.0,0.0,0.0,0.0,0.0,0.0,0.0,0.0,0.0,0.0,0.0,0.0,0.0,0.0,0.0,0.0,0.0,0.0,0.0,0.0,0.0,0.0,0.0,0.0,0.0,0.0,0.0,0.0,0.0,0.0,0.0,0.0,0.0,0.0,0.0,0.0,0.0,0.0,0.0,0.0,0.0,0.0,0.0,0.0,0.0,0.0,0.0,0.0,0.0,0.0,0.0,0.0,0.0,0.0,0.0,0.0,0.0,0.0,0.0,0.0,0.0,0.0,0.0,0.0,0.0,0.0,0.0,0.0,0.0,0.0,0.0,0.0,0.0,0.0,0.0,0.0,0.0,0.0,0.0,0.0,0.0,0.0,0.0,0.0,0.0,0.0,0.0,0.0,0.0,0.0,0.0,0.0,0.0,0.0,0.0,0.0,0.0,0.0,0.0,0.0,0.0,0.0,0.0,0.0,0.0,0.0,0.0,0.0,0.0,0.0,0.0,0.0,0.0,0.0,0.0,0.0,0.0,0.0,0.0,0.0,0.0,0.0,0.0,0.0,0.0,0.0,0.0,0.0,0.0,0.0,0.0,0.0,0.0,0.0,0.0,0.0,0.0,0.0,0.0,0.0,0.0,0.0,0.0,0.0,0.0,0.0,0.0,0.0,0.0,0.0,0.0,0.0,0.0,0.0,0.0,0.0,0.0,0.0,0.0,0.0,0.0,0.0,0.0,0.0,0.0,0.0,0.0,0.0,0.0,0.0,0.0,0.0,0.0,0.0,0.0,0.0,0.0,0.0,0.0,0.0,0.0,0.0,0.0,0.0,0.0,0.0,0.0,0.0,0.0,0.0,0.0,0.0,0.0,0.0,0.0,0.0,0.0,0.0,0.0,0.0,0.0,0.0,0.0,0.0,0.0,0.0,0.0,0.0,0.0,0.0,0.0,0.0,0.0,0.0,0.0,0.0,0.0,0.0,0.0,0.0,0.0,0.0,0.0,0.0,0.0,0.0,0.0,0.0,0.0,0.0,0.0,0.0,0.0,0.0,0.0,0.0,0.0,0.0,0.0,0.0,0.0,0.0,0.0,0.0,0.0,0.0,0.0,0.0,0.0,0.0,0.0,0.0,0.0,0.0,0.0,0.0,0.0,0.0,0.0,0.0,0.0,0.0,0.0,0.0,0.0,0.0,0.0,0.0,0.0,0.0,0.0,0.0,0.0,0.0,0.0,0.0,0.0,0.0,0.0,0.0,0.0,0.0,0.0,0.0,0.0,0.0,0.0,0.0,0.0,0.0,0.0,0.0,0.0,0.0,0.0,0.0,0.0,0.0,0.0,0.0,0.0,0.0,0.0,0.0,0.0,0.0,0.0,0.0,0.0,0.0,0.0,0.0,0.0,0.0,0.0,0.0,0.0,0.0,0.0,0.0,0.0,0.0,0.0,0.0,0.0,0.0,0.0,0.0,0.0,0.0,0.0,0.0,0.0,0.0,0.0,0.0,0.0,0.0,0.0,0.0,0.0,0.0,0.0,0.0,0.0,0.0,0.0,0.0,0.0,0.0,0.0,0.0,0.0,0.0,0.0,0.0,0.0,0.0,0.0,0.0,0.0,0.0,0.0,0.0,0.0,0.0,0.0,0.0,0.0,0.0,0.0,0.0,0.0,0.0,0.0,0.0,0.0,0.0,0.0,0.0,0.0,0.0,0.0,0.0,0.0,0.0,0.0,0.0,0.0,0.0,0.0,0.0,0.0,0.0,0.0,0.0,0.0,0.0,0.0,0.0,0.0,0.0,0.0,0.0,0.0,0.0,0.0,0.0,0.0,0.0,0.0,0.0,0.0,0.0,0.0,0.0,0.0,0.0,0.0,0.0,0.0,0.0,0.0,0.0,0.0,0.0,0.0,0.0,0.0,0.0,0.0,0.0,0.0,0.0,0.0,0.0,0.0,0.0,0.0,0.0,0.0,0.0,0.0,0.0,0.0,0.0,0.0,0.0,0.0,0.0,0.0,0.0,0.0,0.0,0.0,0.0,0.0,0.0,0.0,0.0,0.0,0.0,0.0,0.0,0.0,0.0,0.0,0.0,0.0,0.0,0.0,0.0,0.0,0.0,0.0,0.0,0.0,0.0,0.0,0.0,0.0,0.0,0.0,0.0,0.0,0.0,0.0,0.0,0.0,0.0,0.0,0.0,0.0,0.0,0.0,0.0,0.0,0.0,0.0,0.0,0.0,0.0,0.0,0.0,0.0,0.0,0.0,0.0,0.0,0.0,0.0,0.0,0.0,0.0,0.0,0.0,0.0,0.0,0.0,0.0,0.0,0.0,0.0,0.0,0.0,0.0,0.0,0.0,0.0,0.0,0.0,0.0,0.0,0.0,0.0,0.0,0.0,0.0,0.0,0.0,0.0,0.0,0.0,0.0,0.0,0.0,0.0,0.0,0.0,0.0,0.0,0.0,0.0,0.0,0.0,0.0,0.0,0.0,0.0,0.0,0.0,0.0,0.0,0.0,0.0,0.0,0.0,0.0,0.0,0.0,0.0,0.0,0.0,0.0,0.0,0.0,0.0,0.0,0.0,0.0,0.0,0.0,0.0,0.0,0.0,0.0,0.0,0.0,0.0,0.0,0.0,0.0,0.0,0.0,0.0,0.0,0.0,0.0,0.0,0.0,0.0,0.0,0.0,0.0,0.0,0.0,0.0,0.0,0.0,0.0,0.0,0.0,0.0,0.0,0.0,0.0,0.0,0.0,0.0,0.0,0.0,0.0,0.0,0.0,0.0,0.0,0.0,0.0,0.0,0.0,0.0,0.0,0.0,0.0,0.0,0.0,0.0,0.0,0.0,0.0,0.0,0.0,0.0,0.0,0.0,0.0,0.0,0.0,0.0,0.0,0.0,0.0,0.0,0.0,0.0,0.0,0.0,0.0,0.0,0.0,0.0,0.0,0.0,0.0,0.0,0.0,0.0,0.0,0.0,0.0,0.0,0.0,0.0,0.0,0.0,0.0,0.0,0.0,0.0,0.0,0.0,0.0,0.0,0.0,0.0,0.0,0.0,0.0,0.0,0.0,0.0,0.0,0.0,0.0,0.0,0.0,0.0,0.0,0.0,0.0,0.0,0.0,0.0,0.0,0.0,0.0,0.0,0.0,0.0,0.0,0.0,0.0,0.0,0.0,0.0,0.0,0.0,0.0,0.0,0.0,0.0,0.0,0.0,0.0,0.0,0.0,0.0,0.0,0.0,0.0,0.0,0.0,0.0,0.0,0.0,0.0,0.0,0.0,0.0,0.0,0.0,0.0,0.0,0.0,0.0,0.0]}]]]